[[{"header":{"parameterUnit":"m.s-1","parameterCategory":1,"la1":30.6,"la2":29.2853,"lo1":-89.7004,"lo2":-87.6739,"dy":0.0162,"dx":0.0183,"nx":112,"ny":82,"refTime":"2025-05-20T18:00:00:Z","depth":0,"parameterNumber":2,"parameterNumberName":"U-component_of_WINDS"},"data":[0.0,0.0,0.0,0.0,0.0,0.0,0.0,0.0,0.0,0.0,0.0,0.0,0.0,0.0,0.0,0.0,0.0,0.0,0.0,0.0,0.0,0.0,0.0,0.0,0.0,0.0,0.0,0.0,0.0,0.0,0.0,0.0,0.0,0.0,0.0,0.0,0.0,0.0,0.0,0.0,0.0,0.0,0.0,0.0,0.0,0.0,0.0,0.0,0.0,0.0,0.0,0.0,0.0,0.0,0.0,0.0,0.0,0.0,0.0,0.0,0.0,0.0,0.0,0.0,0.0,0.0,0.0,0.0,0.0,0.0,0.0,0.0,0.0,0.0,0.0,0.0,0.0,0.0,0.0,0.0,0.0,0.0,0.0,0.0,0.0,0.0,0.0,0.0,0.0,0.0,0.0,-3.2524,-3.6508,-3.8876,-3.8612,-3.718,-3.4352,-2.9799,0.0,0.0,0.0,0.0,0.0,0.0,0.0,0.0,0.0,0.0,0.0,0.0,0.0,0.0,0.0,0.0,0.0,0.0,0.0,0.0,0.0,0.0,0.0,0.0,0.0,0.0,0.0,0.0,0.0,0.0,0.0,0.0,0.0,0.0,0.0,0.0,0.0,0.0,0.0,0.0,0.0,0.0,0.0,0.0,0.0,0.0,0.0,0.0,0.0,0.0,0.0,0.0,0.0,0.0,0.0,0.0,0.0,0.0,0.0,0.0,0.0,0.0,0.0,0.0,0.0,0.0,0.0,0.0,0.0,0.0,0.0,0.0,0.0,0.0,0.0,0.0,0.0,0.0,0.0,0.0,0.0,0.0,0.0,0.0,0.0,0.0,0.0,0.0,0.0,0.0,0.0,0.0,0.0,0.0,0.0,0.0,0.0,0.0,0.0,0.0,0.0,0.0,0.0,0.0,-3.0748,-3.6904,-3.9359,-4.0032,-3.8698,-3.718,-3.4352,-2.9799,0.0,0.0,0.0,0.0,0.0,0.0,0.0,0.0,0.0,0.0,0.0,0.0,0.0,0.0,0.0,0.0,0.0,0.0,0.0,0.0,0.0,0.0,0.0,0.0,0.0,0.0,0.0,0.0,0.0,0.0,0.0,0.0,0.0,0.0,0.0,0.0,0.0,0.0,0.0,0.0,0.0,0.0,0.0,0.0,0.0,0.0,0.0,0.0,0.0,0.0,0.0,0.0,0.0,0.0,0.0,0.0,0.0,0.0,0.0,0.0,0.0,0.0,0.0,0.0,0.0,0.0,0.0,0.0,0.0,0.0,0.0,0.0,0.0,0.0,0.0,0.0,0.0,0.0,0.0,0.0,0.0,0.0,0.0,0.0,0.0,0.0,0.0,0.0,0.0,0.0,0.0,0.0,0.0,0.0,0.0,0.0,0.0,0.0,0.0,0.0,0.0,0.0,0.0,-2.9765,-3.299,-3.8594,-4.0221,-4.0446,-3.9284,-3.7818,-3.5007,-3.0437,-2.8661,0.0,0.0,0.0,0.0,0.0,0.0,0.0,0.0,0.0,0.0,0.0,0.0,0.0,0.0,0.0,0.0,0.0,0.0,0.0,0.0,0.0,0.0,0.0,0.0,0.0,0.0,0.0,0.0,0.0,0.0,0.0,0.0,0.0,0.0,0.0,0.0,0.0,0.0,0.0,0.0,0.0,0.0,0.0,0.0,0.0,0.0,0.0,0.0,0.0,0.0,0.0,0.0,0.0,0.0,0.0,0.0,0.0,0.0,0.0,0.0,0.0,0.0,0.0,0.0,0.0,0.0,0.0,0.0,0.0,0.0,0.0,0.0,0.0,0.0,0.0,0.0,0.0,0.0,0.0,0.0,0.0,0.0,0.0,0.0,0.0,0.0,0.0,0.0,0.0,0.0,0.0,0.0,0.0,0.0,0.0,0.0,0.0,0.0,0.0,0.0,0.0,0.0,-3.3421,-3.5525,-3.9543,-4.0549,-4.0584,-3.9767,-3.7875,-3.4993,-3.0956,-2.7868,0.0,0.0,0.0,0.0,0.0,0.0,0.0,0.0,0.0,0.0,0.0,0.0,0.0,0.0,0.0,0.0,0.0,0.0,0.0,0.0,0.0,0.0,0.0,0.0,0.0,0.0,0.0,0.0,0.0,0.0,0.0,0.0,0.0,0.0,0.0,0.0,0.0,0.0,0.0,0.0,0.0,0.0,0.0,0.0,0.0,0.0,0.0,0.0,0.0,0.0,0.0,0.0,0.0,0.0,0.0,0.0,0.0,0.0,0.0,0.0,0.0,0.0,0.0,0.0,0.0,0.0,0.0,0.0,0.0,0.0,0.0,0.0,0.0,0.0,0.0,0.0,0.0,0.0,0.0,0.0,0.0,0.0,0.0,0.0,0.0,0.0,0.0,0.0,0.0,0.0,0.0,0.0,0.0,0.0,0.0,0.0,0.0,0.0,0.0,0.0,0.0,0.0,-3.4993,-3.8116,-4.0567,-4.0877,-4.0584,-3.9767,-3.6425,-3.3302,-3.0852,-2.5868,0.0,0.0,0.0,0.0,0.0,0.0,0.0,0.0,0.0,0.0,0.0,0.0,0.0,0.0,0.0,0.0,0.0,0.0,0.0,0.0,0.0,0.0,0.0,0.0,0.0,0.0,0.0,0.0,0.0,0.0,0.0,0.0,0.0,0.0,0.0,0.0,0.0,0.0,0.0,0.0,0.0,0.0,0.0,0.0,0.0,0.0,0.0,0.0,0.0,0.0,0.0,0.0,0.0,0.0,0.0,0.0,0.0,0.0,0.0,0.0,0.0,0.0,0.0,0.0,0.0,0.0,0.0,0.0,0.0,0.0,0.0,0.0,0.0,0.0,0.0,0.0,0.0,0.0,0.0,0.0,0.0,0.0,0.0,0.0,0.0,0.0,0.0,0.0,0.0,0.0,0.0,0.0,0.0,0.0,0.0,0.0,0.0,0.0,0.0,0.0,0.0,0.0,-3.43,-3.7323,0.0,-4.0912,-4.0791,-4.0457,-3.7858,-3.4838,-3.1576,0.0,0.0,0.0,0.0,0.0,0.0,0.0,0.0,0.0,0.0,0.0,0.0,0.0,0.0,0.0,0.0,0.0,0.0,0.0,0.0,0.0,0.0,0.0,0.0,0.0,0.0,0.0,0.0,0.0,0.0,0.0,0.0,0.0,0.0,0.0,0.0,0.0,0.0,0.0,0.0,0.0,0.0,0.0,0.0,0.0,0.0,0.0,0.0,0.0,0.0,0.0,0.0,0.0,0.0,0.0,0.0,0.0,0.0,0.0,0.0,0.0,0.0,0.0,0.0,0.0,0.0,0.0,0.0,0.0,0.0,0.0,0.0,0.0,0.0,0.0,0.0,0.0,0.0,0.0,0.0,0.0,0.0,0.0,0.0,0.0,0.0,0.0,0.0,0.0,0.0,0.0,0.0,0.0,0.0,0.0,0.0,0.0,0.0,0.0,0.0,0.0,0.0,-3.1214,-3.4421,-3.7456,0.0,-4.0912,-4.0912,-4.0912,-3.8151,-3.5114,-3.199,0.0,0.0,0.0,0.0,0.0,0.0,0.0,0.0,0.0,0.0,0.0,0.0,0.0,0.0,0.0,0.0,0.0,0.0,0.0,0.0,0.0,0.0,0.0,0.0,0.0,0.0,0.0,0.0,0.0,0.0,0.0,0.0,0.0,0.0,0.0,0.0,0.0,0.0,0.0,0.0,0.0,0.0,0.0,0.0,0.0,0.0,0.0,0.0,0.0,0.0,0.0,0.0,0.0,0.0,0.0,0.0,0.0,0.0,0.0,0.0,0.0,0.0,0.0,0.0,0.0,0.0,0.0,0.0,0.0,0.0,0.0,0.0,0.0,0.0,0.0,0.0,0.0,0.0,0.0,0.0,0.0,0.0,0.0,0.0,0.0,0.0,0.0,0.0,0.0,0.0,0.0,0.0,0.0,0.0,0.0,0.0,0.0,0.0,0.0,0.0,0.0,0.0,-3.1403,-3.5766,-3.9203,-4.0739,-4.0912,-4.0912,-4.0912,-3.6753,-3.3455,0.0,0.0,0.0,0.0,0.0,0.0,0.0,0.0,0.0,0.0,0.0,0.0,0.0,0.0,0.0,0.0,0.0,0.0,0.0,0.0,0.0,0.0,0.0,0.0,0.0,0.0,0.0,0.0,0.0,0.0,0.0,0.0,0.0,0.0,0.0,0.0,0.0,0.0,0.0,0.0,0.0,0.0,0.0,0.0,0.0,0.0,0.0,0.0,0.0,0.0,0.0,0.0,0.0,0.0,0.0,0.0,0.0,0.0,0.0,0.0,0.0,0.0,0.0,0.0,0.0,0.0,0.0,0.0,0.0,0.0,0.0,0.0,0.0,0.0,0.0,0.0,0.0,0.0,0.0,0.0,0.0,0.0,0.0,0.0,0.0,0.0,0.0,0.0,0.0,0.0,0.0,0.0,0.0,0.0,0.0,0.0,0.0,0.0,0.0,0.0,0.0,0.0,0.0,-3.1403,-3.5766,-3.9203,-4.0739,-4.0912,-4.0912,-4.0912,-3.7663,-3.4542,-3.1955,0.0,0.0,0.0,0.0,0.0,0.0,0.0,0.0,0.0,0.0,0.0,0.0,0.0,0.0,0.0,0.0,0.0,0.0,0.0,0.0,0.0,0.0,0.0,0.0,0.0,0.0,0.0,0.0,0.0,0.0,0.0,0.0,0.0,0.0,0.0,0.0,0.0,0.0,0.0,0.0,0.0,0.0,0.0,0.0,0.0,0.0,0.0,0.0,0.0,0.0,0.0,0.0,0.0,0.0,0.0,0.0,0.0,0.0,0.0,0.0,0.0,0.0,0.0,0.0,0.0,0.0,0.0,0.0,0.0,0.0,0.0,0.0,0.0,0.0,0.0,0.0,0.0,0.0,0.0,0.0,0.0,0.0,0.0,0.0,0.0,0.0,0.0,0.0,0.0,0.0,0.0,0.0,0.0,0.0,0.0,0.0,0.0,0.0,0.0,0.0,0.0,0.0,-3.1438,-3.5766,-3.9203,-4.0739,-4.0912,-4.0912,-4.0912,-3.8375,-3.5473,-3.2421,0.0,0.0,0.0,0.0,0.0,0.0,0.0,0.0,0.0,0.0,0.0,0.0,0.0,0.0,0.0,0.0,0.0,0.0,0.0,0.0,0.0,0.0,0.0,0.0,0.0,0.0,0.0,0.0,0.0,0.0,0.0,0.0,0.0,0.0,0.0,0.0,0.0,0.0,0.0,0.0,0.0,0.0,0.0,0.0,0.0,0.0,0.0,0.0,0.0,0.0,0.0,0.0,0.0,0.0,0.0,0.0,0.0,0.0,0.0,0.0,0.0,0.0,0.0,0.0,0.0,0.0,0.0,0.0,0.0,0.0,0.0,0.0,0.0,0.0,0.0,0.0,0.0,0.0,0.0,0.0,0.0,0.0,0.0,0.0,0.0,0.0,0.0,0.0,0.0,0.0,0.0,0.0,0.0,0.0,0.0,0.0,0.0,0.0,0.0,0.0,0.0,0.0,-3.161,-3.587,-3.9272,-4.0739,-4.0912,-4.0912,-4.0912,-3.8807,-3.6236,-3.3197,0.0,0.0,0.0,0.0,0.0,0.0,0.0,0.0,0.0,0.0,0.0,0.0,0.0,0.0,0.0,0.0,0.0,0.0,0.0,0.0,0.0,0.0,0.0,0.0,0.0,0.0,0.0,0.0,0.0,0.0,0.0,0.0,0.0,0.0,0.0,0.0,0.0,0.0,0.0,0.0,0.0,0.0,0.0,0.0,0.0,0.0,0.0,0.0,0.0,0.0,0.0,0.0,0.0,0.0,0.0,0.0,0.0,0.0,0.0,0.0,-2.9127,0.0,0.0,0.0,0.0,0.0,0.0,0.0,0.0,0.0,0.0,0.0,0.0,0.0,0.0,0.0,0.0,0.0,0.0,0.0,0.0,0.0,0.0,0.0,0.0,0.0,0.0,0.0,0.0,0.0,0.0,0.0,0.0,0.0,0.0,0.0,0.0,0.0,0.0,0.0,0.0,0.0,-3.2369,-3.6646,-3.9819,-4.0808,-4.0912,-4.0912,-4.0912,-3.8807,-3.646,-3.401,-3.0265,0.0,0.0,0.0,0.0,0.0,0.0,0.0,0.0,0.0,0.0,0.0,0.0,0.0,0.0,0.0,0.0,0.0,0.0,0.0,0.0,0.0,0.0,0.0,0.0,0.0,0.0,0.0,0.0,0.0,0.0,0.0,0.0,0.0,0.0,0.0,0.0,0.0,0.0,0.0,0.0,0.0,0.0,0.0,0.0,0.0,0.0,0.0,0.0,0.0,0.0,0.0,0.0,0.0,0.0,0.0,0.0,0.0,0.0,0.0,0.0,-3.1179,0.0,0.0,0.0,0.0,0.0,0.0,0.0,0.0,0.0,0.0,0.0,0.0,0.0,0.0,0.0,0.0,0.0,0.0,0.0,0.0,0.0,0.0,0.0,0.0,0.0,0.0,0.0,0.0,0.0,0.0,0.0,0.0,0.0,0.0,0.0,0.0,0.0,0.0,0.0,0.0,-3.3179,-3.7111,-4.0008,-4.0825,-4.0912,-4.0912,-4.0912,-3.9462,-3.7577,-3.5283,-3.2265,0.0,0.0,0.0,0.0,0.0,0.0,0.0,0.0,0.0,0.0,0.0,0.0,0.0,0.0,0.0,0.0,0.0,0.0,0.0,0.0,0.0,0.0,0.0,0.0,0.0,0.0,0.0,0.0,0.0,0.0,0.0,0.0,0.0,0.0,0.0,0.0,0.0,0.0,0.0,0.0,0.0,0.0,0.0,0.0,0.0,0.0,0.0,0.0,0.0,0.0,0.0,0.0,0.0,-3.587,-3.6715,-3.7922,-3.856,-3.9198,-3.9612,-3.6456,-3.5697,-3.6439,-3.3233,0.0,0.0,0.0,0.0,0.0,0.0,0.0,0.0,0.0,0.0,0.0,0.0,0.0,0.0,0.0,0.0,0.0,0.0,0.0,0.0,0.0,0.0,0.0,0.0,-3.43,-3.3992,-3.0696,0.0,0.0,0.0,0.0,0.0,0.0,0.0,0.0,0.0,0.0,0.0,-3.4199,-3.7646,-4.0146,-4.0825,-4.0912,-4.0912,-4.0912,-4.0146,-3.8784,-3.6646,-3.449,-3.1731,0.0,0.0,0.0,0.0,0.0,0.0,0.0,0.0,0.0,0.0,0.0,0.0,0.0,0.0,0.0,0.0,0.0,0.0,0.0,0.0,0.0,0.0,0.0,0.0,0.0,0.0,0.0,0.0,0.0,0.0,0.0,0.0,-2.4456,-2.6066,0.0,0.0,0.0,0.0,0.0,0.0,0.0,0.0,0.0,0.0,0.0,0.0,0.0,-3.4533,-3.6623,-3.8691,-4.0135,-4.0998,-4.2975,-4.4001,-4.4191,-4.4311,-4.4397,-4.4466,-4.3967,0.0,-3.8198,-3.7081,0.0,0.0,0.0,0.0,0.0,0.0,0.0,0.0,0.0,0.0,0.0,0.0,0.0,0.0,0.0,0.0,0.0,0.0,0.0,0.0,0.0,0.0,-3.8353,-3.7185,-3.7478,-3.768,0.0,-3.3354,-3.0506,-2.9903,-2.8351,0.0,0.0,0.0,0.0,0.0,0.0,0.0,-3.5714,-3.8789,-4.0791,-4.0894,-4.0912,-4.0912,-4.0912,-4.0146,-3.9026,-3.7443,-3.5801,-3.3783,-3.13,-2.8489,0.0,0.0,0.0,0.0,0.0,0.0,0.0,0.0,0.0,0.0,0.0,0.0,0.0,0.0,0.0,0.0,0.0,0.0,0.0,0.0,0.0,0.0,0.0,0.0,0.0,0.0,0.0,0.0,0.0,-2.427,-2.6425,-2.7415,-2.7579,-2.7449,0.0,0.0,0.0,0.0,0.0,0.0,0.0,0.0,0.0,-3.7286,-3.8126,-3.9445,-4.1309,-4.2716,-4.382,-4.4596,-4.5613,-4.6276,-4.669,-4.669,-4.669,-4.669,-4.669,-4.5311,-4.294,-4.0871,-3.8496,-3.599,0.0,0.0,0.0,0.0,-3.4251,-3.4197,-3.6663,-3.7249,-3.6697,-3.5404,0.0,0.0,0.0,0.0,0.0,0.0,0.0,-3.4407,0.0,0.0,-3.9129,-3.9359,-3.9669,-3.9807,-3.9479,-3.7495,-3.5128,0.0,-3.2472,-3.13,-2.7971,0.0,0.0,0.0,0.0,-3.5007,-3.7301,-3.9531,-4.0912,-4.0912,-4.0912,-4.0912,-4.0912,-4.0584,-3.9928,-3.8801,-3.7318,-3.5666,-3.3783,-3.08,-2.8282,0.0,0.0,0.0,0.0,0.0,0.0,0.0,0.0,0.0,0.0,0.0,0.0,0.0,0.0,0.0,0.0,0.0,0.0,0.0,0.0,0.0,0.0,0.0,0.0,0.0,0.0,0.0,0.0,-2.6441,-2.8138,-2.8809,-2.9768,-3.0011,0.0,0.0,0.0,0.0,0.0,0.0,-3.5718,-3.6546,-3.8318,-4.1371,-4.2578,-4.382,-4.5174,-4.5906,-4.6569,-4.7182,-4.7372,-4.7769,-4.8303,-4.8303,-4.8303,-4.8303,-4.8303,-4.7872,-4.6975,-4.4285,-4.194,-3.9945,-3.8577,-3.7288,-3.6339,-3.803,-3.8272,-3.818,-4.1257,-4.1947,-4.1205,-3.9514,-3.8565,-3.7525,-3.468,0.0,0.0,0.0,0.0,-3.6322,-3.8427,-3.9376,-4.0083,-4.1222,-4.1498,-4.1498,-4.1498,-4.1032,-3.9577,0.0,-3.6094,-3.5283,-3.1145,0.0,0.0,0.0,0.0,-3.6525,-3.8594,-4.0066,-4.0912,-4.0912,-4.0912,-4.0912,-4.0912,-4.0912,-4.0567,-3.975,-3.8474,-3.7185,-3.5835,-3.3078,-3.0593,-2.8489,0.0,0.0,0.0,0.0,0.0,0.0,0.0,0.0,0.0,0.0,0.0,0.0,0.0,0.0,0.0,0.0,0.0,0.0,0.0,0.0,0.0,0.0,0.0,0.0,0.0,0.0,0.0,0.0,0.0,-3.093,-3.2698,0.0,0.0,0.0,0.0,-3.3839,-3.5218,-3.7357,-4.0394,-4.1274,-4.3061,-4.6165,-4.6337,-4.6751,-4.7527,-4.8258,-4.8637,-4.8689,-4.9476,-4.9855,-4.989,-4.989,-4.989,-4.989,-4.989,-4.9441,-4.8568,-4.7027,-4.5441,-4.3949,-4.3155,-4.2344,-4.1636,-4.1716,-4.1733,-4.1861,-4.281,-4.312,-4.3069,-4.2948,-4.1412,-3.9543,-3.9353,-3.8318,0.0,0.0,-3.9922,-4.0929,-4.2499,-4.293,-4.2982,-4.3069,-4.3086,-4.3086,-4.3086,-4.3051,-4.2309,0.0,-3.8358,-3.7116,-3.6077,0.0,-3.5197,-3.5904,-3.6805,-3.7944,-3.9439,-4.0394,-4.0912,-4.0912,-4.0912,-4.0912,-4.0912,-4.0912,-4.0567,-3.975,-3.8957,-3.8203,-3.7426,-3.5166,-3.3199,-3.1593,-2.7902,0.0,0.0,0.0,0.0,0.0,0.0,0.0,0.0,0.0,0.0,0.0,0.0,0.0,0.0,0.0,0.0,0.0,0.0,0.0,0.0,0.0,0.0,0.0,0.0,0.0,0.0,0.0,0.0,-3.5297,-3.6429,0.0,-3.6215,-3.6835,-3.7801,-3.91,-4.0152,-4.1861,-4.4423,-4.482,-4.5906,-4.7948,-4.8,-4.8379,-4.9183,-4.9924,-5.0257,-5.0275,-5.1033,-5.1425,-5.1425,-5.1425,-5.1425,-5.1425,-5.1425,-5.0994,-5.0223,-4.9717,-4.8027,-4.5751,-4.5492,-4.4906,-4.4251,-4.4768,-4.4958,-4.5079,-4.5837,-4.6096,-4.5924,-4.4941,-4.3406,-4.1947,-4.1947,-4.1585,-4.1274,-4.1809,-4.2154,-4.2516,-4.3051,-4.3189,-4.3189,-4.3189,-4.3189,-4.3189,-4.3189,-4.3189,-4.2948,-4.212,-4.1119,-3.9704,-3.7478,-3.7629,-3.7853,-3.7185,-3.8112,-3.9284,-4.0359,-4.0722,-4.0912,-4.0912,-4.0912,-4.0912,-4.0912,-4.0912,-4.0567,-3.975,-3.9008,-3.8272,-3.753,-3.5321,-3.3613,-3.2524,-2.973,-2.6921,0.0,0.0,0.0,0.0,0.0,0.0,0.0,0.0,0.0,0.0,0.0,0.0,0.0,0.0,0.0,0.0,0.0,0.0,0.0,0.0,0.0,0.0,0.0,0.0,0.0,0.0,-3.5601,-3.7743,-3.9497,-4.0325,-3.9807,-4.0888,-4.2164,-4.344,-4.4069,-4.5216,-4.7224,-4.7355,-4.8045,-4.9516,-4.9568,-4.993,-5.0735,-5.1235,-5.1476,-5.1464,-5.1964,-5.2188,-5.2188,-5.2188,-5.2188,-5.2188,-5.2188,-5.1912,-5.1476,-5.1476,-5.0304,-4.8424,-4.7648,-4.7017,-4.6569,-4.6889,-4.6975,-4.7044,-4.7517,-4.7689,-4.7517,-4.65,-4.551,-4.4725,-4.4725,-4.4725,-4.4691,-4.4432,-4.4363,-4.4294,-4.3992,-4.3923,-4.3923,-4.3923,-4.3923,-4.3923,-4.3923,-4.3923,-4.388,-4.3621,-4.2948,-4.1688,-3.941,-3.9842,-4.0043,-3.8841,-3.9497,-4.0284,-4.0843,-4.0912,-4.0912,-4.0912,-4.0912,-4.0912,-4.0912,-4.0653,-4.0273,-3.9733,-3.8767,-3.7887,-3.7133,-3.5425,-3.3973,-3.2921,-3.0662,-2.8144,-2.5367,0.0,0.0,0.0,0.0,0.0,0.0,0.0,0.0,0.0,0.0,0.0,0.0,0.0,0.0,0.0,0.0,0.0,0.0,0.0,0.0,0.0,0.0,0.0,-3.3385,-3.5967,-3.7955,-3.8237,-4.1857,-4.3776,-4.2327,-4.4182,-4.5793,-4.6613,-4.6682,-4.7293,-4.8775,-4.8861,-4.9551,-5.1097,-5.1149,-5.1464,-5.2188,-5.2205,-5.2222,-5.2222,-5.2239,-5.2257,-5.2257,-5.2257,-5.2257,-5.2257,-5.2257,-5.2239,-5.2222,-5.2222,-5.2205,-5.1964,-4.9757,-4.8879,-4.8775,-4.8051,-4.7775,-4.7758,-4.7758,-4.7741,-4.7724,-4.7724,-4.7707,-4.7689,-4.7689,-4.7689,-4.7534,-4.6855,-4.6648,-4.6458,-4.5638,-4.5432,-4.5432,-4.5414,-4.5397,-4.5397,-4.5397,-4.5397,-4.5173,-4.4483,-4.3759,-4.3017,-4.2189,-4.205,-4.1792,-4.105,-4.0929,0.0,-4.0912,-4.0912,-4.0912,-4.0912,-4.0912,-4.0912,-4.0912,-4.0204,-3.9715,-3.9664,-3.8284,-3.715,-3.6335,-3.5559,-3.4438,-3.2938,-3.0713,-2.8455,-2.6249,0.0,0.0,0.0,0.0,0.0,0.0,0.0,0.0,0.0,0.0,0.0,0.0,0.0,0.0,0.0,0.0,0.0,0.0,0.0,0.0,0.0,0.0,-3.7479,-3.7167,-3.8596,-4.0749,-4.3617,-4.4624,-4.5389,-4.6079,-4.6717,-4.7379,-4.8137,-4.8189,-4.8844,-5.0378,-5.0476,-5.0895,-5.186,-5.1895,-5.1981,-5.2188,-5.2787,-5.308,-5.308,-5.3615,-5.3873,-5.3873,-5.3873,-5.3873,-5.3873,-5.3873,-5.3563,-5.308,-5.308,-5.2735,-5.2136,-5.1498,-5.0929,-5.043,-5.0223,-4.9838,-4.9373,-4.9373,-4.901,-4.8499,-4.8499,-4.8137,-4.7689,-4.7689,-4.7689,-4.7655,-4.7431,-4.7396,-4.7234,-4.6475,-4.6259,-4.6104,-4.5535,-4.5397,-4.5397,-4.5397,-4.5397,-4.5328,-4.5147,-4.4941,-4.4389,-4.3086,-4.2879,-4.2603,-4.1826,-4.1705,0.0,-4.0981,-4.0912,-4.0912,-4.0912,-4.0912,-4.0912,-4.0912,-4.0705,-4.0077,-3.8957,-3.803,-3.715,-3.6335,-3.5076,-3.3921,-3.2921,-3.1765,-3.0593,0.0,0.0,0.0,0.0,0.0,0.0,0.0,0.0,0.0,0.0,0.0,0.0,0.0,0.0,0.0,0.0,0.0,0.0,0.0,0.0,0.0,0.0,-3.865,-4.0944,-4.2232,-4.2654,-4.3588,-4.56,-4.6438,-4.7172,-4.8068,-4.8476,-4.8855,-4.9286,-4.9585,-5.0137,-5.1033,-5.1407,-5.1895,-5.2684,-5.2718,-5.2856,-5.3166,-5.3632,-5.3873,-5.3873,-5.4305,-5.4512,-5.4512,-5.4512,-5.4512,-5.4512,-5.4512,-5.427,-5.3873,-5.3873,-5.3598,0.0,0.0,0.0,0.0,0.0,-5.1097,-5.0476,-5.0476,-4.9959,-4.9292,-4.9292,-4.9028,-4.8665,-4.8665,-4.8665,-4.8568,-4.8241,-4.8155,-4.7982,-4.7241,-4.7079,-4.6889,-4.6086,-4.5897,-4.5811,-4.5466,-4.5397,-4.5397,-4.5397,-4.5397,0.0,-4.4268,-4.388,-4.3396,-4.262,-4.2223,-4.1861,-4.1429,-4.1101,-4.0912,-4.0912,-4.0912,-4.0912,-4.0912,-4.0601,0.0,0.0,0.0,-3.7456,-3.6353,-3.4869,0.0,0.0,0.0,0.0,0.0,0.0,0.0,0.0,-2.966,-2.897,0.0,0.0,0.0,0.0,0.0,0.0,0.0,0.0,0.0,0.0,0.0,0.0,0.0,0.0,0.0,0.0,-4.1546,-4.4071,-4.7241,-4.7163,-4.6572,-4.6022,-4.7634,-4.8855,-4.9009,-4.9694,-5.016,-5.0201,-5.0833,-5.1269,-5.1356,0.0,0.0,0.0,0.0,-5.3839,-5.4494,-5.4512,-5.4512,-5.4512,-5.4512,-5.4512,-5.4512,-5.4512,-5.4512,-5.4512,-5.4512,-5.4512,-5.4512,-5.4512,-5.4512,-5.4374,-5.2908,-5.2326,-5.2308,-5.2222,-5.1804,-5.1205,-5.1205,0.0,0.0,-5.0131,-5.008,-5.0011,-5.0011,-5.0011,-4.9855,-4.9137,-4.893,-4.8758,-4.8,-4.781,-4.762,-4.6906,-4.6665,-4.6406,-4.569,-4.5466,-4.5397,-4.5397,-4.5397,-4.5397,-4.5397,-4.4854,-4.4173,-4.3431,-4.2723,-4.2206,-4.2033,-4.1429,-4.0998,-4.0912,0.0,0.0,-4.0912,-4.0256,-3.9802,-3.9698,-3.9008,-3.7939,-3.649,-3.5249,-3.4579,-3.4493,-3.5197,-3.5525,-3.5456,-3.6926,-3.7271,-3.6456,-3.2068,-3.0987,0.0,0.0,0.0,0.0,0.0,0.0,0.0,0.0,0.0,0.0,0.0,0.0,0.0,0.0,0.0,-4.1493,-4.48,-4.7236,-4.7565,-4.9121,-5.0031,-4.9501,-4.9044,-4.9214,-5.0322,-5.0714,-5.1078,-5.1511,-5.1812,-5.2257,-5.2925,-5.3097,-5.3511,-5.427,-5.4287,-5.4374,-5.4512,-5.4512,-5.4512,-5.4512,0.0,0.0,-5.4512,-5.4512,-5.4512,-5.4512,-5.4512,-5.4512,-5.4512,-5.4512,-5.4512,-5.4425,-5.3529,-5.3166,-5.3097,-5.2429,-5.2101,-5.1981,-5.1981,-5.1481,-5.0907,-5.0907,-5.0493,-5.0011,-5.0011,-5.0011,0.0,-4.9821,-4.9769,-4.9597,-4.8775,-4.8586,-4.8396,-4.7655,-4.7017,-4.6562,-4.6406,-4.5845,-4.5397,-4.5397,-4.5397,-4.5397,-4.5397,-4.5276,-4.4941,-4.4207,-4.3949,-4.3414,-4.2171,-4.1895,-4.1567,-4.0963,-4.0912,-4.0912,-4.0912,-4.0774,-4.0388,-3.9733,-3.9008,-3.8203,-3.7305,-3.7581,-3.7461,-3.6857,-3.7581,-3.7668,-3.7064,-3.7961,-3.8323,-3.8112,-3.6586,-3.5583,0.0,0.0,0.0,0.0,0.0,0.0,0.0,0.0,0.0,0.0,0.0,-3.6512,-3.8081,0.0,-4.2721,-4.507,-4.7059,-4.865,-4.9656,-5.0606,-5.1012,-5.0454,-5.0283,-5.0504,-5.1267,-5.1716,-5.199,-5.2051,-5.2764,-5.3241,-5.3404,-5.3753,-5.4132,-5.4494,-5.4512,-5.4512,-5.4512,-5.4512,-5.4512,-5.4512,-5.4512,-5.4512,-5.4512,-5.4512,-5.4512,-5.4512,-5.4512,-5.4512,-5.4512,-5.4512,-5.4512,-5.4477,-5.4098,-5.396,-5.3908,-5.3511,-5.3132,-5.2804,-5.2804,-5.2321,-5.1636,-5.1636,-5.1166,-5.0562,-5.0562,-5.0304,-5.0011,-5.0011,-5.0011,-4.9907,-4.951,-4.9407,-4.9189,-4.843,-4.7965,-4.7482,-4.6769,-4.6259,-4.588,-4.5483,-4.5397,-4.5397,-4.5397,-4.5397,-4.5259,-4.4906,-4.4552,-4.4018,-4.3258,-4.2482,-4.1861,-4.1498,-4.1119,-4.0912,-4.0912,-4.0912,-4.0739,-4.0342,-3.9577,-3.8974,-3.8612,-3.8594,-3.8422,-3.8065,-3.8767,-3.8957,-3.8594,-3.9393,-3.9756,-3.9756,-3.9376,-3.8659,0.0,0.0,0.0,0.0,0.0,0.0,0.0,0.0,-3.5101,-3.6606,-3.8334,-4.0094,-4.1804,-4.3573,-4.5578,-4.8108,-4.8805,-4.9721,-5.1722,-5.1751,-5.143,-5.1,-5.1233,-5.1667,-5.2165,-5.2617,-5.2837,-5.2758,-5.3911,-5.4367,-5.3814,-5.446,-5.479,-5.4665,-5.4665,-5.462,-5.4512,-5.4512,-5.4512,-5.4512,-5.4512,-5.4512,-5.4512,-5.4512,-5.4512,-5.4512,-5.4512,-5.4512,-5.4512,-5.4512,-5.4512,-5.4512,-5.4512,-5.4512,-5.4512,-5.4512,-5.4132,-5.3615,-5.3615,-5.3115,-5.2412,-5.2412,-5.1942,-5.1304,-5.1149,-5.07,-5.0183,-5.0045,-5.0011,-5.0011,-5.0011,-5.0011,-4.9855,-4.9172,-4.8896,-4.8465,-4.7286,-4.6803,-4.6424,-4.5759,-4.55,-4.5397,-4.5397,-4.5397,-4.5397,-4.5397,-4.4889,-4.4466,-4.4328,-4.3224,-4.2396,-4.2258,-4.1567,-4.1067,-4.0912,-4.0912,-4.0912,-4.0912,-4.0284,-3.9922,-3.9922,-3.9353,-3.9065,-3.9065,-3.9629,-3.9922,-3.9922,-4.0584,-4.0912,-4.0912,-4.0912,-4.0567,-3.0233,-3.092,-3.2017,-3.3436,-3.3918,-3.52,0.0,0.0,-4.0884,-4.1794,-4.3875,-4.5363,-4.4784,-4.6638,-4.829,-4.8458,-5.0299,-5.175,-5.1961,-5.2559,-5.2953,-5.2892,-5.1697,-5.1563,-5.3255,-5.3184,-5.3523,-5.4695,-5.5569,-5.5801,-5.5203,-5.5766,-5.5858,-5.5313,-5.5313,-5.5031,-5.4512,-5.4512,-5.4512,-5.4512,-5.4512,-5.4512,-5.4512,-5.4512,-5.4512,-5.4512,-5.4512,-5.4512,-5.4512,-5.4512,-5.4512,-5.4512,-5.4512,-5.4512,-5.4512,-5.4512,-5.446,-5.4391,-5.4391,-5.3891,-5.327,-5.327,-5.2735,-5.1946,-5.1321,-5.1045,-5.0856,-5.0183,-5.0011,-5.0011,-5.0011,-5.0011,-4.9993,-4.989,-4.9309,-4.8741,-4.8586,-4.7527,-4.6579,-4.6493,-4.588,-4.5397,-4.5397,-4.5397,-4.5397,-4.5397,-4.5328,-4.5044,-4.438,-4.4156,-4.3793,-4.3138,-4.2361,-4.1619,-4.0963,-4.0912,-4.0912,-4.0912,-4.0825,-4.0774,-4.0774,-4.0687,-4.0653,-4.0653,-4.0722,-4.0774,-4.0774,-4.086,-4.0912,-4.0912,-4.0912,-4.086,-3.4469,-3.5101,0.0,0.0,-3.8488,-4.0327,-4.1924,-4.3039,-4.3968,-4.4785,-4.6141,-4.7055,-4.6637,-4.8157,-4.9603,0.0,-5.1146,-5.2248,-5.264,-5.3004,-5.3185,-5.3185,-5.2338,-5.2382,-5.408,-5.4423,-5.4903,-5.5732,-5.6401,-5.6528,-5.5943,-5.6166,-5.6193,-5.5943,-5.5915,-5.5801,-5.556,-5.556,-5.5355,-5.5031,-5.5031,-5.4834,-5.4512,-5.4512,-5.4512,-5.4512,-5.4512,-5.4512,-5.4512,-5.4512,-5.4512,-5.4512,-5.4512,-5.4512,-5.4512,-5.4512,-5.4512,-5.4512,-5.4512,-5.4305,-5.4046,-5.4046,-5.3529,-5.2856,-5.2546,-5.1821,-5.1045,-5.0735,-5.0338,-5.0011,-5.0011,-5.0011,-5.0011,-5.0011,-4.9752,-4.9361,-4.8896,-4.831,-4.762,-4.6786,-4.6337,-4.5931,-4.5483,-4.5397,-4.5397,-4.5397,-4.5397,-4.5276,-4.4992,-4.4561,-4.4018,-4.3276,-4.2482,-4.1895,-4.1585,-4.1153,-4.0912,-4.0912,-4.0912,-4.0912,-4.0912,-4.0912,-4.0912,-4.0912,-4.0912,-4.0912,-4.0912,-4.0912,-4.0912,-4.0912,-4.0912,-4.0912,-3.6519,0.0,0.0,-3.9584,-4.2092,-4.4265,-4.3893,-4.4934,-4.6122,-4.6717,-4.746,-4.8019,-4.7968,-4.9303,-5.0509,-5.0891,-5.2016,-5.2954,-5.3172,-5.3429,-5.3484,-5.3243,-5.2868,-5.3135,-5.4498,-5.5094,-5.5715,-5.6473,-5.704,-5.7116,-5.6546,-5.6678,-5.6704,-5.6546,-5.6519,-5.6465,-5.6303,-5.6303,-5.6083,-5.5647,-5.5473,-5.5164,-5.4728,-5.4589,-5.4512,-5.4512,-5.4512,-5.4512,-5.4512,-5.4512,-5.4512,-5.4512,-5.4512,-5.4512,-5.4512,-5.4512,-5.4512,-5.4512,-5.4512,-5.4512,-5.4512,-5.4512,-5.4149,-5.3667,-5.346,-5.2632,-5.1649,-5.1235,-5.0735,-5.0269,-5.0062,-5.0011,-5.0011,-5.0011,-5.0011,-4.9855,-4.924,-4.8947,-4.8482,-4.7424,-4.6889,-4.6397,-4.5828,-4.5552,-4.5397,-4.5397,-4.5397,-4.5397,-4.5397,-4.4941,-4.4328,-4.3586,-4.2982,-4.2568,-4.2361,-4.1654,-4.1205,-4.1205,-4.1015,-4.0912,-4.0912,-4.0912,-4.0912,-4.0912,-4.0912,-4.0912,-4.0912,-4.0912,-4.0912,-4.0912,-4.0912,-4.0912,0.0,0.0,-4.0527,-4.1311,-4.341,-4.5454,-4.6215,-4.7033,-4.7627,-4.7664,-4.8296,-4.8872,-4.8872,-5.0228,-5.1287,-5.1118,-5.3191,-5.4445,-5.3359,-5.3992,-5.4215,-5.3298,-5.3185,-5.3515,0.0,-5.4656,-5.5462,-5.6964,-5.7637,-5.7726,-5.7116,-5.7637,-5.7684,-5.7091,-5.7091,-5.6835,-5.6303,-5.6303,-5.6303,-5.6276,-5.5676,-5.5385,-5.5355,-5.4759,-5.4512,-5.4512,-5.4512,-5.4512,-5.4512,-5.4512,-5.4512,-5.4512,-5.4512,-5.4512,-5.4512,-5.4512,-5.4512,-5.4512,-5.4512,-5.4512,-5.4512,-5.4512,-5.4494,-5.4339,-5.3632,-5.3373,-5.3028,-5.1528,-5.1097,-5.0907,-5.02,-5.0011,-5.0011,-5.0011,-5.0011,-4.9993,-4.9976,-4.9344,-4.8775,-4.8741,-4.7596,-4.6596,-4.6579,-4.5914,-4.5397,-4.5397,-4.5397,-4.5397,-4.5397,-4.538,-4.5096,-4.4363,-4.4242,-4.3949,-4.3224,-4.243,-4.1981,-4.1981,-4.1309,-4.0912,-4.0912,-4.0912,-4.0912,-4.0912,-4.0912,-4.0912,-4.0912,-4.0912,-4.0912,-4.0912,-4.0912,-4.0912,0.0,0.0,-4.2314,-4.3708,-4.5491,-4.6958,-4.7237,-4.7924,-4.85,-4.85,-4.8296,-4.8091,-4.8091,-4.9002,-4.9877,-5.0306,-5.2471,-5.4135,-5.4193,-5.4933,-5.5154,-5.4301,-5.4165,0.0,0.0,0.0,0.0,-5.6825,-5.7574,-5.7909,-5.7726,-5.7886,-5.7909,-5.7684,-5.7703,-5.7613,-5.7425,-5.7425,-5.7234,-5.6817,-5.6258,-5.5773,-5.5385,-5.5194,-5.4865,-5.4512,-5.4512,-5.4512,-5.4512,-5.4512,-5.4512,-5.4512,-5.4512,-5.4512,-5.4512,-5.4512,-5.4512,-5.4512,-5.4512,-5.4512,-5.4512,-5.4512,-5.4512,-5.446,-5.4218,-5.3787,-5.3287,-5.277,-5.189,-5.1045,-5.0804,-5.0373,-5.0011,-5.0011,-5.0011,-5.0011,-5.0011,-4.9804,-4.9459,-4.8896,-4.8396,-4.7741,-4.6786,-4.6389,-4.6017,-4.5483,-4.5397,-4.5397,-4.5397,-4.5397,-4.5294,-4.5061,-4.4578,-4.4207,-4.3949,-4.3224,-4.2792,-4.2792,-4.2568,-4.2189,-4.1654,-4.1636,-4.1412,-4.0912,-4.0912,-4.0912,-4.0912,-4.0912,-4.0912,-4.0912,-4.0912,-4.0912,0.0,-4.2835,-4.4153,-4.6104,-4.7367,-4.8203,-4.85,-4.8742,-4.8816,-4.8537,-4.8054,-4.7608,-4.7311,-4.7924,-4.8818,-4.9842,-5.2103,-5.3954,-5.4609,-5.5665,-5.6074,-5.5237,-5.5101,-5.5257,0.0,0.0,0.0,-5.7171,-5.7703,-5.7997,-5.7997,-5.7997,-5.7997,-5.7997,-5.7997,-5.7997,-5.7997,-5.7997,-5.7703,-5.7091,-5.6739,-5.6285,-5.5716,-5.5716,-5.5502,-5.5134,-5.5134,-5.5134,-5.5122,-5.4926,-5.4803,-5.4821,-5.4589,-5.4512,-5.4512,-5.4512,-5.4512,-5.4512,-5.4512,-5.4512,-5.4512,-5.4512,-5.4512,-5.4512,-5.4512,-5.4184,-5.3736,-5.3477,-5.2494,-5.1442,-5.1183,-5.0562,-5.0011,-5.0011,-5.0011,-5.0011,-5.0011,-5.0011,-4.9855,-4.9338,-4.8999,-4.8499,-4.7534,-4.6958,-4.6337,-4.5518,-4.5397,-4.5397,-4.5397,-4.5397,-4.5397,-4.5397,-4.4992,-4.4682,-4.4682,-4.4035,-4.3586,-4.3586,-4.3345,-4.2965,-4.2465,-4.243,-4.2206,-4.1723,-4.1723,-4.1723,-4.1723,-4.1723,-4.1723,-4.1723,-4.1723,-4.1723,-4.2593,-4.4228,-4.6048,-4.8426,-4.9002,-4.9169,-4.993,-4.9447,-4.8612,-4.7794,-4.7571,-4.7256,0.0,0.0,-4.8076,-4.9583,-5.2066,-5.4033,-5.4687,-5.6284,-5.7027,0.0,0.0,0.0,0.0,0.0,0.0,-5.7987,0.0,-5.802,-5.802,-5.802,-5.7997,-5.7997,-5.7997,-5.7997,-5.7997,-5.7997,-5.7708,-5.7141,-5.7141,-5.6843,-5.6357,-5.6357,-5.633,-5.6303,-5.6303,-5.6303,-5.6248,-5.5687,-5.5443,-5.5402,-5.479,-5.4543,-5.4526,-5.4512,-5.4512,-5.4512,-5.4512,-5.4512,-5.4512,-5.4512,-5.4512,-5.4512,-5.4512,-5.4512,-5.4356,-5.3649,-5.2891,-5.2084,-5.1343,-5.0614,-5.0062,-5.0011,-5.0011,-5.0011,-5.0011,-5.0011,-5.0011,-5.0011,-4.9344,-4.8792,-4.8792,-4.7603,-4.6389,-4.5569,-4.5466,-4.5449,-4.5414,-4.5397,-4.5397,-4.5397,-4.5397,-4.5397,-4.5397,-4.4751,-4.4363,-4.4363,-4.3707,-4.3293,-4.3258,-4.3258,-4.3241,-4.3189,-4.3189,-4.3189,-4.3189,-4.3189,-4.3189,-4.3189,-4.3189,-4.3189,-4.5677,-4.72,-4.8426,-5.0302,-5.0283,-4.9856,-5.006,-4.902,-4.7776,-4.6977,-4.5807,-4.4506,0.0,0.0,0.0,-4.7222,-5.1008,0.0,-5.5683,-5.7299,0.0,0.0,0.0,-5.6932,-5.6908,-5.7106,0.0,0.0,-5.8305,-5.8242,-5.8133,-5.8152,-5.8088,-5.7997,-5.7997,-5.7997,-5.7997,-5.7997,-5.7909,-5.7774,-5.7774,-5.7474,-5.6912,-5.6912,-5.666,-5.6303,-5.6303,-5.6303,-5.6276,-5.6138,-5.6083,-5.5999,-5.5402,-5.5164,-5.5122,-5.4683,-5.4512,-5.4512,-5.4512,-5.4512,-5.4512,-5.4512,-5.4512,-5.4512,-5.4512,-5.4512,-5.4477,-5.4287,-5.3684,-5.2925,-5.2101,-5.136,-5.0683,-5.0131,-5.0011,-5.0011,-5.0011,-5.0011,-5.0011,-5.0011,-4.9344,-4.8792,-4.8792,-4.8017,-4.7155,-4.6397,-4.6276,-4.6069,-4.5483,-4.5397,-4.5397,-4.5397,-4.5397,-4.5397,-4.5397,-4.5225,-4.513,-4.513,-4.4932,-4.4596,-4.4035,-4.4018,-4.3759,-4.3207,-4.3189,-4.3189,-4.3189,-4.3189,-4.3189,-4.3189,-4.3189,-4.3189,-4.7627,-4.9094,-5.0302,-5.1602,-5.1008,-5.0023,-4.9652,-4.8333,-4.6643,-4.4729,-4.3596,0.0,0.0,0.0,0.0,0.0,0.0,0.0,-5.5967,-5.7695,-5.8531,0.0,-5.7949,0.0,-5.7825,-5.7841,-5.8024,0.0,-5.8415,-5.8371,-5.8286,-5.8305,-5.8219,-5.8088,-5.8106,-5.8065,-5.7997,-5.7997,-5.7997,-5.7997,-5.7997,-5.7821,-5.7498,-5.7498,-5.7333,-5.7058,0.0,-5.7058,-5.7033,-5.6757,-5.6634,-5.6581,-5.6027,-5.5801,-5.5744,-5.5414,-5.5122,-5.4896,-5.4896,-5.4728,-5.4512,-5.4512,-5.4512,-5.4512,-5.4512,-5.4512,-5.4512,-5.4512,-5.3977,-5.3304,-5.2856,-5.1925,-5.1011,-5.0597,-5.0252,-5.0011,-5.0011,-5.0011,-5.0011,-5.0011,-4.9648,-4.9206,-4.8844,-4.8448,-4.7913,-4.72,-4.682,-4.6458,-4.5966,-4.5621,-4.5397,-4.5397,-4.5397,-4.5397,-4.5397,-4.5397,-4.5397,-4.5397,-4.5397,-4.5207,-4.4803,-4.4785,-4.4578,-4.4165,-4.4165,-4.4165,-4.4165,-4.4165,-4.4165,-4.4165,-4.4165,-4.4165,-4.8983,-5.0376,-5.1751,-5.2568,-5.1435,-4.9912,-4.9094,-4.7404,-4.5138,-4.2073,0.0,0.0,-3.9064,0.0,-4.263,-4.5825,0.0,-5.2549,-5.5837,-5.7602,-5.8586,-5.8698,-5.8716,-5.8656,-5.8532,-5.8635,-5.8656,-5.8532,-5.8483,-5.8437,-5.8415,-5.8415,-5.8349,-5.8197,-5.8197,-5.8152,-5.7997,-5.7997,-5.7997,-5.7997,-5.7997,-5.7997,-5.7997,-5.7997,-5.7997,-5.7997,-5.7997,-5.7997,-5.7973,-5.7449,-5.7216,-5.7166,-5.6625,-5.6412,-5.6412,-5.633,-5.5971,-5.5531,-5.5531,-5.5104,-5.462,-5.4543,-5.4512,-5.4512,-5.4512,-5.4512,-5.4512,-5.4512,-5.4046,-5.3529,-5.3425,-5.2408,-5.1356,-5.1166,-5.0614,-5.0131,-5.0028,-5.0011,-5.0011,-5.0011,-5.0011,-4.9786,-4.9068,-4.8947,-4.8706,-4.7948,-4.7234,-4.6717,-4.6613,-4.5897,-4.5397,-4.5397,-4.5397,-4.5397,-4.5397,-4.5397,-4.5397,-4.5397,-4.5397,-4.5397,-4.5397,-4.5397,-4.5397,-4.5397,-4.5397,-4.5397,-4.5397,-4.5397,-4.5397,-4.5397,-4.5397,-4.5397,-5.0543,-5.1658,-5.2587,-5.3385,-5.1881,-4.9968,-4.9094,-4.6067,0.0,0.0,0.0,-3.8247,-3.7281,-3.9565,0.0,-4.5082,0.0,0.0,0.0,0.0,-5.7955,0.0,0.0,0.0,0.0,0.0,0.0,0.0,0.0,-5.8593,-5.8489,-5.8468,-5.84,-5.8197,-5.8197,-5.8152,-5.7997,-5.7997,-5.7997,-5.7997,-5.7997,-5.7997,-5.7997,-5.7997,-5.7997,-5.7997,-5.7997,0.0,-5.7997,-5.7886,-5.7821,-5.7774,-5.7191,-5.6946,-5.6912,-5.6447,-5.6221,-5.6138,-5.6138,-5.5744,-5.5164,-5.4665,-5.4512,-5.4512,-5.4512,-5.4512,-5.4512,-5.4512,-5.4425,-5.4184,-5.3563,-5.3201,-5.2684,-5.1407,-5.1011,-5.0752,-5.0131,-5.0011,-5.0011,-5.0011,-5.0011,-4.9959,-4.9821,-4.9804,-4.9528,-4.8723,-4.7965,-4.7276,-4.6682,-4.5897,-4.5397,-4.5397,-4.5397,-4.5397,-4.5397,-4.5397,-4.5397,-4.5397,-4.5397,-4.5397,-4.5397,-4.5397,-4.5397,-4.5397,-4.5397,-4.5397,-4.5397,-4.5397,-4.5397,-4.5397,-4.5397,-4.5397,-5.1063,-5.2289,-5.3218,-5.3181,-5.1658,-4.9596,-4.7497,0.0,0.0,0.0,0.0,-3.6402,-3.5535,0.0,0.0,0.0,0.0,0.0,0.0,0.0,0.0,0.0,0.0,0.0,0.0,0.0,0.0,0.0,0.0,-5.8656,-5.8614,-5.8532,-5.8446,-5.8356,-5.8331,-5.8242,-5.8106,-5.8088,-5.8065,-5.7997,-5.7997,-5.7997,-5.7997,-5.7997,-5.7997,-5.7997,-5.7997,-5.7997,-5.7997,-5.7997,-5.7997,-5.7973,-5.7684,-5.7589,-5.7522,-5.7277,-5.6989,-5.6731,-5.6731,-5.634,-5.5801,-5.5531,-5.5224,-5.4987,-5.4987,-5.5194,-5.5443,-5.5443,-5.5443,-5.5373,-5.5004,-5.46,-5.409,-5.3363,-5.2561,-5.1706,-5.0638,-5.0415,-5.0331,-5.0051,-5.0011,-5.0011,-5.0011,-5.0011,-4.9873,-4.9493,-4.8758,-4.8137,-4.7775,-4.6724,-4.5845,-4.5432,-4.5397,-4.5397,-4.5397,-4.5397,-4.5397,-4.5397,-4.5397,-4.5397,-4.5397,-4.5397,-4.5397,-4.5397,-4.5397,-4.5397,-4.5397,-4.5397,-4.5397,-4.5397,-4.5397,-4.5397,-5.1228,-5.2624,-5.3608,-5.281,-5.1212,-4.9056,-4.6055,-4.3122,0.0,0.0,0.0,-3.5083,-3.4581,0.0,0.0,0.0,0.0,0.0,0.0,0.0,0.0,0.0,0.0,0.0,0.0,0.0,0.0,0.0,0.0,0.0,-5.8716,-5.8614,-5.8532,-5.8511,-5.8462,-5.8353,-5.8242,-5.8242,-5.8197,-5.8106,-5.8106,-5.8106,-5.8106,-5.8106,-5.8106,-5.8065,-5.8042,-5.8042,-5.8042,-5.802,-5.7997,-5.7997,-5.7997,-5.7997,-5.7997,-5.7997,-5.7703,-5.7309,-5.7309,-5.6938,-5.6474,-5.6474,-5.6083,-5.5589,-5.5589,-5.5915,-5.6303,-5.6303,-5.6303,-5.6303,-5.6303,-5.5821,-5.5276,-5.4911,-5.3786,-5.247,-5.1229,-5.0884,-5.0684,-5.0246,-5.008,-5.0011,-5.0011,-5.0011,-5.0011,-5.0011,-4.9309,-4.8792,-4.8792,-4.7638,-4.6586,-4.5949,-4.5604,-4.5397,-4.5397,-4.5397,-4.5397,-4.5397,-4.5397,-4.5397,-4.5397,-4.5397,-4.5397,-4.5397,-4.5397,-4.5397,-4.5397,-4.5397,-4.5397,-4.5397,-4.5397,-4.5397,-5.1484,-5.2749,-5.3608,-5.281,-5.0785,-4.842,-4.6098,0.0,0.0,0.0,-3.5551,-3.4544,-3.525,0.0,0.0,0.0,0.0,0.0,0.0,0.0,0.0,0.0,0.0,0.0,0.0,0.0,0.0,0.0,0.0,0.0,-5.8716,-5.8696,-5.8635,-5.8511,-5.8489,-5.8443,-5.8371,-5.8371,-5.8371,-5.8371,-5.8371,-5.8371,-5.8371,-5.8371,-5.8371,-5.8349,-5.8242,-5.8174,0.0,-5.8042,-5.7997,-5.7997,-5.7997,-5.7997,-5.7997,-5.7997,-5.7955,-5.7909,-5.7909,-5.7522,-5.704,-5.704,-5.666,-5.6221,-5.6221,-5.6248,-5.6303,-5.6303,-5.6303,-5.6303,-5.6303,-5.6249,-5.5821,-5.4349,-5.3393,-5.2572,-5.1704,-5.1131,-5.0793,-5.0739,-5.0331,-5.0011,-5.0011,-5.0011,-5.0011,-5.0011,-4.9309,-4.8792,-4.8792,-4.8086,-4.7551,-4.7482,-4.6242,-4.5397,-4.5397,-4.5397,-4.5397,-4.5397,-4.5397,-4.5397,-4.5397,-4.5397,-4.5397,-4.5397,-4.5397,-4.5397,-4.5397,-4.5397,-4.5397,-4.5397,-4.5397,-4.5397,-5.0547,-5.2138,-5.3083,-5.2122,-5.0376,-4.8178,-4.5488,0.0,0.0,-3.7324,-3.5634,-3.4498,-3.468,-3.5417,0.0,0.0,0.0,0.0,0.0,0.0,0.0,0.0,0.0,0.0,0.0,0.0,0.0,0.0,0.0,0.0,-5.8716,-5.8716,-5.8696,-5.8635,-5.8614,-5.8572,-5.8465,-5.8465,-5.844,-5.8393,-5.8393,-5.8393,-5.8393,-5.8393,-5.8393,-5.8393,-5.8349,-5.8327,0.0,-5.8264,-5.8242,-5.8242,-5.8242,-5.8242,-5.8242,-5.8242,-5.8242,-5.8242,-5.8242,-5.8088,-5.789,-5.789,-5.7732,-5.7474,-5.6938,-5.7058,-5.7327,-5.7327,-5.7327,-5.7327,-5.7327,-5.7327,-5.6927,-5.531,-5.4693,-5.4041,-5.2426,-5.1897,-5.1576,-5.0937,-5.063,-5.0387,-5.0051,-5.0011,-5.0011,-5.0011,-4.9735,-4.9528,-4.9528,-4.8827,-4.8344,-4.8344,-4.7414,-4.6586,-4.6155,-4.6104,-4.5914,-4.5432,-4.5397,-4.5397,-4.5397,-4.5397,-4.5397,-4.5397,-4.5397,-4.5397,-4.5397,-4.5397,-4.5397,-4.5397,-4.5397,-4.5397,-4.9679,-5.1437,-5.2377,-5.1283,-4.9833,-4.7916,0.0,0.0,-3.9084,-3.7519,-3.583,-3.4539,-3.4351,-3.4964,-3.6216,0.0,0.0,0.0,0.0,0.0,0.0,0.0,0.0,0.0,0.0,0.0,0.0,0.0,0.0,0.0,-5.8716,-5.8716,-5.8716,-5.8716,-5.8716,-5.8656,-5.8553,-5.8553,-5.8529,-5.8502,-5.8502,-5.8502,-5.8502,-5.8502,-5.8502,-5.8502,-5.844,-5.8418,0.0,-5.8415,-5.8393,-5.8393,-5.8393,-5.8393,-5.8393,-5.8393,-5.8393,-5.8393,-5.8393,-5.8393,-5.8393,-5.8393,-5.8393,-5.8286,-5.7666,-5.7779,-5.8129,-5.8129,-5.8129,-5.8129,-5.8129,-5.8106,-5.7716,-5.6338,-5.5802,-5.5119,-5.3376,-5.2681,-5.2179,-5.1416,-5.1158,-5.091,-5.0537,-5.0481,-5.0481,-5.0481,-5.0331,-5.0235,-5.0235,-4.9608,-4.9137,-4.9137,-4.87,-4.7993,-4.7027,-4.6941,-4.6672,-4.6121,-4.588,-4.5742,-4.5742,-4.5518,-4.5397,-4.5397,-4.5397,-4.5397,-4.5397,-4.5397,-4.5397,-4.5397,-4.5397,-4.5397,-4.9105,-5.0798,-5.1534,-5.0409,-4.909,-4.7511,0.0,-4.2139,-3.9406,-3.7972,-3.6045,-3.4602,-3.4602,-3.5084,-3.603,-3.7652,0.0,0.0,0.0,0.0,0.0,0.0,0.0,0.0,0.0,0.0,0.0,0.0,0.0,0.0,-5.8716,-5.8716,-5.8716,-5.8716,-5.8716,-5.8716,-5.8696,-5.8696,-5.8696,-5.8696,-5.8696,-5.8696,-5.8696,-5.8696,-5.8696,-5.8696,-5.8553,-5.8489,0.0,-5.8418,-5.8393,-5.8393,-5.8393,-5.8393,-5.8393,-5.8393,-5.8393,-5.8393,-5.8393,-5.8393,-5.8393,-5.8393,-5.8393,-5.8393,-5.8393,-5.8393,-5.8393,-5.8393,-5.8393,-5.8393,-5.8393,-5.8305,-5.7994,-5.7184,-5.6287,-5.5372,-5.4564,-5.333,-5.2384,-5.2384,-5.1964,-5.1576,-5.1576,-5.1576,-5.1576,-5.1576,-5.1131,-5.0776,-5.0776,-5.0331,-4.9993,-4.9993,-4.9993,-4.9373,-4.781,-4.77,-4.77,-4.7672,-4.6993,-4.6596,-4.6596,-4.5811,-4.5397,-4.5397,-4.5397,-4.5397,-4.5397,-4.5397,-4.5397,-4.5397,-4.5397,-4.5397,-4.5452,-4.7345,-4.8585,-4.684,-4.6101,-4.5192,-4.2962,-4.0755,-3.8737,-3.713,-3.585,-3.4973,-3.484,-3.4862,-3.597,-3.9281,-4.0155,0.0,0.0,0.0,0.0,0.0,0.0,0.0,0.0,0.0,0.0,0.0,0.0,0.0,-5.8716,-5.8716,-5.8716,-5.8716,-5.8716,-5.8716,-5.8716,-5.8716,-5.8716,-5.8716,-5.8716,-5.8716,-5.8716,-5.8716,-5.8716,-5.8696,-5.8656,-5.8635,-5.8635,-5.8593,-5.8612,-5.8612,-5.8612,-5.8612,-5.8612,-5.8612,-5.8612,-5.8612,-5.8612,-5.8612,-5.8612,-5.8612,-5.8612,-5.8612,-5.8612,-5.8523,-5.8393,-5.8393,-5.8393,-5.8371,-5.8305,-5.8219,-5.7972,-5.7073,-5.622,-5.5372,-5.4564,-5.3628,-5.2846,-5.2454,-5.225,-5.2036,-5.1651,-5.1601,-5.1601,-5.1601,-5.1467,-5.1365,-5.1365,-5.121,-5.1079,-5.1079,-5.1079,-5.0382,-4.8601,-4.8448,-4.8224,-4.7724,-4.7465,-4.7345,-4.7345,-4.7103,-4.6724,-4.6224,-4.6207,-4.5931,-4.5397,-4.5397,-4.5397,-4.5397,-4.5397,-4.5397,0.0,-4.4813,-4.5997,-4.4953,-4.4302,-4.3464,-4.1777,-3.9937,-3.8172,-3.6799,-3.5812,-3.5157,-3.5037,-3.5096,-3.6061,-3.8858,-3.9978,0.0,0.0,0.0,0.0,0.0,0.0,0.0,0.0,0.0,0.0,0.0,0.0,0.0,-5.8716,-5.8716,-5.8716,-5.8716,-5.8716,-5.8716,-5.8716,-5.8716,-5.8716,-5.8716,-5.8716,-5.8716,-5.8716,-5.8716,-5.8716,-5.8716,-5.8716,-5.8716,0.0,-5.8716,-5.8716,-5.8716,-5.8716,-5.8716,-5.8716,-5.8716,-5.8716,-5.8716,-5.8716,-5.8716,-5.8716,-5.8716,-5.8716,-5.8716,-5.8716,-5.8612,-5.8505,-5.8505,-5.8505,-5.8483,-5.8418,-5.8334,-5.8161,-5.7597,-5.6555,-5.5576,-5.508,-5.4062,-5.3148,-5.2791,-5.2721,-5.2586,-5.225,-5.2203,-5.2203,-5.2203,-5.2066,-5.1952,-5.1952,-5.1764,-5.164,-5.164,-5.1626,-5.1126,-4.9957,-4.9667,-4.9365,-4.8896,-4.8398,-4.8103,-4.8103,-4.7844,-4.7465,-4.7027,-4.7027,-4.6786,-4.6259,-4.5983,-4.5845,-4.5845,-4.5535,-4.5397,0.0,-4.2726,-4.359,-4.404,-4.3205,-4.2057,-4.1246,-3.944,0.0,-3.6788,-3.5871,-3.5264,-3.5379,-3.5788,-3.641,-3.7337,-3.9396,0.0,0.0,0.0,0.0,0.0,0.0,0.0,0.0,0.0,0.0,0.0,0.0,0.0,-5.8716,-5.8716,-5.8716,-5.8716,-5.8716,-5.8716,-5.8716,-5.8716,-5.8716,-5.8716,-5.8716,-5.8716,-5.8716,-5.8716,-5.8716,0.0,-5.8716,-5.8716,-5.8716,-5.8716,-5.8716,-5.8716,-5.8716,-5.8716,-5.8716,-5.8716,-5.8716,-5.8716,-5.8716,-5.8716,-5.8716,-5.8716,-5.8716,-5.8716,-5.8716,-5.8716,-5.8716,-5.8716,-5.8716,-5.8696,-5.8696,-5.8574,-5.8489,-5.8489,-5.7201,-5.5971,-5.5897,-5.458,-5.3373,-5.3318,-5.3254,-5.3227,-5.3227,-5.3227,-5.3227,-5.3227,-5.2857,-5.2585,-5.2585,-5.2136,-5.1832,-5.1832,-5.1764,-5.1725,-5.1725,-5.121,-5.0857,-5.0857,-4.9691,-4.9003,-4.9003,-4.8346,-4.7921,-4.7841,-4.7734,-4.7689,-4.7689,-4.7027,-4.6682,-4.6665,-4.5897,-4.5535,-3.5525,0.0,-3.9269,-3.8772,-3.8876,-3.8853,0.0,-3.7394,-3.6769,0.0,0.0,0.0,0.0,-3.6796,-3.7641,0.0,0.0,0.0,0.0,0.0,0.0,0.0,0.0,0.0,0.0,0.0,0.0,0.0,0.0,-5.8716,-5.8716,-5.8716,-5.8716,-5.8716,-5.8716,-5.8716,-5.8716,-5.8716,-5.8716,-5.8716,-5.8716,-5.8716,-5.8716,-5.8716,-5.8716,-5.8716,-5.8716,-5.8716,-5.8716,-5.8716,-5.8716,-5.8716,-5.8716,-5.8716,-5.8716,-5.8716,-5.8716,-5.8716,-5.8716,-5.8716,-5.8716,-5.8716,-5.8716,-5.8716,-5.8716,-5.8716,-5.8716,-5.8716,-5.8716,-5.8696,-5.8553,-5.8532,-5.8489,-5.844,-5.7639,-5.6713,-5.6027,-5.5085,-5.4179,-5.357,-5.3439,-5.3418,-5.3418,-5.3418,-5.3418,-5.3418,-5.3339,-5.3261,-5.3261,-5.3138,-5.3075,-5.3075,-5.2969,-5.2947,-5.3033,-5.2048,-5.1398,-5.1398,-5.1136,-5.0952,-5.0952,-5.0775,-5.0197,-4.9178,-4.8196,-4.7689,-4.7689,-4.7517,-4.7431,-4.7431,-4.7241,-4.6845,-3.2756,-3.5515,-3.8027,-3.7961,-3.8274,-3.8479,-3.7995,0.0,0.0,0.0,0.0,0.0,0.0,0.0,0.0,0.0,0.0,0.0,0.0,0.0,0.0,0.0,0.0,0.0,0.0,0.0,0.0,0.0,0.0,-5.8716,-5.8716,-5.8716,-5.8716,-5.8716,-5.8716,-5.8716,-5.8716,-5.8716,-5.8716,-5.8716,-5.8716,-5.8716,-5.8716,-5.8716,-5.8716,-5.8716,-5.8716,-5.8716,-5.8716,-5.8716,-5.8716,-5.8716,-5.8716,-5.8716,-5.8716,-5.8716,-5.8716,-5.8716,-5.8716,-5.8716,-5.8716,-5.8716,-5.8716,-5.8716,-5.8716,-5.8716,-5.8716,-5.8716,-5.8716,-5.8677,-5.8614,-5.8574,-5.8593,-5.8548,-5.7915,-5.7212,-5.6749,-5.5653,-5.467,-5.4245,-5.3798,-5.3499,-5.3499,-5.3499,-5.3499,-5.3499,-5.3539,-5.3598,-5.3598,-5.3598,-5.3598,-5.3598,-5.3479,-5.342,-5.3499,-5.2882,-5.2353,-5.2125,-5.1868,-5.1739,-5.1739,-5.1739,-5.1251,-5.0224,-4.9499,-4.9014,-4.8769,-4.8379,-4.8189,-4.8189,-4.7844,-4.751,-3.1888,-3.5081,-3.8196,-3.8623,-3.9028,-3.9278,-3.9138,0.0,0.0,0.0,0.0,0.0,0.0,0.0,0.0,0.0,0.0,0.0,0.0,0.0,0.0,0.0,0.0,0.0,0.0,0.0,0.0,0.0,0.0,-5.8716,-5.8716,-5.8716,-5.8716,-5.8716,-5.8716,-5.8716,-5.8716,-5.8716,-5.8716,-5.8716,-5.8716,-5.8716,-5.8716,-5.8716,-5.8716,-5.8716,0.0,0.0,-5.8716,-5.8716,-5.8716,-5.8716,-5.8716,-5.8716,-5.8716,-5.8716,-5.8716,-5.8716,-5.8716,-5.8716,-5.8716,-5.8716,-5.8716,-5.8716,-5.8716,-5.8716,-5.8716,-5.8716,-5.8716,-5.8716,-5.8716,-5.8716,-5.8716,-5.8716,-5.8196,-5.7658,-5.7528,-5.624,-5.5067,-5.4937,-5.4154,-5.3559,-5.3559,-5.3559,-5.3559,-5.3559,-5.3637,-5.3715,-5.3715,-5.3715,-5.3715,-5.3715,-5.3598,-5.3539,-5.3541,-5.3539,-5.3341,-5.291,-5.2413,-5.2141,-5.2141,-5.2071,-5.1716,-5.1069,-5.0929,-5.062,-5.0051,-4.9378,-4.905,-4.9033,-4.8394,-4.8048,-3.3313,-3.5962,-3.7797,-3.6485,-3.7757,-3.9105,-3.8368,0.0,0.0,0.0,0.0,0.0,0.0,0.0,0.0,0.0,0.0,0.0,0.0,0.0,0.0,0.0,0.0,0.0,0.0,0.0,0.0,0.0,0.0,-5.8716,-5.8716,-5.8716,-5.8716,-5.8716,-5.8716,-5.8716,-5.8716,-5.8716,-5.8716,-5.8716,-5.8716,-5.8716,-5.8716,-5.8716,-5.8716,-5.8716,0.0,-5.8716,-5.8716,-5.8716,-5.8716,-5.8716,-5.8716,-5.8716,-5.8716,-5.8716,-5.8716,-5.8716,-5.8716,-5.8716,-5.8716,-5.8716,-5.8716,-5.8716,-5.8716,-5.8716,-5.8716,-5.8716,-5.8716,-5.8716,-5.8716,-5.8716,-5.8716,-5.8716,-5.8624,-5.8345,-5.7658,-5.6746,-5.5873,-5.5129,-5.4331,-5.3737,-5.3737,-5.3737,-5.3737,-5.3737,-5.3774,-5.3774,-5.3774,-5.3774,-5.3774,-5.3774,-5.3734,-5.3676,-5.3755,-5.3696,-5.3657,-5.3621,-5.3383,-5.3261,-5.3261,-5.2806,-5.234,-5.1848,-5.1391,-5.0884,-5.0331,-5.0209,-5.0139,-5.0139,-5.0035,-4.958,-3.1995,-3.4502,-3.6708,-3.635,-3.8817,-4.1255,-4.0843,0.0,0.0,0.0,0.0,0.0,0.0,0.0,0.0,0.0,0.0,0.0,0.0,0.0,0.0,0.0,0.0,0.0,0.0,0.0,0.0,0.0,0.0,0.0,-5.8716,-5.8716,-5.8716,-5.8716,-5.8716,-5.8716,-5.8716,-5.8716,-5.8716,-5.8716,-5.8716,-5.8716,-5.8716,-5.8716,-5.8716,-5.8716,0.0,-5.8716,-5.8716,-5.8716,-5.8716,-5.8716,-5.8716,-5.8716,-5.8716,-5.8716,-5.8716,-5.8716,-5.8716,-5.8716,-5.8716,-5.8716,-5.8716,-5.8716,-5.8716,-5.8716,-5.8716,-5.8716,-5.8716,-5.8716,-5.8716,-5.8716,-5.8716,-5.8716,-5.8716,-5.8605,-5.8234,-5.7528,-5.671,-5.5874,-5.502,-5.4314,-5.3868,-5.3813,-5.3813,-5.3813,-5.3813,-5.3813,-5.3813,-5.3813,-5.3813,-5.3813,-5.3755,-5.3774,-5.3813,-5.3755,-5.3774,-5.3813,-5.3698,-5.3659,-5.3659,-5.3381,-5.299,-5.2509,-5.2172,-5.1746,-5.1217,-5.1217,-5.1217,-5.1217,-5.1217,-5.0962,-3.1623,-3.3687,-3.5952,-3.7115,0.0,-4.2418,-4.3217,0.0,0.0,0.0,0.0,0.0,0.0,0.0,0.0,0.0,0.0,0.0,0.0,0.0,0.0,0.0,0.0,0.0,0.0,0.0,0.0,0.0,0.0,0.0,-5.8716,-5.8716,-5.8716,-5.8716,-5.8716,-5.8716,-5.8716,-5.8716,-5.8716,-5.8716,-5.8716,-5.8716,-5.8716,-5.8716,-5.8716,-5.8716,-5.8716,-5.8716,-5.8716,-5.8716,-5.8716,-5.8716,-5.8716,-5.8716,-5.8716,-5.8716,-5.8716,-5.8716,-5.8716,-5.8716,-5.8716,-5.8716,-5.8716,-5.8716,-5.8716,-5.8716,-5.8716,-5.8716,-5.8716,-5.8716,-5.8716,-5.8716,-5.8716,-5.8716,-5.8716,-5.8716,-5.8716,-5.8085,-5.7268,-5.6469,-5.5596,-5.4741,-5.3943,-5.3813,-5.3813,-5.3813,-5.3813,-5.3813,-5.3813,-5.3813,-5.3813,-5.3813,-5.3813,-5.3813,-5.3813,-5.3813,-5.3887,-5.4073,-5.3905,-5.3887,-5.4073,-5.3866,-5.3479,-5.295,-5.2846,-5.2544,-5.1982,-5.1982,-5.1982,-5.1982,-5.1982,-5.1928,-3.4659,-3.5469,-3.6194,-3.8608,-3.9438,0.0,-4.3525,-4.2912,0.0,0.0,0.0,0.0,0.0,0.0,0.0,0.0,0.0,0.0,0.0,0.0,0.0,0.0,0.0,0.0,0.0,0.0,0.0,0.0,0.0,0.0,-5.8716,-5.8716,-5.8716,-5.8716,-5.8716,-5.8716,-5.8716,-5.8716,-5.8716,-5.8716,-5.8716,-5.8716,-5.8716,-5.8716,-5.8716,-5.8716,-5.8716,-5.8716,-5.8716,-5.8716,-5.8716,-5.8716,-5.8716,-5.8716,-5.8716,-5.8716,-5.8716,-5.8716,-5.8716,-5.8716,-5.8716,-5.8716,-5.8716,-5.8716,-5.8716,-5.8716,-5.8716,-5.8716,-5.8716,-5.8716,-5.8716,-5.8716,-5.8716,-5.8716,-5.8716,-5.8716,-5.8716,-5.8085,-5.7268,-5.6469,-5.5596,-5.4741,-5.3943,-5.3813,-5.3813,-5.3813,-5.3813,-5.3813,-5.3813,-5.3813,-5.3813,-5.3813,-5.3813,-5.3813,-5.3813,-5.3813,-5.4128,-5.4871,-5.4221,-5.4128,-5.489,-5.4183,-5.3562,-5.3078,-5.3096,-5.2824,-5.2258,-5.2258,-5.2258,-5.2258,-5.2258,-5.2188,-3.3015,-3.4436,-3.612,-3.8106,0.0,0.0,0.0,0.0,0.0,0.0,0.0,0.0,0.0,0.0,0.0,0.0,0.0,0.0,0.0,0.0,0.0,0.0,0.0,0.0,0.0,0.0,0.0,0.0,0.0,0.0,-5.8716,-5.8716,-5.8716,-5.8716,-5.8716,-5.8716,-5.8716,-5.8716,-5.8716,-5.8716,-5.8716,-5.8716,-5.8716,-5.8716,-5.8716,-5.8716,-5.8716,-5.8716,-5.8716,-5.8716,-5.8716,-5.8716,-5.8716,-5.8716,-5.8716,-5.8716,-5.8716,-5.8716,-5.8716,-5.8716,-5.8716,-5.8716,-5.8716,-5.8716,-5.8716,-5.8716,-5.8716,-5.8716,-5.8716,-5.8716,-5.8716,-5.8716,-5.8716,-5.8716,-5.8716,-5.8716,-5.8716,-5.8085,-5.7268,-5.6469,-5.5596,-5.4741,-5.3943,-5.3813,-5.3813,-5.3813,-5.3813,-5.3813,-5.3813,-5.3813,-5.3813,-5.3813,-5.3813,-5.3813,-5.3813,-5.3813,-5.4147,-5.4964,-5.4723,-5.4686,-5.5001,-5.4723,-5.4237,-5.3542,-5.3542,-5.3444,-5.3226,-5.3226,-5.3226,-5.3226,-5.3226,-5.3182,-3.2706,-3.4311,-3.6414,0.0,0.0,0.0,0.0,0.0,0.0,0.0,0.0,0.0,0.0,0.0,0.0,0.0,0.0,0.0,0.0,0.0,0.0,0.0,0.0,0.0,0.0,0.0,0.0,0.0,0.0,0.0,0.0,-5.876,-5.8716,-5.8716,-5.8716,-5.8716,-5.8716,-5.8716,-5.8716,-5.8716,-5.8716,-5.8716,-5.8716,-5.8716,-5.8716,-5.8716,-5.8716,-5.8716,-5.8716,-5.8716,-5.8716,-5.8716,-5.8716,-5.8716,-5.8716,-5.8716,-5.8716,-5.8716,-5.8716,-5.8716,-5.8716,-5.8716,-5.8716,-5.8716,-5.8716,-5.8716,-5.8716,-5.8716,-5.8716,-5.8716,-5.8716,-5.8716,-5.8716,-5.8716,-5.8512,-5.8326,-5.8326,-5.7695,-5.6878,-5.606,-5.541,-5.4741,-5.3943,-5.3813,-5.3813,-5.3813,-5.3813,-5.3813,-5.3813,-5.3813,-5.3813,-5.3813,-5.3813,-5.3813,-5.3813,-5.3813,-5.4147,-5.4964,-5.5261,-5.5299,-5.502,-5.5001,-5.463,-5.3831,-5.3813,-5.3813,-5.3813,-5.3813,-5.3813,-5.3813,-5.3813,-5.3793,-3.4626,-3.5626,0.0,0.0,0.0,0.0,0.0,0.0,0.0,0.0,0.0,0.0,0.0,0.0,0.0,0.0,0.0,0.0,0.0,0.0,0.0,0.0,0.0,0.0,0.0,0.0,0.0,0.0,0.0,0.0,0.0,-5.8887,-5.8698,-5.8679,-5.8679,-5.8679,-5.8679,-5.8679,-5.8679,-5.8679,-5.8679,-5.8698,-5.8716,-5.8716,-5.8716,-5.8716,-5.8716,-5.8716,-5.8716,-5.8716,-5.8716,-5.8716,-5.8716,-5.8716,-5.8716,-5.8716,-5.8716,-5.8716,-5.8716,-5.8716,-5.8716,-5.8716,-5.8716,-5.8716,-5.8716,-5.8716,-5.8716,-5.8716,-5.8716,-5.8716,-5.8716,-5.8716,-5.8716,-5.8716,-5.8103,-5.7509,-5.7509,-5.6859,-5.6042,-5.5169,-5.5001,-5.4741,-5.3943,-5.3813,-5.3813,-5.3813,-5.3813,-5.3813,-5.3813,-5.3813,-5.3813,-5.3813,-5.3813,-5.3813,-5.3813,-5.3813,-5.4147,-5.4946,-5.5819,-5.5912,-5.5057,-5.502,-5.463,-5.3831,-5.3813,-5.3813,-5.3813,-5.3813,-5.3813,-5.3813,-5.3813,-5.3813,-3.3731,0.0,0.0,0.0,0.0,0.0,0.0,0.0,0.0,0.0,0.0,0.0,0.0,0.0,0.0,0.0,0.0,0.0,0.0,0.0,0.0,0.0,0.0,0.0,0.0,0.0,0.0,0.0,0.0,0.0,0.0,-5.8388,-5.7922,-5.7323,-5.711,-5.7008,-5.7008,-5.7008,-5.7008,-5.7008,-5.7008,-5.7602,-5.8716,-5.8716,-5.8716,-5.8716,-5.8716,-5.8716,-5.8716,-5.8716,-5.8716,-5.8716,-5.8716,-5.8716,-5.8716,-5.8716,-5.8716,-5.8716,-5.8716,-5.8716,-5.8716,-5.8716,-5.8716,-5.8716,-5.8716,-5.8716,-5.8716,-5.8716,-5.8716,-5.8716,-5.8716,-5.8716,-5.8716,-5.8716,-5.8103,-5.7509,-5.7509,-5.6395,-5.5317,-5.5057,-5.4556,-5.4091,-5.385,-5.3813,-5.3813,-5.3813,-5.3813,-5.3813,-5.3813,-5.3813,-5.3813,-5.3813,-5.3813,-5.3813,-5.3813,-5.3813,-5.3905,-5.4147,-5.5503,-5.619,-5.593,-5.5912,-5.5522,-5.4667,-5.4091,-5.3813,-5.3813,-5.3813,-5.3813,-5.3813,-5.3813,-5.3813,-3.551,0.0,0.0,0.0,0.0,0.0,0.0,0.0,0.0,0.0,0.0,0.0,0.0,0.0,0.0,0.0,0.0,0.0,0.0,0.0,0.0,0.0,0.0,0.0,0.0,0.0,0.0,0.0,0.0,0.0,-5.8217,-5.7864,-5.7437,-5.6911,-5.6612,-5.6462,-5.6462,-5.6362,-5.6302,-5.6302,-5.6302,-5.6822,-5.7751,-5.7751,-5.7751,-5.7769,-5.8085,-5.8234,-5.8252,-5.8586,-5.8716,-5.8716,-5.8716,-5.8716,-5.8716,-5.8716,-5.8716,-5.8716,-5.8716,-5.8716,-5.8716,-5.8716,-5.8716,-5.8716,-5.8716,-5.8716,-5.8716,-5.8716,-5.8716,-5.8716,-5.8716,-5.8475,-5.8234,-5.8234,-5.7621,-5.6933,-5.658,-5.5466,-5.4518,-5.4518,-5.4128,-5.3813,-5.3813,-5.3813,-5.3813,-5.3813,-5.3813,-5.3813,-5.3813,-5.3813,-5.3813,-5.3813,-5.3813,-5.3813,-5.3813,-5.3813,-5.3813,-5.3813,-5.5057,-5.5949,-5.6302,-5.6302,-5.5893,-5.5039,-5.4221,-5.3813,-5.3813,-5.3813,-5.3813,-5.3813,-5.3813,-5.3627,0.0,0.0,0.0,0.0,0.0,0.0,0.0,0.0,0.0,0.0,0.0,0.0,0.0,0.0,0.0,0.0,0.0,0.0,0.0,0.0,0.0,0.0,0.0,0.0,0.0,0.0,0.0,0.0,0.0,-5.7728,-5.7632,-5.7319,-5.7099,-5.7043,-5.67,-5.6512,-5.6476,-5.6238,-5.61,-5.6079,-5.6079,-5.6079,-5.6079,-5.6227,-5.6302,-5.6339,-5.7082,-5.7398,-5.7453,-5.8271,-5.8605,-5.8605,-5.8679,-5.8716,-5.8716,-5.8716,-5.8716,-5.8716,-5.8716,-5.8716,-5.8716,-5.8716,-5.8716,-5.8716,-5.8716,-5.8716,-5.8716,-5.8716,-5.8716,-5.8716,-5.8716,-5.8103,-5.749,-5.7416,-5.6766,-5.5967,-5.5169,-5.437,-5.3813,-5.3813,-5.3813,-5.3813,-5.3813,-5.3813,-5.3813,-5.3813,-5.3813,-5.3813,-5.3813,-5.3813,-5.3813,-5.3813,-5.3813,-5.3813,-5.3813,-5.3813,-5.3813,-5.3813,-5.4574,-5.5373,-5.6153,-5.619,-5.5856,-5.5131,-5.4258,-5.3813,-5.3813,-5.3813,-5.3813,-5.3813,-5.3813,-5.3423,0.0,0.0,0.0,0.0,0.0,0.0,0.0,0.0,0.0,0.0,0.0,0.0,0.0,0.0,0.0,0.0,0.0,0.0,0.0,0.0,0.0,0.0,0.0,0.0,0.0,0.0,0.0,0.0,0.0,-5.7874,-5.7182,-5.683,-5.6347,-5.5731,-5.5382,-5.5088,-5.4805,-5.4773,-5.4595,-5.4351,-5.4351,-5.4351,-5.4388,-5.5707,-5.6302,-5.632,-5.6487,-5.6562,-5.6617,-5.7435,-5.7769,-5.7825,-5.8456,-5.8716,-5.8716,-5.8716,-5.8716,-5.8716,-5.8716,-5.8716,-5.8716,-5.8716,-5.8716,-5.8716,-5.8716,-5.8716,-5.8716,-5.8716,-5.8716,-5.8716,-5.8716,-5.8103,-5.7342,-5.671,-5.5912,-5.5243,-5.5039,-5.437,-5.3813,-5.3813,-5.3813,-5.3813,-5.3813,-5.3813,-5.3813,-5.3813,-5.3813,-5.3813,-5.3813,-5.3813,-5.3813,-5.3813,-5.3813,-5.3813,-5.3813,-5.3813,-5.3813,-5.3813,-5.4574,-5.5075,-5.528,-5.528,-5.5522,-5.6004,-5.4556,-5.3813,-5.3813,-5.3813,-5.3813,-5.3813,-5.3813,-5.372,0.0,0.0,0.0,0.0,0.0,0.0,0.0,0.0,0.0,0.0,0.0,0.0,0.0,0.0,0.0,0.0,0.0,0.0,0.0,0.0,0.0,0.0,0.0,0.0,0.0,0.0,0.0,0.0,0.0,-5.6857,-5.6406,-5.6207,-5.5926,-5.5504,-5.5204,-5.4952,-5.4773,-5.4463,-5.4212,-5.4035,-5.3889,-5.3813,-5.3831,-5.4704,-5.5113,-5.5131,-5.5522,-5.5689,-5.5744,-5.658,-5.6933,-5.697,-5.7398,-5.7788,-5.8141,-5.8141,-5.8382,-5.8716,-5.8716,-5.8716,-5.8716,-5.8716,-5.8716,-5.8716,-5.8716,-5.8716,-5.8716,-5.8716,-5.8716,-5.8624,-5.8234,-5.7528,-5.671,-5.5893,-5.5336,-5.489,-5.4518,-5.411,-5.3813,-5.3813,-5.3813,-5.3813,-5.3813,-5.3813,-5.3813,-5.3813,-5.3813,-5.3813,-5.3813,-5.3813,-5.3813,-5.3813,-5.3813,-5.3813,-5.3813,-5.3813,-5.3813,-5.3813,-5.4203,-5.4797,-5.5596,-5.4853,-5.4834,-5.567,-5.4834,-5.4184,-5.3813,-5.3813,-5.3813,-5.3813,-5.3813,-5.359,0.0,0.0,0.0,0.0,0.0,0.0,0.0,0.0,0.0,0.0,0.0,0.0,0.0,0.0,0.0,0.0,0.0,0.0,0.0,0.0,0.0,0.0,0.0,0.0,0.0,0.0,0.0,0.0,0.0,-5.5703,-5.5703,-5.5703,-5.5703,-5.5703,-5.5437,-5.5301,-5.5301,-5.4682,-5.438,-5.438,-5.4107,-5.3981,-5.3981,-5.3907,-5.3851,-5.385,-5.45,-5.4797,-5.4871,-5.5726,-5.6079,-5.6097,-5.6246,-5.671,-5.7286,-5.7286,-5.7713,-5.8289,-5.8289,-5.8289,-5.8289,-5.8289,-5.8289,-5.8289,-5.8289,-5.8382,-5.8475,-5.8326,-5.8401,-5.8308,-5.7509,-5.6692,-5.5893,-5.5169,-5.489,-5.4611,-5.3943,-5.3813,-5.3813,-5.3813,-5.3813,-5.3813,-5.3813,-5.3813,-5.3813,-5.3813,-5.3813,-5.3813,-5.3813,-5.3813,-5.3813,-5.3813,-5.3813,-5.3813,-5.3813,-5.3813,-5.3813,-5.3813,-5.3813,-5.4426,-5.5819,-5.4667,-5.4258,-5.4797,-5.4797,-5.4481,-5.3813,-5.3813,-5.3813,-5.3813,-5.3813,-5.3441,0.0,0.0,0.0,0.0,0.0,0.0,0.0,0.0,0.0,0.0,0.0,0.0,0.0,0.0,0.0,0.0,0.0,0.0,0.0,0.0,0.0,0.0,0.0,0.0,0.0,0.0,0.0,0.0,-5.5703,-5.5703,-5.5703,-5.5703,-5.5703,-5.5703,-5.5437,-5.5301,-5.5301,-5.4924,-5.4731,-5.4731,-5.4685,-5.467,-5.4654,-5.4382,-5.4072,-5.3813,-5.3924,-5.3961,-5.4017,-5.4853,-5.5169,-5.5261,-5.6004,-5.6376,-5.6469,-5.6469,-5.6525,-5.6617,-5.6617,-5.6617,-5.6617,-5.6617,-5.6617,-5.6617,-5.6617,-5.7119,-5.7509,-5.6822,-5.7119,-5.7472,-5.6673,-5.5819,-5.515,-5.5039,-5.4481,-5.3943,-5.3831,-5.3813,-5.3813,-5.3813,-5.3813,-5.3813,-5.3813,-5.3813,-5.3813,-5.3813,-5.3813,-5.3813,-5.3813,-5.3813,-5.3813,-5.3813,-5.3813,-5.3813,-5.3813,-5.3813,-5.3813,-5.3813,-5.3813,-5.3905,-5.4128,-5.4593,-5.4574,-5.398,-5.3961,-5.3924,-5.3813,-5.3813,-5.3813,-5.3813,-5.3813,-5.3738,0.0,0.0,0.0,0.0,0.0,0.0,0.0,0.0,0.0,0.0,0.0,0.0,0.0,0.0,0.0,0.0,0.0,0.0,0.0,0.0,0.0,0.0,0.0,0.0,0.0,0.0,0.0,0.0,-5.4587,-5.4299,-5.4299,-5.4299,-5.4299,-5.4299,-5.4183,-5.4127,-5.4127,-5.3786,-5.3527,-5.3356,-5.3844,-5.4072,-5.4072,-5.4427,-5.4397,-5.4072,-5.3889,-5.3813,-5.3831,-5.4184,-5.4333,-5.437,-5.476,-5.5169,-5.5577,-5.5577,-5.5893,-5.6302,-5.6302,-5.6302,-5.6302,-5.6302,-5.6302,-5.6302,-5.6302,-5.6543,-5.6747,-5.6395,-5.6543,-5.6636,-5.58,-5.5299,-5.489,-5.4444,-5.4073,-5.3813,-5.3813,-5.3813,-5.3813,-5.3813,-5.3813,-5.3813,-5.3813,-5.3813,-5.3813,-5.3813,-5.3813,-5.3813,-5.3813,-5.3813,-5.3813,-5.3813,-5.3813,-5.3813,-5.3813,-5.3813,-5.3813,-5.3813,-5.4221,-5.4704,-5.5187,-5.5076,-5.5076,-5.5206,-5.4723,-5.4258,-5.3813,-5.3813,-5.3813,-5.3813,-5.3813,-5.3571,0.0,0.0,0.0,0.0,0.0,0.0,0.0,0.0,0.0,0.0,0.0,0.0,0.0,0.0,0.0,0.0,0.0,0.0,0.0,0.0,0.0,0.0,0.0,0.0,0.0,0.0,0.0,0.0,-5.3578,-5.3213,-5.3203,-5.3203,-5.3203,-5.3203,-5.3121,-5.3102,-5.3203,-5.2943,-5.2697,-5.246,-5.312,-5.3539,-5.3767,-5.4344,-5.4583,-5.4544,-5.4194,-5.4054,-5.4054,-5.4054,-5.4054,-5.4054,-5.4054,-5.4354,-5.482,-5.482,-5.5172,-5.567,-5.567,-5.567,-5.567,-5.567,-5.567,-5.567,-5.567,-5.5819,-5.593,-5.5726,-5.5819,-5.5782,-5.4927,-5.4704,-5.4556,-5.3943,-5.3813,-5.3813,-5.3813,-5.3813,-5.3813,-5.3813,-5.3813,-5.3813,-5.3813,-5.3813,-5.3813,-5.3813,-5.3813,-5.3813,-5.3813,-5.3813,-5.3813,-5.3813,-5.3813,-5.3813,-5.3813,-5.3813,-5.3813,-5.3813,-5.437,-5.5001,-5.5652,-5.5243,-5.5224,-5.567,-5.5243,-5.4611,-5.3813,-5.3813,-5.3813,-5.3813,-5.359,-5.3181,0.0,0.0,0.0,0.0,0.0,0.0,0.0,0.0,0.0,0.0,0.0,0.0,0.0,0.0,0.0,0.0,0.0,0.0,0.0,0.0,0.0,0.0,0.0,0.0,0.0,0.0,0.0,0.0,-5.3291,-5.3272,-5.3203,-5.3203,-5.3203,-5.3203,-5.2897,-5.2886,-5.3192,-5.3192,-5.3172,-5.3142,-5.318,-5.3642,-5.443,-5.4171,-5.4479,-5.5236,-5.4895,-5.4746,-5.4746,-5.4746,-5.4746,-5.4746,-5.4746,-5.4578,-5.4337,-5.4337,-5.4165,-5.3943,-5.3943,-5.3943,-5.3943,-5.3943,-5.3943,-5.3943,-5.3943,-5.4463,-5.4927,-5.4147,-5.4481,-5.489,-5.4073,-5.3868,-5.385,-5.3813,-5.3813,-5.3813,-5.3813,-5.3813,-5.3813,-5.3813,-5.3813,-5.3813,-5.3813,-5.3813,-5.3813,-5.3813,-5.3813,-5.3813,-5.3813,-5.3813,-5.3813,-5.3813,-5.3813,-5.3813,-5.3813,-5.3813,-5.3813,-5.3813,-5.385,-5.3887,-5.3943,-5.463,-5.4667,-5.3943,-5.463,-5.4611,-5.3813,-5.3813,-5.3813,-5.3775,-5.3032,-5.2642,0.0,0.0,0.0,0.0,0.0,0.0,0.0,0.0,0.0,0.0,0.0,0.0,0.0,0.0,0.0,0.0,0.0,0.0,0.0,0.0,0.0,0.0,0.0,0.0,0.0,0.0,0.0,0.0,0.0,-5.1616,-5.1587,-5.1606,-5.1606,-5.1606,-5.1467,-5.1467,-5.1587,-5.1606,-5.1606,-5.1606,-5.2125,-5.2519,-5.2846,-5.3292,-5.3958,-5.4783,-5.4652,-5.4682,-5.4791,-5.4791,-5.4791,-5.4791,-5.4791,-5.4591,-5.4315,-5.4315,-5.4089,-5.3813,-5.3813,-5.3813,-5.3813,-5.3813,-5.3813,-5.3813,-5.3813,-5.3998,-5.4184,-5.3887,-5.4017,-5.4166,-5.3868,-5.3813,-5.3813,-5.3813,-5.3813,-5.3813,-5.3813,-5.3813,-5.3813,-5.3813,-5.3813,-5.3813,-5.3813,-5.3813,-5.3813,-5.3813,-5.3813,-5.3813,-5.3813,-5.3813,-5.3813,-5.3813,-5.3813,-5.3813,-5.3813,-5.3813,-5.3813,-5.3813,-5.4296,-5.4574,-5.4574,-5.5391,-5.5447,-5.4593,-5.4853,-5.4611,-5.3813,-5.3813,-5.3813,-5.3775,-5.2977,-5.2327,0.0,0.0,0.0,0.0,0.0,0.0,0.0,0.0,0.0,0.0,0.0,0.0,0.0,0.0,0.0,0.0,0.0,0.0,0.0,0.0,0.0,0.0,0.0,0.0,0.0,0.0,0.0,0.0,0.0,0.0,-5.0693,-5.0712,-5.0712,-5.0712,-5.0712,-5.0712,-5.0712,-5.0712,-5.0712,-5.0712,-5.1241,-5.1635,-5.1923,-5.25,-5.3241,-5.4087,-5.4376,-5.4737,-5.5105,-5.5105,-5.5105,-5.5105,-5.5105,-5.4847,-5.4479,-5.4588,-5.4279,-5.3832,-5.3926,-5.3889,-5.3813,-5.3813,-5.3813,-5.3813,-5.3813,-5.3813,-5.3813,-5.3813,-5.3813,-5.3813,-5.3813,-5.3813,-5.3813,-5.3813,-5.3813,-5.3813,-5.3813,-5.3813,-5.3813,-5.3813,-5.3813,-5.3813,-5.3813,-5.3813,-5.3813,-5.3813,-5.3813,-5.3813,-5.3813,-5.3813,-5.3813,-5.3813,-5.3813,-5.3813,-5.3813,-5.3813,-5.3813,-5.3813,-5.4314,-5.4611,-5.4611,-5.541,-5.5466,-5.4611,-5.4871,-5.4611,-5.3813,-5.3813,-5.3813,-5.3775,-5.2698,-5.1602,0.0,0.0,0.0,0.0,0.0,0.0,0.0,0.0,0.0,0.0,0.0,0.0,0.0,0.0,0.0,0.0,0.0,0.0,0.0,0.0,0.0,0.0,0.0,0.0,0.0,0.0,0.0,0.0,-5.0747,-5.0776,-5.0693,-5.0693,-5.0693,-5.0693,-5.0693,-5.0693,-5.0693,-5.0693,-5.0693,-5.0712,-5.0712,-5.1106,-5.1865,-5.1865,-5.2327,-5.3222,-5.4068,-5.4876,-5.5626,-5.5684,-5.5703,-5.5703,-5.5703,-5.5345,-5.4851,-5.5178,-5.4666,-5.3889,-5.4194,-5.4107,-5.3832,-5.3832,-5.3832,-5.3832,-5.3832,-5.3832,-5.3832,-5.3813,-5.3813,-5.3813,-5.3794,-5.3813,-5.3813,-5.3813,-5.3813,-5.3813,-5.3813,-5.3813,-5.3813,-5.3813,-5.3813,-5.3813,-5.3813,-5.3813,-5.3813,-5.3813,-5.3813,-5.3813,-5.3813,-5.3813,-5.3813,-5.3813,-5.3813,-5.3813,-5.3813,-5.3813,-5.3813,-5.3813,-5.3813,-5.3813,-5.3813,-5.4574,-5.463,-5.3831,-5.4593,-5.4611,-5.3813,-5.3813,-5.3813,-5.3775,-5.2159,-5.0506,-2.7374,0.0,0.0,0.0,0.0,0.0,0.0,0.0,0.0,0.0,0.0,0.0,0.0,0.0,0.0,0.0,0.0,0.0,0.0,0.0,0.0,0.0,0.0,0.0,0.0,0.0,0.0,0.0,-5.0793,-5.0775,-5.0702,-5.0712,-5.0702,-5.0702,-5.0702,-5.0702,-5.0702,-5.0702,-5.0702,-5.0712,-5.0712,-5.0827,-5.1029,-5.1029,-5.1471,-5.2269,-5.25,-5.3106,-5.3991,-5.5203,-5.5703,-5.5703,-5.5703,-5.5485,-5.5164,-5.5275,-5.4966,-5.4544,-5.4639,-5.4607,-5.4528,-5.4528,-5.4528,-5.4528,-5.4528,-5.4528,-5.4479,-5.4229,-5.4159,-5.4107,-5.387,-5.3813,-5.3813,-5.3813,-5.3813,-5.3813,-5.3813,-5.3813,-5.3813,-5.3813,-5.3813,-5.3813,-5.3813,-5.3813,-5.3813,-5.3813,-5.3813,-5.3813,-5.3813,-5.3813,-5.3813,-5.3813,-5.3813,-5.3813,-5.3813,-5.3813,-5.3813,-5.3813,-5.3813,-5.3813,-5.3813,-5.4574,-5.463,-5.3831,-5.4593,-5.4611,-5.3813,-5.3813,-5.3813,-5.3775,-5.2159,-5.0506,0.0,0.0,0.0,0.0,0.0,0.0,0.0,-3.622,0.0,0.0,0.0,0.0,0.0,0.0,0.0,0.0,0.0,0.0,0.0,0.0,0.0,0.0,0.0,0.0,0.0,-4.9861,-4.9826,-4.9765,-4.9765,-4.9894,-5.0189,-5.02,-5.0345,-5.0701,-5.0701,-5.0711,-5.0692,-5.0711,-5.0702,-5.0702,-5.0721,-5.073,-5.073,-5.073,-5.0991,-5.1424,-5.179,-5.2222,-5.275,-5.4107,-5.4876,-5.5222,-5.5568,-5.5539,-5.5314,-5.5425,-5.5172,-5.4821,-5.4952,-5.4909,-5.4791,-5.4791,-5.4791,-5.4791,-5.4791,-5.4791,-5.4761,-5.456,-5.4511,-5.4463,-5.4281,-5.4212,-5.4212,-5.4212,-5.4212,-5.4177,-5.4035,-5.4125,-5.4124,-5.3851,-5.3813,-5.3813,-5.3813,-5.3813,-5.3813,-5.3813,-5.3813,-5.3813,-5.3813,-5.3813,-5.3813,-5.3813,-5.3813,-5.3813,-5.3813,-5.3813,-5.3813,-5.3813,-5.3813,-5.3813,-5.3813,-5.4258,-5.4296,-5.3813,-5.4258,-5.4277,-5.3813,-5.3813,-5.346,-5.2772,-5.1454,-5.0153,0.0,0.0,0.0,0.0,0.0,0.0,-3.6537,-3.6421,0.0,0.0,0.0,0.0,0.0,0.0,0.0,0.0,0.0,0.0,0.0,0.0,0.0,0.0,0.0,0.0,-4.8392,-4.8392,-4.8377,-4.8327,-4.83,-4.8604,-4.9326,-4.9376,-4.9686,-5.0411,-5.0421,-5.048,-5.0568,-5.0567,-5.0615,-5.0692,-5.0766,-5.0793,-5.0793,-5.0801,-5.0775,-5.0749,-5.1539,-5.1838,-5.1847,-5.2713,-5.3636,-5.4568,-5.528,-5.5485,-5.5376,-5.5607,-5.5369,-5.4938,-5.523,-5.5151,-5.4909,-5.4909,-5.4909,-5.4909,-5.4909,-5.4909,-5.4895,-5.4866,-5.4821,-5.4791,-5.4791,-5.4791,-5.4791,-5.4791,-5.4791,-5.4716,-5.4413,-5.4591,-5.4623,-5.4036,-5.3907,-5.3907,-5.3907,-5.3889,-5.3851,-5.3851,-5.3813,-5.3813,-5.3813,-5.3813,-5.3813,-5.3813,-5.3813,-5.3813,-5.3813,-5.3813,-5.3813,-5.3813,-5.3813,-5.3813,-5.3813,-5.3813,-5.3813,-5.3813,-5.3813,-5.3813,-5.3813,-5.3813,-5.2977,-5.1379,-5.0618,-4.9763,0.0,0.0,0.0,0.0,0.0,0.0,-3.2752,-3.3009,0.0,0.0,0.0,0.0,0.0,0.0,0.0,0.0,0.0,0.0,0.0,0.0,0.0,0.0,0.0,0.0,-4.8333,-4.8392,-4.8392,-4.8384,-4.8334,-4.8369,-4.8535,-4.8533,-4.8602,-4.877,-4.8775,-4.9078,-4.9735,-4.9728,-5.0066,-5.0702,-5.0711,-5.072,-5.072,-5.0784,-5.0793,-5.0784,-5.0957,-5.1026,-5.1074,-5.1952,-5.3176,-5.4511,-5.4664,-5.5105,-5.5629,-5.5673,-5.5629,-5.5531,-5.5607,-5.5585,-5.5531,-5.5531,-5.5531,-5.5531,-5.5531,-5.5531,-5.5485,-5.5256,-5.5014,-5.4791,-5.4791,-5.4791,-5.4791,-5.4791,-5.4791,-5.4776,-5.4716,-5.4746,-5.4761,-5.4639,-5.4607,-5.4607,-5.4607,-5.438,-5.4194,-5.4194,-5.3981,-5.3813,-5.3813,-5.3813,-5.3813,-5.3813,-5.3813,-5.3813,-5.3813,-5.3813,-5.3813,-5.3813,-5.3813,-5.3813,-5.3813,-5.3813,-5.3813,-5.3813,-5.3813,-5.3813,-5.3813,-5.3813,-5.2977,-5.1398,-5.1231,-5.0339,0.0,0.0,0.0,-3.6424,0.0,0.0,0.0,0.0,0.0,0.0,0.0,0.0,0.0,0.0,0.0,0.0,0.0,0.0,0.0,0.0,0.0,0.0,0.0,0.0,-4.7057,-4.7096,-4.7096,-4.7096,-4.7062,-4.724,-4.7685,-4.7701,-4.7886,-4.8292,-4.8295,-4.8483,-4.8894,-4.8902,-4.9318,-5.014,-5.0184,-5.0413,-5.0808,-5.0833,-5.0852,-5.0846,-5.0846,-5.0838,-5.084,-5.1275,-5.2193,-5.3388,-5.4226,-5.4804,-5.5199,-5.5602,-5.5766,-5.5796,-5.5724,-5.5745,-5.5776,-5.5756,-5.5766,-5.5806,-5.5806,-5.5785,-5.5724,-5.5596,-5.5406,-5.525,-5.525,-5.525,-5.525,-5.525,-5.525,-5.5211,-5.5083,-5.5145,-5.5211,-5.5083,-5.5159,-5.5159,-5.4851,-5.467,-5.4544,-5.4544,-5.4397,-5.4315,-5.4315,-5.4142,-5.4054,-5.4054,-5.3907,-5.3813,-5.3813,-5.3813,-5.3813,-5.3813,-5.3813,-5.3813,-5.3813,-5.3813,-5.3813,-5.3813,-5.3813,-5.3813,-5.3813,-5.3813,-5.2977,-5.1398,-5.0952,-5.0098,0.0,0.0,0.0,0.0,0.0,-3.7489,0.0,0.0,0.0,0.0,0.0,0.0,0.0,0.0,0.0,0.0,0.0,0.0,0.0,0.0,0.0,0.0,0.0,0.0,-4.5548,-4.5265,-4.5265,-4.5768,-4.5362,-4.5594,-4.6786,-4.6844,-4.7139,-4.7805,-4.7817,-4.7909,-4.8081,-4.8055,-4.8496,-4.9346,-4.9579,-5.002,-5.0658,-5.0821,-5.0901,-5.0888,-5.0888,-5.0872,-5.0827,-5.0827,-5.1224,-5.2026,-5.3705,-5.4448,-5.468,-5.5509,-5.5846,-5.5875,-5.5766,-5.5816,-5.5895,-5.5836,-5.5865,-5.5895,-5.5895,-5.5856,-5.5826,-5.5826,-5.5776,-5.5735,-5.5735,-5.5735,-5.5724,-5.5724,-5.5714,-5.564,-5.5425,-5.5551,-5.5629,-5.5413,-5.5562,-5.5543,-5.5064,-5.4938,-5.4895,-5.4895,-5.4836,-5.4791,-5.4791,-5.456,-5.4397,-5.4397,-5.4142,-5.4,-5.4,-5.4,-5.3963,-5.3907,-5.3907,-5.387,-5.3794,-5.3813,-5.3813,-5.3813,-5.3813,-5.3813,-5.3813,-5.3813,-5.2977,-5.1379,-5.0692,-4.9837,0.0,0.0,0.0,0.0,-4.1875,0.0,0.0,0.0,0.0,0.0,0.0,0.0,0.0,0.0,0.0,0.0,0.0,0.0,0.0,0.0,0.0,0.0,0.0,0.0,0.0,-4.3343,-4.3363,-4.5633,-4.3711,-4.346,-4.5826,-4.5962,-4.5993,-4.609,-4.6073,-4.6457,-4.7233,-4.7182,-4.759,-4.8458,-4.9241,-4.9652,-4.9768,-5.0554,-5.0898,-5.089,-5.089,-5.089,-5.089,-5.089,-5.094,-5.1203,-5.2815,-5.3889,-5.4612,-5.5548,-5.5865,-5.5826,-5.5856,-5.5885,-5.5895,-5.5895,-5.5895,-5.5895,-5.5895,-5.5895,-5.5895,-5.5895,-5.5885,-5.5885,-5.5885,-5.5836,-5.5787,-5.5787,-5.5745,-5.5684,-5.5651,-5.5692,-5.5703,-5.5651,-5.5692,-5.5673,-5.5618,-5.5401,-5.523,-5.523,-5.4981,-5.4791,-5.4791,-5.4761,-5.4746,-5.4746,-5.4716,-5.4685,-5.4685,-5.4685,-5.456,-5.4264,-5.4246,-5.4107,-5.3813,-5.3813,-5.3813,-5.3813,-5.3813,-5.3813,-5.3813,-5.3813,-5.2977,-5.1398,-5.1305,-5.0413,0.0,0.0,0.0,0.0,0.0,0.0,-3.7851,0.0,-3.5918,0.0,0.0,0.0,0.0,0.0,0.0,0.0,0.0,0.0,0.0,0.0,0.0,0.0,0.0,0.0,0.0,0.0,0.0,0.0,-4.2899,-4.2918,-4.4987,-4.5548,-4.5807,-4.5807,-4.5812,-4.5972,-4.6339,-4.6317,-4.6735,-4.7604,-4.8497,-4.9181,-4.9684,-5.0523,-5.0898,-5.0898,-5.0898,-5.0898,-5.0898,-5.0898,-5.0898,-5.1014,-5.22,-5.287,-5.3326,-5.4688,-5.5218,-5.5276,-5.5741,-5.5933,-5.5962,-5.5962,-5.5962,-5.5971,-5.596,-5.5971,-5.5962,-5.5962,-5.5905,-5.5836,-5.5836,-5.5787,-5.5745,-5.5745,-5.5724,-5.5703,-5.5703,-5.5703,-5.5703,-5.5703,-5.5703,-5.5703,-5.5703,-5.5607,-5.552,-5.552,-5.5406,-5.5313,-5.5313,-5.5191,-5.5097,-5.5097,-5.4909,-5.4791,-5.4791,-5.4791,-5.4746,-5.4607,-5.4397,-5.4142,-5.3813,-5.3813,-5.3813,-5.3813,-5.3813,-5.3813,-5.3813,-5.3813,-5.2977,-5.1398,-5.1398,-5.0506,-4.4707,0.0,0.0,0.0,0.0,0.0,0.0,0.0,0.0,0.0,0.0,0.0,0.0,0.0,0.0,0.0,0.0,0.0,0.0,0.0,0.0,0.0,0.0,0.0,0.0,0.0,0.0,0.0,0.0,-4.1777,-4.4458,-4.5142,-4.5568,-4.5787,-4.5807,-4.5807,-4.5807,-4.5807,-4.6116,-4.6748,-4.7637,-4.8508,-4.9378,-5.0202,-5.0685,-5.0898,-5.0898,-5.0898,-5.0898,-5.0898,-5.0898,-5.0956,-5.1602,-5.1834,-5.2086,-5.4016,-5.4759,-5.4884,-5.5652,-5.5961,-5.5998,-5.5998,-5.5998,-5.5998,-5.5995,-5.6005,-5.5998,-5.5998,-5.5923,-5.5856,-5.5856,-5.5817,-5.5776,-5.5776,-5.5756,-5.5735,-5.5735,-5.5714,-5.5703,-5.5703,-5.5703,-5.5703,-5.5703,-5.5703,-5.5703,-5.5703,-5.5703,-5.5703,-5.5703,-5.5539,-5.5401,-5.5401,-5.5185,-5.505,-5.505,-5.505,-5.5023,-5.4938,-5.4623,-5.4332,-5.4089,-5.4072,-5.4072,-5.4072,-5.3981,-5.3926,-5.3926,-5.3851,-5.2977,-5.1398,-5.1398,-5.0506,0.0,0.0,0.0,-4.25,0.0,0.0,0.0,0.0,-3.8262,0.0,0.0,0.0,0.0,0.0,0.0,0.0,0.0,0.0,0.0,0.0,0.0,0.0,0.0,0.0,0.0,0.0,0.0,0.0,-3.8508,-3.9282,-4.4323,-4.4613,-4.5007,-4.5787,-4.5807,-4.5807,-4.5807,-4.5807,-4.5807,-4.5845,-4.6728,-4.7599,-4.8469,-4.9339,-5.0171,-5.0898,-5.0898,-5.0898,-5.0898,-5.0898,-5.0898,-5.0898,-5.0937,-5.0937,-5.1246,-5.3846,-5.4759,-5.483,-5.5696,-5.6003,-5.6003,-5.6003,-5.6003,-5.6003,-5.6003,-5.6003,-5.6003,-5.6003,-5.6003,-5.5984,-5.5984,-5.5987,-5.599,-5.599,-5.5895,-5.5806,-5.5806,-5.5745,-5.5703,-5.5703,-5.5703,-5.5703,-5.5703,-5.5703,-5.5703,-5.5703,-5.5703,-5.5703,-5.5703,-5.5684,-5.5692,-5.5692,-5.5692,-5.5662,-5.5662,-5.5662,-5.5573,-5.5301,-5.4966,-5.4776,-5.4761,-5.4761,-5.4761,-5.4761,-5.4446,-5.4279,-5.4279,-5.3963,-5.2977,-5.1398,-5.1398,-5.0506,-4.8183,0.0,-4.8789,-4.4726,0.0,0.0,0.0,0.0,0.0,0.0,0.0,0.0,0.0,0.0,0.0,0.0,0.0,0.0,0.0,0.0,0.0,0.0,0.0,0.0,0.0,0.0,0.0,0.0,-3.7415,0.0,-4.2667,-4.3982,-4.471,-4.5007,-4.551,-4.5807,-4.5807,-4.5807,-4.5807,-4.5807,-4.667,-4.756,-4.843,-4.9301,-5.0152,-5.0898,-5.0898,-5.0898,-5.0898,-5.0898,-5.0898,-5.0898,-5.0898,-5.0898,-5.1149,-5.3188,-5.3934,-5.4111,-5.5504,-5.5998,-5.5998,-5.5998,-5.5998,-5.6007,-5.5995,-5.6012,-5.6012,-5.6012,-5.6005,-5.5998,-5.5998,-5.5961,-5.5924,-5.5924,-5.5895,-5.5875,-5.5875,-5.5846,-5.5826,-5.5826,-5.5826,-5.5816,-5.5766,-5.5766,-5.5756,-5.5714,-5.5703,-5.5703,-5.5703,-5.5703,-5.5703,-5.5703,-5.5703,-5.5703,-5.5703,-5.5703,-5.5585,-5.5314,-5.5191,-5.5023,-5.4806,-5.4791,-5.4791,-5.4791,-5.4685,-5.4639,-5.4639,-5.4511,-5.3615,-5.2011,-5.2011,-5.089,-4.9062,-4.9531,-4.9433,-4.6269,-4.5039,0.0,-4.0293,0.0,-4.084,0.0,0.0,0.0,0.0,0.0,0.0,0.0,0.0,0.0,0.0,0.0,0.0,0.0,0.0,0.0,0.0,0.0,-3.3495,-3.6329,-3.622,0.0,0.0,-4.3208,-4.4284,-4.4594,-4.5374,-4.5807,-4.5807,-4.5807,-4.5807,-4.5807,-4.6368,-4.7096,-4.7966,-4.8836,-4.9687,-5.0492,-5.0782,-5.0898,-5.0898,-5.0898,-5.0898,-5.0898,-5.0898,-5.0898,-5.1111,-5.2859,-5.3884,-5.4534,-5.5629,-5.5998,-5.5998,-5.5998,-5.5998,-5.6007,-5.5995,-5.6012,-5.6012,-5.6012,-5.6005,-5.5998,-5.5998,-5.598,-5.5933,-5.5933,-5.5943,-5.5943,-5.5943,-5.5914,-5.5895,-5.5895,-5.5895,-5.5885,-5.5836,-5.5836,-5.5797,-5.5714,-5.5703,-5.5703,-5.5703,-5.5703,-5.5703,-5.5703,-5.5703,-5.5703,-5.5703,-5.5703,-5.5629,-5.5449,-5.5437,-5.5364,-5.5132,-5.5132,-5.5132,-5.5132,-5.5023,-5.4966,-5.4966,-5.4851,-5.4105,-5.2755,-5.2452,-5.1363]},{"header":{"parameterUnit":"m.s-1","parameterCategory":1,"la1":30.6,"la2":29.2853,"lo1":-89.7004,"lo2":-87.6739,"dy":0.0162,"dx":0.0183,"nx":112,"ny":82,"refTime":"2025-05-20T18:00:00:Z","depth":0,"parameterNumber":3,"parameterNumberName":"V-component_of_WINDS"},"data":[0.0,0.0,0.0,0.0,0.0,0.0,0.0,0.0,0.0,0.0,0.0,0.0,0.0,0.0,0.0,0.0,0.0,0.0,0.0,0.0,0.0,0.0,0.0,0.0,0.0,0.0,0.0,0.0,0.0,0.0,0.0,0.0,0.0,0.0,0.0,0.0,0.0,0.0,0.0,0.0,0.0,0.0,0.0,0.0,0.0,0.0,0.0,0.0,0.0,0.0,0.0,0.0,0.0,0.0,0.0,0.0,0.0,0.0,0.0,0.0,0.0,0.0,0.0,0.0,0.0,0.0,0.0,0.0,0.0,0.0,0.0,0.0,0.0,0.0,0.0,0.0,0.0,0.0,0.0,0.0,0.0,0.0,0.0,0.0,0.0,0.0,0.0,0.0,0.0,0.0,0.0,-1.7293,-1.9412,-2.0616,-2.053,-1.9769,-1.8265,-1.5845,0.0,0.0,0.0,0.0,0.0,0.0,0.0,0.0,0.0,0.0,0.0,0.0,0.0,0.0,0.0,0.0,0.0,0.0,0.0,0.0,0.0,0.0,0.0,0.0,0.0,0.0,0.0,0.0,0.0,0.0,0.0,0.0,0.0,0.0,0.0,0.0,0.0,0.0,0.0,0.0,0.0,0.0,0.0,0.0,0.0,0.0,0.0,0.0,0.0,0.0,0.0,0.0,0.0,0.0,0.0,0.0,0.0,0.0,0.0,0.0,0.0,0.0,0.0,0.0,0.0,0.0,0.0,0.0,0.0,0.0,0.0,0.0,0.0,0.0,0.0,0.0,0.0,0.0,0.0,0.0,0.0,0.0,0.0,0.0,0.0,0.0,0.0,0.0,0.0,0.0,0.0,0.0,0.0,0.0,0.0,0.0,0.0,0.0,0.0,0.0,0.0,0.0,0.0,0.0,-1.6349,-1.9622,-2.0872,-2.1229,-2.0576,-1.9769,-1.8265,-1.5845,0.0,0.0,0.0,0.0,0.0,0.0,0.0,0.0,0.0,0.0,0.0,0.0,0.0,0.0,0.0,0.0,0.0,0.0,0.0,0.0,0.0,0.0,0.0,0.0,0.0,0.0,0.0,0.0,0.0,0.0,0.0,0.0,0.0,0.0,0.0,0.0,0.0,0.0,0.0,0.0,0.0,0.0,0.0,0.0,0.0,0.0,0.0,0.0,0.0,0.0,0.0,0.0,0.0,0.0,0.0,0.0,0.0,0.0,0.0,0.0,0.0,0.0,0.0,0.0,0.0,0.0,0.0,0.0,0.0,0.0,0.0,0.0,0.0,0.0,0.0,0.0,0.0,0.0,0.0,0.0,0.0,0.0,0.0,0.0,0.0,0.0,0.0,0.0,0.0,0.0,0.0,0.0,0.0,0.0,0.0,0.0,0.0,0.0,0.0,0.0,0.0,0.0,0.0,-1.5826,-1.7541,-2.0521,-2.133,-2.1449,-2.0888,-2.0108,-1.8614,-1.6184,-1.5239,0.0,0.0,0.0,0.0,0.0,0.0,0.0,0.0,0.0,0.0,0.0,0.0,0.0,0.0,0.0,0.0,0.0,0.0,0.0,0.0,0.0,0.0,0.0,0.0,0.0,0.0,0.0,0.0,0.0,0.0,0.0,0.0,0.0,0.0,0.0,0.0,0.0,0.0,0.0,0.0,0.0,0.0,0.0,0.0,0.0,0.0,0.0,0.0,0.0,0.0,0.0,0.0,0.0,0.0,0.0,0.0,0.0,0.0,0.0,0.0,0.0,0.0,0.0,0.0,0.0,0.0,0.0,0.0,0.0,0.0,0.0,0.0,0.0,0.0,0.0,0.0,0.0,0.0,0.0,0.0,0.0,0.0,0.0,0.0,0.0,0.0,0.0,0.0,0.0,0.0,0.0,0.0,0.0,0.0,0.0,0.0,0.0,0.0,0.0,0.0,0.0,0.0,-1.777,-1.8889,-2.1025,-2.1504,-2.1522,-2.1145,-2.0085,-1.8557,-1.6416,-1.4818,0.0,0.0,0.0,0.0,0.0,0.0,0.0,0.0,0.0,0.0,0.0,0.0,0.0,0.0,0.0,0.0,0.0,0.0,0.0,0.0,0.0,0.0,0.0,0.0,0.0,0.0,0.0,0.0,0.0,0.0,0.0,0.0,0.0,0.0,0.0,0.0,0.0,0.0,0.0,0.0,0.0,0.0,0.0,0.0,0.0,0.0,0.0,0.0,0.0,0.0,0.0,0.0,0.0,0.0,0.0,0.0,0.0,0.0,0.0,0.0,0.0,0.0,0.0,0.0,0.0,0.0,0.0,0.0,0.0,0.0,0.0,0.0,0.0,0.0,0.0,0.0,0.0,0.0,0.0,0.0,0.0,0.0,0.0,0.0,0.0,0.0,0.0,0.0,0.0,0.0,0.0,0.0,0.0,0.0,0.0,0.0,0.0,0.0,0.0,0.0,0.0,0.0,-1.8557,-2.0214,-2.1513,-2.1678,-2.1522,-2.1145,-1.9317,-1.7661,-1.6361,-1.3754,0.0,0.0,0.0,0.0,0.0,0.0,0.0,0.0,0.0,0.0,0.0,0.0,0.0,0.0,0.0,0.0,0.0,0.0,0.0,0.0,0.0,0.0,0.0,0.0,0.0,0.0,0.0,0.0,0.0,0.0,0.0,0.0,0.0,0.0,0.0,0.0,0.0,0.0,0.0,0.0,0.0,0.0,0.0,0.0,0.0,0.0,0.0,0.0,0.0,0.0,0.0,0.0,0.0,0.0,0.0,0.0,0.0,0.0,0.0,0.0,0.0,0.0,0.0,0.0,0.0,0.0,0.0,0.0,0.0,0.0,0.0,0.0,0.0,0.0,0.0,0.0,0.0,0.0,0.0,0.0,0.0,0.0,0.0,0.0,0.0,0.0,0.0,0.0,0.0,0.0,0.0,0.0,0.0,0.0,0.0,0.0,0.0,0.0,0.0,0.0,0.0,0.0,-1.8238,-1.9793,0.0,-2.1696,-2.1632,-2.1511,-2.0076,-1.8475,-1.6789,0.0,0.0,0.0,0.0,0.0,0.0,0.0,0.0,0.0,0.0,0.0,0.0,0.0,0.0,0.0,0.0,0.0,0.0,0.0,0.0,0.0,0.0,0.0,0.0,0.0,0.0,0.0,0.0,0.0,0.0,0.0,0.0,0.0,0.0,0.0,0.0,0.0,0.0,0.0,0.0,0.0,0.0,0.0,0.0,0.0,0.0,0.0,0.0,0.0,0.0,0.0,0.0,0.0,0.0,0.0,0.0,0.0,0.0,0.0,0.0,0.0,0.0,0.0,0.0,0.0,0.0,0.0,0.0,0.0,0.0,0.0,0.0,0.0,0.0,0.0,0.0,0.0,0.0,0.0,0.0,0.0,0.0,0.0,0.0,0.0,0.0,0.0,0.0,0.0,0.0,0.0,0.0,0.0,0.0,0.0,0.0,0.0,0.0,0.0,0.0,0.0,0.0,-1.6597,-1.8302,-1.9916,0.0,-2.1696,-2.1696,-2.1696,-2.0232,-1.8621,-1.7009,0.0,0.0,0.0,0.0,0.0,0.0,0.0,0.0,0.0,0.0,0.0,0.0,0.0,0.0,0.0,0.0,0.0,0.0,0.0,0.0,0.0,0.0,0.0,0.0,0.0,0.0,0.0,0.0,0.0,0.0,0.0,0.0,0.0,0.0,0.0,0.0,0.0,0.0,0.0,0.0,0.0,0.0,0.0,0.0,0.0,0.0,0.0,0.0,0.0,0.0,0.0,0.0,0.0,0.0,0.0,0.0,0.0,0.0,0.0,0.0,0.0,0.0,0.0,0.0,0.0,0.0,0.0,0.0,0.0,0.0,0.0,0.0,0.0,0.0,0.0,0.0,0.0,0.0,0.0,0.0,0.0,0.0,0.0,0.0,0.0,0.0,0.0,0.0,0.0,0.0,0.0,0.0,0.0,0.0,0.0,0.0,0.0,0.0,0.0,0.0,0.0,0.0,-1.6697,-1.9017,-2.079,-2.1604,-2.1696,-2.1696,-2.1696,-1.9491,-1.7789,0.0,0.0,0.0,0.0,0.0,0.0,0.0,0.0,0.0,0.0,0.0,0.0,0.0,0.0,0.0,0.0,0.0,0.0,0.0,0.0,0.0,0.0,0.0,0.0,0.0,0.0,0.0,0.0,0.0,0.0,0.0,0.0,0.0,0.0,0.0,0.0,0.0,0.0,0.0,0.0,0.0,0.0,0.0,0.0,0.0,0.0,0.0,0.0,0.0,0.0,0.0,0.0,0.0,0.0,0.0,0.0,0.0,0.0,0.0,0.0,0.0,0.0,0.0,0.0,0.0,0.0,0.0,0.0,0.0,0.0,0.0,0.0,0.0,0.0,0.0,0.0,0.0,0.0,0.0,0.0,0.0,0.0,0.0,0.0,0.0,0.0,0.0,0.0,0.0,0.0,0.0,0.0,0.0,0.0,0.0,0.0,0.0,0.0,0.0,0.0,0.0,0.0,0.0,-1.6697,-1.9017,-2.079,-2.1604,-2.1696,-2.1696,-2.1696,-2.0026,-1.8366,-1.6991,0.0,0.0,0.0,0.0,0.0,0.0,0.0,0.0,0.0,0.0,0.0,0.0,0.0,0.0,0.0,0.0,0.0,0.0,0.0,0.0,0.0,0.0,0.0,0.0,0.0,0.0,0.0,0.0,0.0,0.0,0.0,0.0,0.0,0.0,0.0,0.0,0.0,0.0,0.0,0.0,0.0,0.0,0.0,0.0,0.0,0.0,0.0,0.0,0.0,0.0,0.0,0.0,0.0,0.0,0.0,0.0,0.0,0.0,0.0,0.0,0.0,0.0,0.0,0.0,0.0,0.0,0.0,0.0,0.0,0.0,0.0,0.0,0.0,0.0,0.0,0.0,0.0,0.0,0.0,0.0,0.0,0.0,0.0,0.0,0.0,0.0,0.0,0.0,0.0,0.0,0.0,0.0,0.0,0.0,0.0,0.0,0.0,0.0,0.0,0.0,0.0,0.0,-1.6716,-1.9017,-2.079,-2.1604,-2.1696,-2.1696,-2.1696,-2.0351,-1.8861,-1.7238,0.0,0.0,0.0,0.0,0.0,0.0,0.0,0.0,0.0,0.0,0.0,0.0,0.0,0.0,0.0,0.0,0.0,0.0,0.0,0.0,0.0,0.0,0.0,0.0,0.0,0.0,0.0,0.0,0.0,0.0,0.0,0.0,0.0,0.0,0.0,0.0,0.0,0.0,0.0,0.0,0.0,0.0,0.0,0.0,0.0,0.0,0.0,0.0,0.0,0.0,0.0,0.0,0.0,0.0,0.0,0.0,0.0,0.0,0.0,0.0,0.0,0.0,0.0,0.0,0.0,0.0,0.0,0.0,0.0,0.0,0.0,0.0,0.0,0.0,0.0,0.0,0.0,0.0,0.0,0.0,0.0,0.0,0.0,0.0,0.0,0.0,0.0,0.0,0.0,0.0,0.0,0.0,0.0,0.0,0.0,0.0,0.0,0.0,0.0,0.0,0.0,0.0,-1.6807,-1.9072,-2.0827,-2.1604,-2.1696,-2.1696,-2.1696,-2.058,-1.9216,-1.7651,0.0,0.0,0.0,0.0,0.0,0.0,0.0,0.0,0.0,0.0,0.0,0.0,0.0,0.0,0.0,0.0,0.0,0.0,0.0,0.0,0.0,0.0,0.0,0.0,0.0,0.0,0.0,0.0,0.0,0.0,0.0,0.0,0.0,0.0,0.0,0.0,0.0,0.0,0.0,0.0,0.0,0.0,0.0,0.0,0.0,0.0,0.0,0.0,0.0,0.0,0.0,0.0,0.0,0.0,0.0,0.0,0.0,0.0,0.0,0.0,-1.5487,0.0,0.0,0.0,0.0,0.0,0.0,0.0,0.0,0.0,0.0,0.0,0.0,0.0,0.0,0.0,0.0,0.0,0.0,0.0,0.0,0.0,0.0,0.0,0.0,0.0,0.0,0.0,0.0,0.0,0.0,0.0,0.0,0.0,0.0,0.0,0.0,0.0,0.0,0.0,0.0,0.0,-1.7211,-1.9485,-2.1172,-2.1641,-2.1696,-2.1696,-2.1696,-2.058,-1.9335,-1.8036,-1.6092,0.0,0.0,0.0,0.0,0.0,0.0,0.0,0.0,0.0,0.0,0.0,0.0,0.0,0.0,0.0,0.0,0.0,0.0,0.0,0.0,0.0,0.0,0.0,0.0,0.0,0.0,0.0,0.0,0.0,0.0,0.0,0.0,0.0,0.0,0.0,0.0,0.0,0.0,0.0,0.0,0.0,0.0,0.0,0.0,0.0,0.0,0.0,0.0,0.0,0.0,0.0,0.0,0.0,0.0,0.0,0.0,0.0,0.0,0.0,0.0,-1.6578,0.0,0.0,0.0,0.0,0.0,0.0,0.0,0.0,0.0,0.0,0.0,0.0,0.0,0.0,0.0,0.0,0.0,0.0,0.0,0.0,0.0,0.0,0.0,0.0,0.0,0.0,0.0,0.0,0.0,0.0,0.0,0.0,0.0,0.0,0.0,0.0,0.0,0.0,0.0,0.0,-1.7642,-1.9732,-2.1273,-2.165,-2.1696,-2.1696,-2.1696,-2.0927,-1.998,-1.876,-1.7156,0.0,0.0,0.0,0.0,0.0,0.0,0.0,0.0,0.0,0.0,0.0,0.0,0.0,0.0,0.0,0.0,0.0,0.0,0.0,0.0,0.0,0.0,0.0,0.0,0.0,0.0,0.0,0.0,0.0,0.0,0.0,0.0,0.0,0.0,0.0,0.0,0.0,0.0,0.0,0.0,0.0,0.0,0.0,0.0,0.0,0.0,0.0,0.0,0.0,0.0,0.0,0.0,0.0,-1.9072,-1.9522,-2.0163,-2.0503,-2.0842,-2.1062,-1.9384,-1.8981,-1.9375,-1.7624,0.0,0.0,0.0,0.0,0.0,0.0,0.0,0.0,0.0,0.0,0.0,0.0,0.0,0.0,0.0,0.0,0.0,0.0,0.0,0.0,0.0,0.0,0.0,0.0,-1.8238,-1.8027,-1.6321,0.0,0.0,0.0,0.0,0.0,0.0,0.0,0.0,0.0,0.0,0.0,-1.8136,-2.0017,-2.1346,-2.165,-2.1696,-2.1696,-2.1696,-2.1346,-2.0622,-1.9485,-1.8339,-1.6872,0.0,0.0,0.0,0.0,0.0,0.0,0.0,0.0,0.0,0.0,0.0,0.0,0.0,0.0,0.0,0.0,0.0,0.0,0.0,0.0,0.0,0.0,0.0,0.0,0.0,0.0,0.0,0.0,0.0,0.0,0.0,0.0,-1.0857,-1.1708,0.0,0.0,0.0,0.0,0.0,0.0,0.0,0.0,0.0,0.0,0.0,0.0,0.0,-1.8217,-1.9319,-2.0464,-2.1284,-2.1742,-2.285,-2.3457,-2.3558,-2.3623,-2.3669,-2.3705,-2.3439,0.0,-2.031,-1.9664,0.0,0.0,0.0,0.0,0.0,0.0,0.0,0.0,0.0,0.0,0.0,0.0,0.0,0.0,0.0,0.0,0.0,0.0,0.0,0.0,0.0,0.0,-2.0393,-1.9719,-1.9875,-2.0035,0.0,-1.7688,-1.6221,-1.59,-1.5074,0.0,0.0,0.0,0.0,0.0,0.0,0.0,-1.899,-2.057,-2.1632,-2.1687,-2.1696,-2.1696,-2.1696,-2.1346,-2.075,-1.9857,-1.9036,-1.7963,-1.6642,-1.5148,0.0,0.0,0.0,0.0,0.0,0.0,0.0,0.0,0.0,0.0,0.0,0.0,0.0,0.0,0.0,0.0,0.0,0.0,0.0,0.0,0.0,0.0,0.0,0.0,0.0,0.0,0.0,0.0,0.0,-1.0053,-1.1524,-1.2278,-1.2532,-1.2582,0.0,0.0,0.0,0.0,0.0,0.0,0.0,0.0,0.0,-1.9358,-2.0112,-2.0918,-2.1906,-2.2712,-2.3299,-2.3712,-2.4253,-2.467,-2.4891,-2.4891,-2.4891,-2.4891,-2.4891,-2.4156,-2.2832,-2.1731,-2.0415,-1.9136,0.0,0.0,0.0,0.0,-1.8164,-1.8183,-1.9494,-1.9806,-1.9512,-1.8825,0.0,0.0,0.0,0.0,0.0,0.0,0.0,-1.8246,0.0,0.0,-2.0805,-2.0872,-2.1037,-2.111,-2.0936,-1.9884,-1.8678,0.0,-1.7266,-1.6642,-1.4873,0.0,0.0,0.0,0.0,-1.8614,-1.9833,-2.0964,-2.1696,-2.1696,-2.1696,-2.1696,-2.1696,-2.1522,-2.1174,-2.0631,-1.9842,-1.8914,-1.7963,-1.6376,-1.5038,0.0,0.0,0.0,0.0,0.0,0.0,0.0,0.0,0.0,0.0,0.0,0.0,0.0,0.0,0.0,0.0,0.0,0.0,0.0,0.0,0.0,0.0,0.0,0.0,0.0,0.0,0.0,0.0,-1.1189,-1.2528,-1.3129,-1.4079,-1.4476,0.0,0.0,0.0,0.0,0.0,0.0,-1.8942,-1.9381,-2.0374,-2.1997,-2.2639,-2.3299,-2.3956,-2.4409,-2.4826,-2.5087,-2.5188,-2.5399,-2.5683,-2.5683,-2.5683,-2.5683,-2.5683,-2.5454,-2.4977,-2.3547,-2.23,-2.1183,-2.0512,-1.9774,-1.9271,-2.0168,-2.0296,-2.0301,-2.1879,-2.2245,-2.1851,-2.0955,-2.0451,-1.9952,-1.844,0.0,0.0,0.0,0.0,-1.9262,-2.0378,-2.0882,-2.1257,-2.1861,-2.2007,-2.2007,-2.2007,-2.176,-2.1044,0.0,-1.9191,-1.876,-1.656,0.0,0.0,0.0,0.0,-1.9421,-2.0521,-2.1248,-2.1696,-2.1696,-2.1696,-2.1696,-2.1696,-2.1696,-2.1513,-2.1135,-2.0457,-1.9719,-1.9054,-1.7542,-1.6224,-1.5148,0.0,0.0,0.0,0.0,0.0,0.0,0.0,0.0,0.0,0.0,0.0,0.0,0.0,0.0,0.0,0.0,0.0,0.0,0.0,0.0,0.0,0.0,0.0,0.0,0.0,0.0,0.0,0.0,0.0,-1.5044,-1.6706,0.0,0.0,0.0,0.0,-1.7898,-1.8676,-1.9811,-2.1421,-2.1888,-2.2896,-2.4546,-2.4638,-2.4858,-2.5271,-2.5727,-2.5929,-2.5957,-2.6307,-2.6509,-2.6527,-2.6527,-2.6527,-2.6527,-2.6527,-2.6289,-2.5892,-2.5005,-2.4161,-2.3306,-2.2885,-2.2455,-2.208,-2.2181,-2.219,-2.2199,-2.2702,-2.2867,-2.284,-2.2776,-2.1961,-2.1025,-2.0924,-2.0374,0.0,0.0,-2.1227,-2.1705,-2.2538,-2.2767,-2.2794,-2.284,-2.2849,-2.2849,-2.2849,-2.2831,-2.2437,0.0,-2.0342,-1.9683,-1.9182,0.0,-1.8715,-1.9091,-1.9518,-2.0122,-2.097,-2.1421,-2.1696,-2.1696,-2.1696,-2.1696,-2.1696,-2.1696,-2.1513,-2.1135,-2.0714,-2.0259,-1.9847,-1.8649,-1.7606,-1.6798,-1.4836,0.0,0.0,0.0,0.0,0.0,0.0,0.0,0.0,0.0,0.0,0.0,0.0,0.0,0.0,0.0,0.0,0.0,0.0,0.0,0.0,0.0,0.0,0.0,0.0,0.0,0.0,0.0,0.0,-1.7406,-1.8762,0.0,-1.9256,-1.9586,-2.0099,-2.0735,-2.1293,-2.2199,-2.362,-2.3831,-2.4409,-2.5561,-2.5589,-2.5791,-2.6151,-2.6545,-2.6793,-2.6802,-2.7206,-2.7343,-2.7343,-2.7343,-2.7343,-2.7343,-2.7343,-2.7114,-2.6774,-2.6435,-2.5537,-2.4326,-2.4189,-2.3877,-2.3529,-2.3804,-2.3904,-2.3969,-2.4372,-2.451,-2.4418,-2.3895,-2.3079,-2.2245,-2.2245,-2.2053,-2.1888,-2.2172,-2.2355,-2.2547,-2.2831,-2.2904,-2.2904,-2.2904,-2.2904,-2.2904,-2.2904,-2.2904,-2.2776,-2.2336,-2.1806,-2.1055,-1.9875,-2.0008,-2.0127,-1.9719,-2.0264,-2.0888,-2.1403,-2.1595,-2.1696,-2.1696,-2.1696,-2.1696,-2.1696,-2.1696,-2.1513,-2.1135,-2.0741,-2.0296,-1.9902,-1.8731,-1.7825,-1.7293,-1.5808,-1.4352,0.0,0.0,0.0,0.0,0.0,0.0,0.0,0.0,0.0,0.0,0.0,0.0,0.0,0.0,0.0,0.0,0.0,0.0,0.0,0.0,0.0,0.0,0.0,0.0,0.0,0.0,-1.7847,-1.8715,-2.0397,-2.1385,-2.111,-2.1741,-2.2419,-2.3098,-2.337,-2.4042,-2.5176,-2.5179,-2.5546,-2.6398,-2.6425,-2.6618,-2.6976,-2.7242,-2.737,-2.7436,-2.7702,-2.7822,-2.7822,-2.7822,-2.7822,-2.7822,-2.7822,-2.7675,-2.737,-2.737,-2.6747,-2.5748,-2.5335,-2.5065,-2.4826,-2.4931,-2.4977,-2.5014,-2.5332,-2.5424,-2.5332,-2.479,-2.4198,-2.3718,-2.3718,-2.3718,-2.37,-2.3563,-2.3526,-2.3489,-2.3391,-2.3354,-2.3354,-2.3354,-2.3354,-2.3354,-2.3354,-2.3354,-2.327,-2.3133,-2.2776,-2.2108,-2.09,-2.1129,-2.1291,-2.0598,-2.0946,-2.142,-2.1659,-2.1696,-2.1696,-2.1696,-2.1696,-2.1696,-2.1696,-2.1559,-2.1357,-2.1126,-2.0613,-2.0145,-1.9692,-1.8786,-1.8064,-1.7504,-1.6303,-1.4964,-1.3488,0.0,0.0,0.0,0.0,0.0,0.0,0.0,0.0,0.0,0.0,0.0,0.0,0.0,0.0,0.0,0.0,0.0,0.0,0.0,0.0,0.0,0.0,0.0,-1.3871,-1.6915,-1.9079,-1.8908,-2.1616,-2.3215,-2.2446,-2.3492,-2.4413,-2.4785,-2.4821,-2.5212,-2.6002,-2.6048,-2.6416,-2.7169,-2.7196,-2.7436,-2.7822,-2.7831,-2.784,-2.784,-2.7849,-2.7858,-2.7858,-2.7858,-2.7858,-2.7858,-2.7858,-2.7849,-2.784,-2.784,-2.7831,-2.7702,-2.6526,-2.6058,-2.6002,-2.5617,-2.547,-2.546,-2.546,-2.5451,-2.5442,-2.5442,-2.5433,-2.5424,-2.5424,-2.5424,-2.5341,-2.4913,-2.4803,-2.4702,-2.433,-2.422,-2.422,-2.4211,-2.4202,-2.4202,-2.4202,-2.4202,-2.4082,-2.359,-2.3206,-2.2812,-2.2373,-2.23,-2.2163,-2.1769,-2.1705,0.0,-2.1696,-2.1696,-2.1696,-2.1696,-2.1696,-2.1696,-2.1696,-2.1321,-2.1117,-2.1089,-2.0356,-1.9701,-1.932,-1.8907,-1.8311,-1.7513,-1.6331,-1.517,-1.3994,0.0,0.0,0.0,0.0,0.0,0.0,0.0,0.0,0.0,0.0,0.0,0.0,0.0,0.0,0.0,0.0,0.0,0.0,0.0,0.0,0.0,0.0,-1.5572,-1.6354,-1.8255,-2.004,-2.1333,-2.2983,-2.4134,-2.45,-2.484,-2.5258,-2.5663,-2.569,-2.6039,-2.6857,-2.6839,-2.7133,-2.7647,-2.7666,-2.7711,-2.7822,-2.8067,-2.8223,-2.8223,-2.8507,-2.8645,-2.8645,-2.8645,-2.8645,-2.8645,-2.8645,-2.848,-2.8223,-2.8223,-2.804,-2.7794,-2.7454,-2.7151,-2.6885,-2.6774,-2.6499,-2.6252,-2.6252,-2.6059,-2.5855,-2.5855,-2.5663,-2.5424,-2.5424,-2.5424,-2.5405,-2.5286,-2.5267,-2.5115,-2.4711,-2.4661,-2.4578,-2.4275,-2.4202,-2.4202,-2.4202,-2.4202,-2.4165,-2.4005,-2.3895,-2.3602,-2.2849,-2.2739,-2.2593,-2.2181,-2.2117,0.0,-2.1733,-2.1696,-2.1696,-2.1696,-2.1696,-2.1696,-2.1696,-2.1586,-2.131,-2.0714,-2.0168,-1.9701,-1.932,-1.865,-1.8036,-1.7504,-1.689,-1.6266,0.0,0.0,0.0,0.0,0.0,0.0,0.0,0.0,0.0,0.0,0.0,0.0,0.0,0.0,0.0,0.0,0.0,0.0,0.0,0.0,0.0,0.0,-1.4691,-1.6335,-1.7926,-1.972,-2.1436,-2.3047,-2.4238,-2.5148,-2.5626,-2.5775,-2.5977,-2.6206,-2.6434,-2.6728,-2.7206,-2.7334,-2.7666,-2.8012,-2.8031,-2.8104,-2.8269,-2.8517,-2.8645,-2.8645,-2.8874,-2.8984,-2.8984,-2.8984,-2.8984,-2.8984,-2.8984,-2.8856,-2.8645,-2.8645,-2.8498,0.0,0.0,0.0,0.0,0.0,-2.7169,-2.6839,-2.6839,-2.6564,-2.6278,-2.6278,-2.6068,-2.5876,-2.5876,-2.5876,-2.5892,-2.5718,-2.5672,-2.558,-2.5185,-2.5032,-2.4931,-2.4569,-2.4468,-2.4422,-2.4238,-2.4202,-2.4202,-2.4202,-2.4202,0.0,-2.3538,-2.327,-2.3014,-2.2602,-2.2391,-2.2199,-2.197,-2.1797,-2.1696,-2.1696,-2.1696,-2.1696,-2.1696,-2.1531,0.0,0.0,0.0,-1.9916,-1.9329,-1.854,0.0,0.0,0.0,0.0,0.0,0.0,0.0,0.0,-1.6062,-1.6224,0.0,0.0,0.0,0.0,0.0,0.0,0.0,0.0,0.0,0.0,0.0,0.0,0.0,0.0,0.0,0.0,-1.5534,-1.6477,-1.8788,-2.0937,-2.2715,-2.3894,-2.5194,-2.5977,-2.5853,-2.6354,-2.6601,-2.6482,-2.6957,-2.726,-2.7306,0.0,0.0,0.0,0.0,-2.8627,-2.8975,-2.8984,-2.8984,-2.8984,-2.8984,-2.8984,-2.8984,-2.8984,-2.8984,-2.8984,-2.8984,-2.8984,-2.8984,-2.8984,-2.8984,-2.8911,-2.8132,-2.7895,-2.7886,-2.784,-2.7545,-2.7298,-2.7298,0.0,0.0,-2.6655,-2.6628,-2.6591,-2.6591,-2.6591,-2.6509,-2.6195,-2.6085,-2.5993,-2.5589,-2.5488,-2.5387,-2.4941,-2.4812,-2.4675,-2.4358,-2.4238,-2.4202,-2.4202,-2.4202,-2.4202,-2.4202,-2.3849,-2.3425,-2.3032,-2.2657,-2.2382,-2.2291,-2.197,-2.1742,-2.1696,0.0,0.0,-2.1696,-2.1348,-2.1163,-2.1108,-2.0741,-2.0173,-1.9402,-1.8742,-1.8338,-1.8292,-1.8715,-1.8889,-1.8852,-1.9582,-1.9765,-1.9384,-1.7684,-1.7576,0.0,0.0,0.0,0.0,0.0,0.0,0.0,0.0,0.0,0.0,0.0,0.0,0.0,0.0,0.0,-1.5,-1.6306,-1.7661,-1.8977,-2.0284,-2.1495,-2.2689,-2.472,-2.5756,-2.509,-2.626,-2.666,-2.5682,-2.69,-2.7858,-2.8141,-2.8232,-2.8452,-2.8856,-2.8865,-2.8911,-2.8984,-2.8984,-2.8984,-2.8984,0.0,0.0,-2.8984,-2.8984,-2.8984,-2.8984,-2.8984,-2.8984,-2.8984,-2.8984,-2.8984,-2.8938,-2.8462,-2.8269,-2.8232,-2.795,-2.7776,-2.7711,-2.7711,-2.7445,-2.7068,-2.7068,-2.6848,-2.6591,-2.6591,-2.6591,0.0,-2.649,-2.6463,-2.6371,-2.6002,-2.5901,-2.58,-2.5405,-2.5065,-2.4757,-2.4675,-2.444,-2.4202,-2.4202,-2.4202,-2.4202,-2.4202,-2.4137,-2.3895,-2.3444,-2.3306,-2.3023,-2.2364,-2.2217,-2.2044,-2.1723,-2.1696,-2.1696,-2.1696,-2.1623,-2.1475,-2.1126,-2.0741,-2.0259,-1.9783,-1.993,-1.9866,-1.9546,-1.993,-1.9976,-1.9655,-2.0131,-2.0323,-2.0264,-1.9556,-1.9521,0.0,0.0,0.0,0.0,0.0,0.0,0.0,0.0,0.0,0.0,0.0,-1.1951,-1.2742,0.0,-1.4867,-1.596,-1.6954,-1.7948,-1.8937,-1.9998,-2.113,-2.2332,-2.3648,-2.4633,-2.5074,-2.5223,-2.5639,-2.6521,-2.6885,-2.7495,-2.8321,-2.8581,-2.8783,-2.8975,-2.8984,-2.8984,-2.8984,-2.8984,-2.8984,-2.8984,-2.8984,-2.8984,-2.8984,-2.8984,-2.8984,-2.8984,-2.8984,-2.8984,-2.8984,-2.8984,-2.8984,-2.8966,-2.8764,-2.8691,-2.8663,-2.8452,-2.8251,-2.8077,-2.8077,-2.782,-2.7528,-2.7528,-2.7205,-2.6885,-2.6885,-2.6747,-2.6591,-2.6591,-2.6591,-2.6536,-2.6325,-2.627,-2.6223,-2.5819,-2.5571,-2.5313,-2.4867,-2.4661,-2.4459,-2.4248,-2.4202,-2.4202,-2.4202,-2.4202,-2.4128,-2.3877,-2.3627,-2.3343,-2.294,-2.2529,-2.2199,-2.2007,-2.1806,-2.1696,-2.1696,-2.1696,-2.1604,-2.1394,-2.1044,-2.0723,-2.053,-2.0521,-2.0429,-2.0186,-2.0613,-2.0714,-2.0521,-2.0891,-2.1083,-2.1083,-2.0882,-2.0772,0.0,0.0,0.0,0.0,0.0,0.0,0.0,0.0,-1.1363,-1.185,-1.2409,-1.3124,-1.3987,-1.4791,-1.5749,-1.6977,-1.7523,-1.8035,-1.8761,-1.9801,-2.0779,-2.1714,-2.2744,-2.3682,-2.4603,-2.4187,-2.4779,-2.7026,-2.6513,-2.6737,-2.8088,-2.8199,-2.837,-2.8609,-2.8609,-2.8737,-2.8984,-2.8984,-2.8984,-2.8984,-2.8984,-2.8984,-2.8984,-2.8984,-2.8984,-2.8984,-2.8984,-2.8984,-2.8984,-2.8984,-2.8984,-2.8984,-2.8984,-2.8984,-2.8984,-2.8984,-2.8783,-2.8507,-2.8507,-2.8242,-2.7941,-2.7941,-2.7618,-2.7279,-2.7196,-2.6958,-2.6683,-2.6609,-2.6591,-2.6591,-2.6591,-2.6591,-2.6509,-2.6214,-2.6067,-2.5837,-2.5142,-2.4886,-2.4684,-2.4395,-2.4257,-2.4202,-2.4202,-2.4202,-2.4202,-2.4202,-2.3868,-2.3581,-2.3508,-2.2922,-2.2483,-2.241,-2.2044,-2.1778,-2.1696,-2.1696,-2.1696,-2.1696,-2.142,-2.1227,-2.1227,-2.0924,-2.0717,-2.0717,-2.1071,-2.1227,-2.1227,-2.1522,-2.1696,-2.1696,-2.1696,-2.1513,-0.9787,-1.0009,-1.0364,-1.0864,-1.1021,-1.1437,0.0,0.0,-1.3284,-1.358,-1.4256,-1.4794,-1.493,-1.5605,-1.6392,-1.71,-1.7812,-1.8453,-1.8848,-1.926,-1.9601,-1.971,-2.2613,-2.3907,-2.2195,-2.4167,-2.5386,-2.4998,-2.5105,-2.5725,-2.7073,-2.6078,-2.5973,-2.7203,-2.7203,-2.7813,-2.8984,-2.8984,-2.8984,-2.8984,-2.8984,-2.8984,-2.8984,-2.8984,-2.8984,-2.8984,-2.8984,-2.8984,-2.8984,-2.8984,-2.8984,-2.8984,-2.8984,-2.8984,-2.8984,-2.8984,-2.8957,-2.892,-2.892,-2.8654,-2.8324,-2.8324,-2.804,-2.7693,-2.7288,-2.7141,-2.704,-2.6683,-2.6591,-2.6591,-2.6591,-2.6591,-2.6582,-2.6527,-2.6287,-2.5984,-2.5901,-2.5271,-2.4766,-2.4721,-2.4459,-2.4202,-2.4202,-2.4202,-2.4202,-2.4202,-2.4165,-2.395,-2.3535,-2.3416,-2.3224,-2.2876,-2.2465,-2.2071,-2.1723,-2.1696,-2.1696,-2.1696,-2.165,-2.1623,-2.1623,-2.1577,-2.1559,-2.1559,-2.1595,-2.1623,-2.1623,-2.1668,-2.1696,-2.1696,-2.1696,-2.1668,-1.1158,-1.1363,0.0,0.0,-1.2506,-1.3103,-1.3622,-1.3984,-1.4286,-1.4552,-1.4992,-1.5403,-1.5548,-1.6113,-1.6777,0.0,-1.8112,-1.8566,-1.9094,-1.9292,-1.9424,-1.9424,-2.1345,-2.2505,-2.1987,-2.2335,-2.3164,-2.4741,-2.4232,-2.4432,-2.579,-2.5301,-2.524,-2.579,-2.5851,-2.6095,-2.665,-2.665,-2.7073,-2.7813,-2.7813,-2.8241,-2.8984,-2.8984,-2.8984,-2.8984,-2.8984,-2.8984,-2.8984,-2.8984,-2.8984,-2.8984,-2.8984,-2.8984,-2.8984,-2.8984,-2.8984,-2.8984,-2.8984,-2.8874,-2.8737,-2.8737,-2.8462,-2.8104,-2.7939,-2.7554,-2.7141,-2.6976,-2.6765,-2.6591,-2.6591,-2.6591,-2.6591,-2.6591,-2.6454,-2.6315,-2.6067,-2.5754,-2.5387,-2.4876,-2.4638,-2.4486,-2.4248,-2.4202,-2.4202,-2.4202,-2.4202,-2.4137,-2.3923,-2.3694,-2.3343,-2.295,-2.2529,-2.2217,-2.2053,-2.1824,-2.1696,-2.1696,-2.1696,-2.1696,-2.1696,-2.1696,-2.1696,-2.1696,-2.1696,-2.1696,-2.1696,-2.1696,-2.1696,-2.1696,-2.1696,-2.1696,-1.1866,0.0,0.0,-1.2862,-1.3676,-1.4383,-1.4262,-1.46,-1.4986,-1.5179,-1.5421,-1.566,-1.5876,-1.6317,-1.6961,-1.7834,-1.8228,-1.8622,-1.9287,-1.9381,-1.9401,-1.9379,-2.0162,-2.0931,-2.1467,-2.1011,-2.1736,-2.4263,-2.3263,-2.3076,-2.444,-2.4131,-2.407,-2.444,-2.4502,-2.4625,-2.4994,-2.4994,-2.5485,-2.6468,-2.6831,-2.7504,-2.8489,-2.8797,-2.8984,-2.8984,-2.8984,-2.8984,-2.8984,-2.8984,-2.8984,-2.8984,-2.8984,-2.8984,-2.8984,-2.8984,-2.8984,-2.8984,-2.8984,-2.8984,-2.8984,-2.8984,-2.8792,-2.8535,-2.8425,-2.7985,-2.7462,-2.7242,-2.6976,-2.6729,-2.6619,-2.6591,-2.6591,-2.6591,-2.6591,-2.6509,-2.6251,-2.6094,-2.5846,-2.5216,-2.4931,-2.4735,-2.4431,-2.4284,-2.4202,-2.4202,-2.4202,-2.4202,-2.4202,-2.3895,-2.3508,-2.3114,-2.2794,-2.2574,-2.2465,-2.2089,-2.1851,-2.1851,-2.1751,-2.1696,-2.1696,-2.1696,-2.1696,-2.1696,-2.1696,-2.1696,-2.1696,-2.1696,-2.1696,-2.1696,-2.1696,-2.1696,0.0,0.0,-1.3119,-1.3423,-1.4105,-1.4769,-1.5016,-1.5282,-1.5475,-1.5487,-1.5692,-1.5879,-1.5879,-1.632,-1.6912,-1.7539,-1.8056,-1.8614,-1.9289,-1.9318,-1.9332,-1.9399,-1.9424,-1.9544,0.0,-2.1117,-2.2268,-2.3087,-2.1908,-2.1727,-2.3076,-2.1908,-2.1783,-2.3139,-2.3139,-2.376,-2.4994,-2.4994,-2.4994,-2.5056,-2.6407,-2.7013,-2.7073,-2.843,-2.8984,-2.8984,-2.8984,-2.8984,-2.8984,-2.8984,-2.8984,-2.8984,-2.8984,-2.8984,-2.8984,-2.8984,-2.8984,-2.8984,-2.8984,-2.8984,-2.8984,-2.8984,-2.8975,-2.8893,-2.8517,-2.8379,-2.8196,-2.7398,-2.7169,-2.7068,-2.6692,-2.6591,-2.6591,-2.6591,-2.6591,-2.6582,-2.6573,-2.6306,-2.6002,-2.5984,-2.5307,-2.4776,-2.4766,-2.4477,-2.4202,-2.4202,-2.4202,-2.4202,-2.4202,-2.4192,-2.3978,-2.3526,-2.3462,-2.3306,-2.2922,-2.2501,-2.2263,-2.2263,-2.1906,-2.1696,-2.1696,-2.1696,-2.1696,-2.1696,-2.1696,-2.1696,-2.1696,-2.1696,-2.1696,-2.1696,-2.1696,-2.1696,0.0,0.0,-1.3749,-1.4201,-1.4781,-1.5258,-1.5348,-1.5572,-1.5759,-1.5759,-1.5692,-1.5626,-1.5626,-1.5922,-1.6387,-1.6954,-1.7684,-1.8311,-1.8925,-1.9116,-1.9193,-1.9029,-1.9181,0.0,0.0,0.0,0.0,-2.1458,-2.124,-2.1292,-2.1727,-2.1355,-2.1292,-2.1783,-2.179,-2.1971,-2.2404,-2.2404,-2.2834,-2.3752,-2.5048,-2.6156,-2.7013,-2.7444,-2.8182,-2.8984,-2.8984,-2.8984,-2.8984,-2.8984,-2.8984,-2.8984,-2.8984,-2.8984,-2.8984,-2.8984,-2.8984,-2.8984,-2.8984,-2.8984,-2.8984,-2.8984,-2.8984,-2.8957,-2.8828,-2.8599,-2.8333,-2.8058,-2.7591,-2.7141,-2.7013,-2.6784,-2.6591,-2.6591,-2.6591,-2.6591,-2.6591,-2.6481,-2.6298,-2.6067,-2.58,-2.5451,-2.4876,-2.4666,-2.4532,-2.4248,-2.4202,-2.4202,-2.4202,-2.4202,-2.4146,-2.396,-2.3703,-2.3444,-2.3306,-2.2922,-2.2693,-2.2693,-2.2574,-2.2373,-2.2089,-2.208,-2.1961,-2.1696,-2.1696,-2.1696,-2.1696,-2.1696,-2.1696,-2.1696,-2.1696,-2.1696,0.0,-1.3918,-1.4346,-1.498,-1.539,-1.5662,-1.5759,-1.5837,-1.5861,-1.5771,-1.5614,-1.5469,-1.5372,-1.5572,-1.598,-1.6677,-1.737,-1.8053,-1.8737,-1.9031,-1.9103,-1.8952,-1.9107,-1.9432,0.0,0.0,0.0,-2.0808,-2.1002,-2.1109,-2.1109,-2.1109,-2.1109,-2.1109,-2.1109,-2.1109,-2.1109,-2.1109,-2.179,-2.3139,-2.3938,-2.4986,-2.6277,-2.6277,-2.6771,-2.7564,-2.7564,-2.7564,-2.7633,-2.8062,-2.8301,-2.831,-2.8797,-2.8984,-2.8984,-2.8984,-2.8984,-2.8984,-2.8984,-2.8984,-2.8984,-2.8984,-2.8984,-2.8984,-2.8984,-2.881,-2.8572,-2.8434,-2.7911,-2.7352,-2.7215,-2.6885,-2.6591,-2.6591,-2.6591,-2.6591,-2.6591,-2.6591,-2.6509,-2.6233,-2.6122,-2.5855,-2.5341,-2.4968,-2.4638,-2.4266,-2.4202,-2.4202,-2.4202,-2.4202,-2.4202,-2.4202,-2.3923,-2.3758,-2.3758,-2.3352,-2.3114,-2.3114,-2.2986,-2.2785,-2.2519,-2.2501,-2.2382,-2.2126,-2.2126,-2.2126,-2.2126,-2.2126,-2.2126,-2.2126,-2.2126,-2.2126,-1.3839,-1.437,-1.4962,-1.5734,-1.5922,-1.5976,-1.6223,-1.6066,-1.5795,-1.5529,-1.5457,-1.5354,0.0,0.0,-1.5737,-1.659,-1.7169,-1.7817,-1.863,-1.8969,-1.915,0.0,0.0,0.0,0.0,0.0,0.0,-2.0963,0.0,-2.1046,-2.1046,-2.1046,-2.1109,-2.1109,-2.1109,-2.1109,-2.1109,-2.1109,-2.172,-2.3014,-2.3014,-2.369,-2.4871,-2.4871,-2.4933,-2.4994,-2.4994,-2.4994,-2.5117,-2.6338,-2.6892,-2.7021,-2.837,-2.8925,-2.8916,-2.8984,-2.8984,-2.8984,-2.8984,-2.8984,-2.8984,-2.8984,-2.8984,-2.8984,-2.8984,-2.8984,-2.8902,-2.8526,-2.8122,-2.7767,-2.7372,-2.6912,-2.6619,-2.6591,-2.6591,-2.6591,-2.6591,-2.6591,-2.6591,-2.6591,-2.6306,-2.6012,-2.6012,-2.5378,-2.4666,-2.4293,-2.4238,-2.4229,-2.4211,-2.4202,-2.4202,-2.4202,-2.4202,-2.4202,-2.4202,-2.3794,-2.3526,-2.3526,-2.3178,-2.2959,-2.294,-2.294,-2.2931,-2.2904,-2.2904,-2.2904,-2.2904,-2.2904,-2.2904,-2.2904,-2.2904,-2.2904,-1.4841,-1.5336,-1.5734,-1.6344,-1.6338,-1.6199,-1.6266,-1.5928,-1.5523,-1.5264,-1.4883,-1.4461,0.0,0.0,0.0,-1.5457,-1.6635,0.0,-1.8362,-1.8825,0.0,0.0,0.0,-1.9187,-1.9318,-1.9524,0.0,0.0,-2.0361,-2.0482,-2.0729,-2.0736,-2.0856,-2.1109,-2.1109,-2.1109,-2.1109,-2.1109,-2.1292,-2.1601,-2.1601,-2.2278,-2.3574,-2.3574,-2.4124,-2.4994,-2.4994,-2.4994,-2.5056,-2.5362,-2.5485,-2.5668,-2.7021,-2.7504,-2.7633,-2.8618,-2.8984,-2.8984,-2.8984,-2.8984,-2.8984,-2.8984,-2.8984,-2.8984,-2.8984,-2.8984,-2.8966,-2.8865,-2.8544,-2.8141,-2.7776,-2.7381,-2.6949,-2.6655,-2.6591,-2.6591,-2.6591,-2.6591,-2.6591,-2.6591,-2.6306,-2.6012,-2.6012,-2.5598,-2.5139,-2.4735,-2.467,-2.456,-2.4248,-2.4202,-2.4202,-2.4202,-2.4202,-2.4202,-2.4202,-2.411,-2.3996,-2.3996,-2.3954,-2.3712,-2.3352,-2.3343,-2.3206,-2.2913,-2.2904,-2.2904,-2.2904,-2.2904,-2.2904,-2.2904,-2.2904,-2.2904,-1.5475,-1.5952,-1.6344,-1.6767,-1.6573,-1.6254,-1.6133,-1.5704,-1.5155,-1.4533,-1.4165,0.0,0.0,0.0,0.0,0.0,0.0,0.0,-1.8185,-1.8746,-1.9018,0.0,-1.9039,0.0,-1.9348,-1.9424,-1.9555,0.0,-2.0043,-2.017,-2.0354,-2.0361,-2.0545,-2.0856,-2.0862,-2.0919,-2.1109,-2.1109,-2.1109,-2.1109,-2.1109,-2.1475,-2.2215,-2.2215,-2.2584,-2.327,0.0,-2.327,-2.3333,-2.3946,-2.4186,-2.4309,-2.5607,-2.6095,-2.6216,-2.6952,-2.7633,-2.8122,-2.8122,-2.8489,-2.8984,-2.8984,-2.8984,-2.8984,-2.8984,-2.8984,-2.8984,-2.8984,-2.87,-2.8342,-2.8104,-2.7609,-2.7123,-2.6903,-2.6719,-2.6591,-2.6591,-2.6591,-2.6591,-2.6591,-2.6399,-2.6232,-2.6039,-2.5828,-2.5543,-2.5096,-2.4895,-2.4702,-2.4505,-2.4321,-2.4202,-2.4202,-2.4202,-2.4202,-2.4202,-2.4202,-2.4202,-2.4202,-2.4202,-2.4101,-2.3822,-2.3813,-2.3703,-2.3483,-2.3483,-2.3483,-2.3483,-2.3483,-2.3483,-2.3483,-2.3483,-2.3483,-1.5916,-1.6368,-1.6815,-1.708,-1.6712,-1.6217,-1.5952,-1.5403,-1.4666,-1.367,0.0,0.0,-1.2693,0.0,-1.3851,-1.489,0.0,-1.7074,-1.8143,-1.8716,-1.9036,-1.9072,-1.9078,-1.92,-1.9514,-1.9264,-1.92,-1.9514,-1.9781,-1.9979,-2.0043,-2.0043,-2.0234,-2.0609,-2.0609,-2.0736,-2.1109,-2.1109,-2.1109,-2.1109,-2.1109,-2.1109,-2.1109,-2.1109,-2.1109,-2.1109,-2.1109,-2.1109,-2.1172,-2.2341,-2.2827,-2.2952,-2.4255,-2.4748,-2.4748,-2.4933,-2.5729,-2.671,-2.671,-2.7624,-2.8737,-2.8925,-2.8984,-2.8984,-2.8984,-2.8984,-2.8984,-2.8984,-2.8737,-2.8462,-2.8407,-2.7866,-2.7306,-2.7205,-2.6912,-2.6655,-2.66,-2.6591,-2.6591,-2.6591,-2.6591,-2.6472,-2.6159,-2.6094,-2.5966,-2.5561,-2.5115,-2.484,-2.4785,-2.4468,-2.4202,-2.4202,-2.4202,-2.4202,-2.4202,-2.4202,-2.4202,-2.4202,-2.4202,-2.4202,-2.4202,-2.4202,-2.4202,-2.4202,-2.4202,-2.4202,-2.4202,-2.4202,-2.4202,-2.4202,-2.4202,-2.4202,-1.6423,-1.6785,-1.7086,-1.7346,-1.6857,-1.6235,-1.5952,-1.4968,0.0,0.0,0.0,-1.2427,-1.2113,-1.2856,0.0,-1.4648,0.0,0.0,0.0,0.0,-1.8831,0.0,0.0,0.0,0.0,0.0,0.0,0.0,0.0,-1.9392,-1.9641,-1.9705,-1.9966,-2.0609,-2.0609,-2.0736,-2.1109,-2.1109,-2.1109,-2.1109,-2.1109,-2.1109,-2.1109,-2.1109,-2.1109,-2.1109,-2.1109,0.0,-2.1109,-2.1355,-2.1475,-2.1601,-2.2889,-2.3442,-2.3574,-2.4617,-2.5178,-2.5362,-2.5362,-2.6216,-2.7504,-2.8609,-2.8984,-2.8984,-2.8984,-2.8984,-2.8984,-2.8984,-2.8938,-2.881,-2.848,-2.8287,-2.8012,-2.7334,-2.7123,-2.6985,-2.6655,-2.6591,-2.6591,-2.6591,-2.6591,-2.6564,-2.649,-2.6481,-2.6334,-2.5975,-2.5571,-2.5203,-2.4821,-2.4468,-2.4202,-2.4202,-2.4202,-2.4202,-2.4202,-2.4202,-2.4202,-2.4202,-2.4202,-2.4202,-2.4202,-2.4202,-2.4202,-2.4202,-2.4202,-2.4202,-2.4202,-2.4202,-2.4202,-2.4202,-2.4202,-2.4202,-1.6592,-1.699,-1.7292,-1.728,-1.6785,-1.6115,-1.5433,0.0,0.0,0.0,0.0,-1.1784,-1.1546,0.0,0.0,0.0,0.0,0.0,0.0,0.0,0.0,0.0,0.0,0.0,0.0,0.0,0.0,0.0,0.0,-1.92,-1.9328,-1.9514,-1.9769,-2.0094,-2.0227,-2.0482,-2.0862,-2.0856,-2.0919,-2.1109,-2.1109,-2.1109,-2.1109,-2.1109,-2.1109,-2.1109,-2.1109,-2.1109,-2.1109,-2.1109,-2.1109,-2.1172,-2.1783,-2.2034,-2.2153,-2.2779,-2.3387,-2.4008,-2.4008,-2.4863,-2.6095,-2.671,-2.7383,-2.7942,-2.7942,-2.7444,-2.6892,-2.6892,-2.6892,-2.6858,-2.6679,-2.6483,-2.6236,-2.5811,-2.5494,-2.5288,-2.5593,-2.5688,-2.5852,-2.6473,-2.6591,-2.6591,-2.6591,-2.6591,-2.6518,-2.6316,-2.5993,-2.5663,-2.547,-2.4909,-2.444,-2.422,-2.4202,-2.4202,-2.4202,-2.4202,-2.4202,-2.4202,-2.4202,-2.4202,-2.4202,-2.4202,-2.4202,-2.4202,-2.4202,-2.4202,-2.4202,-2.4202,-2.4202,-2.4202,-2.4202,-2.4202,-1.6337,-1.6908,-1.7418,-1.7159,-1.664,-1.588,-1.4687,-1.3855,0.0,0.0,0.0,-1.1357,-1.1194,0.0,0.0,0.0,0.0,0.0,0.0,0.0,0.0,0.0,0.0,0.0,0.0,0.0,0.0,0.0,0.0,0.0,-1.9078,-1.9328,-1.9514,-1.9577,-1.9845,-2.0164,-2.0482,-2.0482,-2.0609,-2.0862,-2.0862,-2.0862,-2.0862,-2.0862,-2.0862,-2.0919,-2.0982,-2.0982,-2.0982,-2.1046,-2.1109,-2.1109,-2.1109,-2.1109,-2.1109,-2.1109,-2.179,-2.2647,-2.2647,-2.3512,-2.4556,-2.4556,-2.5485,-2.6589,-2.6589,-2.5851,-2.4994,-2.4994,-2.4994,-2.4994,-2.4994,-2.478,-2.4466,-2.4376,-2.3877,-2.3567,-2.4298,-2.4612,-2.5064,-2.6017,-2.6418,-2.6591,-2.6591,-2.6591,-2.6591,-2.6591,-2.6287,-2.6012,-2.6012,-2.5396,-2.4836,-2.4496,-2.4312,-2.4202,-2.4202,-2.4202,-2.4202,-2.4202,-2.4202,-2.4202,-2.4202,-2.4202,-2.4202,-2.4202,-2.4202,-2.4202,-2.4202,-2.4202,-2.4202,-2.4202,-2.4202,-2.4202,-1.5373,-1.6316,-1.7418,-1.7159,-1.6501,-1.5499,-1.3819,0.0,0.0,0.0,-1.0911,-1.1182,-1.1411,0.0,0.0,0.0,0.0,0.0,0.0,0.0,0.0,0.0,0.0,0.0,0.0,0.0,0.0,0.0,0.0,0.0,-1.9078,-1.9142,-1.9264,-1.9577,-1.9641,-1.9839,-2.017,-2.017,-2.017,-2.017,-2.017,-2.017,-2.017,-2.017,-2.017,-2.0234,-2.0482,-2.0672,0.0,-2.0982,-2.1109,-2.1109,-2.1109,-2.1109,-2.1109,-2.1109,-2.1166,-2.1292,-2.1292,-2.2153,-2.3263,-2.3263,-2.4124,-2.5178,-2.5178,-2.5117,-2.4994,-2.4994,-2.4994,-2.4994,-2.4994,-2.497,-2.478,-2.4198,-2.3702,-2.3338,-2.3223,-2.4047,-2.4842,-2.4953,-2.5852,-2.6591,-2.6591,-2.6591,-2.6591,-2.6591,-2.6287,-2.6012,-2.6012,-2.5635,-2.535,-2.5313,-2.4652,-2.4202,-2.4202,-2.4202,-2.4202,-2.4202,-2.4202,-2.4202,-2.4202,-2.4202,-2.4202,-2.4202,-2.4202,-2.4202,-2.4202,-2.4202,-2.4202,-2.4202,-2.4202,-2.4202,-1.4614,-1.5506,-1.6293,-1.6747,-1.6368,-1.5422,-1.3474,0.0,0.0,-1.0702,-1.0429,-1.0547,-1.1143,-1.1465,0.0,0.0,0.0,0.0,0.0,0.0,0.0,0.0,0.0,0.0,0.0,0.0,0.0,0.0,0.0,0.0,-1.9078,-1.9078,-1.9142,-1.9264,-1.9328,-1.9456,-1.9775,-1.9775,-1.9909,-2.0106,-2.0106,-2.0106,-2.0106,-2.0106,-2.0106,-2.0106,-2.0234,-2.0297,0.0,-2.0418,-2.0482,-2.0482,-2.0482,-2.0482,-2.0482,-2.0482,-2.0482,-2.0482,-2.0482,-2.0856,-2.1285,-2.1285,-2.1657,-2.2278,-2.3512,-2.327,-2.2654,-2.2654,-2.2654,-2.2654,-2.2654,-2.2654,-2.2496,-2.1857,-2.1613,-2.156,-2.185,-2.2297,-2.303,-2.4501,-2.5174,-2.5743,-2.6473,-2.6591,-2.6591,-2.6591,-2.6444,-2.6334,-2.6334,-2.603,-2.5773,-2.5773,-2.5277,-2.4836,-2.4606,-2.4578,-2.4477,-2.422,-2.4202,-2.4202,-2.4202,-2.4202,-2.4202,-2.4202,-2.4202,-2.4202,-2.4202,-2.4202,-2.4202,-2.4202,-2.4202,-2.4202,-1.3661,-1.4628,-1.5453,-1.6354,-1.5952,-1.4821,0.0,0.0,-1.0793,-0.9922,-0.981,-1.0067,-1.0625,-1.115,-1.1724,0.0,0.0,0.0,0.0,0.0,0.0,0.0,0.0,0.0,0.0,0.0,0.0,0.0,0.0,0.0,-1.9078,-1.9078,-1.9078,-1.9078,-1.9078,-1.92,-1.945,-1.945,-1.9584,-1.9788,-1.9788,-1.9788,-1.9788,-1.9788,-1.9788,-1.9788,-1.9909,-1.9973,0.0,-2.0043,-2.0106,-2.0106,-2.0106,-2.0106,-2.0106,-2.0106,-2.0106,-2.0106,-2.0106,-2.0106,-2.0106,-2.0106,-2.0106,-2.0354,-2.1776,-2.1531,-2.0799,-2.0799,-2.0799,-2.0799,-2.0799,-2.0862,-2.0793,-2.0297,-2.0172,-2.0334,-2.069,-2.1018,-2.168,-2.3432,-2.3991,-2.4556,-2.5404,-2.5514,-2.5514,-2.5514,-2.5852,-2.6081,-2.6081,-2.61,-2.6195,-2.6195,-2.5894,-2.5518,-2.5005,-2.4959,-2.4882,-2.4587,-2.4459,-2.4385,-2.4385,-2.4266,-2.4202,-2.4202,-2.4202,-2.4202,-2.4202,-2.4202,-2.4202,-2.4202,-2.4202,-2.4202,-1.2471,-1.379,-1.5204,-1.6075,-1.5125,-1.3511,0.0,-1.0702,-0.9551,-0.8201,-0.8987,-0.9922,-0.9922,-1.0768,-1.1663,-1.2234,0.0,0.0,0.0,0.0,0.0,0.0,0.0,0.0,0.0,0.0,0.0,0.0,0.0,0.0,-1.9078,-1.9078,-1.9078,-1.9078,-1.9078,-1.9078,-1.9142,-1.9142,-1.9142,-1.9142,-1.9142,-1.9142,-1.9142,-1.9142,-1.9142,-1.9142,-1.945,-1.9641,0.0,-1.9973,-2.0106,-2.0106,-2.0106,-2.0106,-2.0106,-2.0106,-2.0106,-2.0106,-2.0106,-2.0106,-2.0106,-2.0106,-2.0106,-2.0106,-2.0106,-2.0106,-2.0106,-2.0106,-2.0106,-2.0106,-2.0106,-2.0361,-2.0537,-2.025,-2.0209,-2.0154,-1.986,-2.0538,-2.1231,-2.1231,-2.2191,-2.303,-2.303,-2.303,-2.303,-2.303,-2.4047,-2.4834,-2.4834,-2.5852,-2.6582,-2.6582,-2.6582,-2.6252,-2.5488,-2.5362,-2.5362,-2.5414,-2.4986,-2.4776,-2.4776,-2.4422,-2.4202,-2.4202,-2.4202,-2.4202,-2.4202,-2.4202,-2.4202,-2.4202,-2.4202,-2.4202,-1.0285,-1.1203,-1.2057,-1.2935,-1.2677,-1.1845,-1.0215,-0.9362,-0.8721,-0.7935,-0.803,-0.8437,-0.897,-0.9791,-1.074,-1.1869,-1.2613,0.0,0.0,0.0,0.0,0.0,0.0,0.0,0.0,0.0,0.0,0.0,0.0,0.0,-1.9078,-1.9078,-1.9078,-1.9078,-1.9078,-1.9078,-1.9078,-1.9078,-1.9078,-1.9078,-1.9078,-1.9078,-1.9078,-1.9078,-1.9078,-1.9142,-1.92,-1.9264,-1.9264,-1.9392,-1.9398,-1.9398,-1.9398,-1.9398,-1.9398,-1.9398,-1.9398,-1.9398,-1.9398,-1.9398,-1.9398,-1.9398,-1.9398,-1.9398,-1.9398,-1.9724,-2.0106,-2.0106,-2.0106,-2.017,-2.0361,-2.0545,-2.06,-2.0562,-2.0393,-2.0154,-1.986,-1.9917,-2.022,-2.106,-2.1509,-2.2021,-2.2862,-2.2974,-2.2974,-2.2974,-2.332,-2.3544,-2.3544,-2.388,-2.4158,-2.4158,-2.4158,-2.4573,-2.5706,-2.5828,-2.5708,-2.5442,-2.5304,-2.524,-2.524,-2.5111,-2.4909,-2.4643,-2.4633,-2.4486,-2.4202,-2.4202,-2.4202,-2.4202,-2.4202,-2.4202,0.0,-0.9832,-1.0355,-1.1364,-1.1149,-1.0385,-0.9357,-0.8443,-0.7723,-0.732,-0.7368,-0.7633,-0.8169,-0.8995,-1.0001,-1.1234,-1.2127,0.0,0.0,0.0,0.0,0.0,0.0,0.0,0.0,0.0,0.0,0.0,0.0,0.0,-1.9078,-1.9078,-1.9078,-1.9078,-1.9078,-1.9078,-1.9078,-1.9078,-1.9078,-1.9078,-1.9078,-1.9078,-1.9078,-1.9078,-1.9078,-1.9078,-1.9078,-1.9078,0.0,-1.9078,-1.9078,-1.9078,-1.9078,-1.9078,-1.9078,-1.9078,-1.9078,-1.9078,-1.9078,-1.9078,-1.9078,-1.9078,-1.9078,-1.9078,-1.9078,-1.9398,-1.9717,-1.9717,-1.9717,-1.9781,-1.9973,-2.0157,-2.024,-2.0255,-2.0097,-1.9817,-1.964,-1.941,-1.941,-2.0199,-2.0436,-2.078,-2.1509,-2.1623,-2.1623,-2.1623,-2.19,-2.2119,-2.2119,-2.2507,-2.2789,-2.2789,-2.2918,-2.3502,-2.4772,-2.5306,-2.5424,-2.5183,-2.5463,-2.5644,-2.5644,-2.5506,-2.5304,-2.5005,-2.5005,-2.4876,-2.4661,-2.4514,-2.444,-2.444,-2.4275,-2.4202,0.0,-0.9228,-0.9664,-1.0827,-1.0124,-0.9084,-0.8955,-0.7756,0.0,-0.6528,-0.6973,-0.7415,-0.7439,-0.8303,-0.9374,-1.0442,-1.1343,0.0,0.0,0.0,0.0,0.0,0.0,0.0,0.0,0.0,0.0,0.0,0.0,0.0,-1.9078,-1.9078,-1.9078,-1.9078,-1.9078,-1.9078,-1.9078,-1.9078,-1.9078,-1.9078,-1.9078,-1.9078,-1.9078,-1.9078,-1.9078,0.0,-1.9078,-1.9078,-1.9078,-1.9078,-1.9078,-1.9078,-1.9078,-1.9078,-1.9078,-1.9078,-1.9078,-1.9078,-1.9078,-1.9078,-1.9078,-1.9078,-1.9078,-1.9078,-1.9078,-1.9078,-1.9078,-1.9078,-1.9078,-1.9142,-1.9142,-1.9386,-1.9641,-1.9641,-1.9487,-1.9341,-1.9315,-1.906,-1.89,-1.8881,-1.912,-1.9307,-1.9307,-1.9307,-1.9307,-1.9307,-2.0026,-2.0515,-2.0515,-2.1529,-2.2202,-2.2202,-2.2507,-2.2692,-2.2692,-2.388,-2.4667,-2.4667,-2.5387,-2.5782,-2.5782,-2.5436,-2.5279,-2.5304,-2.5381,-2.5424,-2.5424,-2.5005,-2.4821,-2.4812,-2.4468,-2.4275,-0.6384,0.0,-0.719,-0.7405,-0.7381,-0.7289,0.0,-0.6804,-0.6525,0.0,0.0,0.0,0.0,-0.7528,-0.8431,0.0,0.0,0.0,0.0,0.0,0.0,0.0,0.0,0.0,0.0,0.0,0.0,0.0,0.0,-1.9078,-1.9078,-1.9078,-1.9078,-1.9078,-1.9078,-1.9078,-1.9078,-1.9078,-1.9078,-1.9078,-1.9078,-1.9078,-1.9078,-1.9078,-1.9078,-1.9078,-1.9078,-1.9078,-1.9078,-1.9078,-1.9078,-1.9078,-1.9078,-1.9078,-1.9078,-1.9078,-1.9078,-1.9078,-1.9078,-1.9078,-1.9078,-1.9078,-1.9078,-1.9078,-1.9078,-1.9078,-1.9078,-1.9078,-1.9078,-1.9142,-1.945,-1.9514,-1.9641,-1.9909,-1.9776,-1.9528,-1.936,-1.9035,-1.8788,-1.8576,-1.8596,-1.8655,-1.8655,-1.8655,-1.8655,-1.8655,-1.8823,-1.8926,-1.8926,-1.921,-1.9383,-1.9383,-1.9673,-1.973,-1.9499,-2.1892,-2.3424,-2.3424,-2.3574,-2.3692,-2.3692,-2.361,-2.3876,-2.4452,-2.5089,-2.5424,-2.5424,-2.5332,-2.5286,-2.5286,-2.5185,-2.4973,-0.5188,-0.5744,-0.6236,-0.6395,-0.6534,-0.6612,-0.6657,0.0,0.0,0.0,0.0,0.0,0.0,0.0,0.0,0.0,0.0,0.0,0.0,0.0,0.0,0.0,0.0,0.0,0.0,0.0,0.0,0.0,0.0,-1.9078,-1.9078,-1.9078,-1.9078,-1.9078,-1.9078,-1.9078,-1.9078,-1.9078,-1.9078,-1.9078,-1.9078,-1.9078,-1.9078,-1.9078,-1.9078,-1.9078,-1.9078,-1.9078,-1.9078,-1.9078,-1.9078,-1.9078,-1.9078,-1.9078,-1.9078,-1.9078,-1.9078,-1.9078,-1.9078,-1.9078,-1.9078,-1.9078,-1.9078,-1.9078,-1.9078,-1.9078,-1.9078,-1.9078,-1.9078,-1.9136,-1.9328,-1.9386,-1.9392,-1.959,-1.9448,-1.9212,-1.9057,-1.8824,-1.8558,-1.8414,-1.8393,-1.8421,-1.8421,-1.8421,-1.8421,-1.8421,-1.8305,-1.8194,-1.8194,-1.8194,-1.8194,-1.8194,-1.848,-1.859,-1.8421,-1.9903,-2.1152,-2.1658,-2.2217,-2.2564,-2.2564,-2.2564,-2.3087,-2.4225,-2.4814,-2.5379,-2.5931,-2.5791,-2.569,-2.569,-2.5506,-2.5262,-0.4659,-0.536,-0.605,-0.6463,-0.6531,-0.6573,-0.6813,0.0,0.0,0.0,0.0,0.0,0.0,0.0,0.0,0.0,0.0,0.0,0.0,0.0,0.0,0.0,0.0,0.0,0.0,0.0,0.0,0.0,0.0,-1.9078,-1.9078,-1.9078,-1.9078,-1.9078,-1.9078,-1.9078,-1.9078,-1.9078,-1.9078,-1.9078,-1.9078,-1.9078,-1.9078,-1.9078,-1.9078,-1.9078,0.0,0.0,-1.9078,-1.9078,-1.9078,-1.9078,-1.9078,-1.9078,-1.9078,-1.9078,-1.9078,-1.9078,-1.9078,-1.9078,-1.9078,-1.9078,-1.9078,-1.9078,-1.9078,-1.9078,-1.9078,-1.9078,-1.9078,-1.9078,-1.9078,-1.9078,-1.9078,-1.9078,-1.8909,-1.8734,-1.8692,-1.8545,-1.8358,-1.8315,-1.8317,-1.8246,-1.8246,-1.8246,-1.8246,-1.8246,-1.8077,-1.7908,-1.7908,-1.7908,-1.7908,-1.7908,-1.8194,-1.8305,-1.824,-1.8305,-1.8758,-1.9717,-2.0845,-2.1465,-2.1465,-2.1635,-2.242,-2.395,-2.4428,-2.5238,-2.6473,-2.6117,-2.5943,-2.5934,-2.5596,-2.5414,-0.4904,-0.5415,-0.5818,-0.586,-0.6191,-0.6544,-0.6679,0.0,0.0,0.0,0.0,0.0,0.0,0.0,0.0,0.0,0.0,0.0,0.0,0.0,0.0,0.0,0.0,0.0,0.0,0.0,0.0,0.0,0.0,-1.9078,-1.9078,-1.9078,-1.9078,-1.9078,-1.9078,-1.9078,-1.9078,-1.9078,-1.9078,-1.9078,-1.9078,-1.9078,-1.9078,-1.9078,-1.9078,-1.9078,0.0,-1.9078,-1.9078,-1.9078,-1.9078,-1.9078,-1.9078,-1.9078,-1.9078,-1.9078,-1.9078,-1.9078,-1.9078,-1.9078,-1.9078,-1.9078,-1.9078,-1.9078,-1.9078,-1.9078,-1.9078,-1.9078,-1.9078,-1.9078,-1.9078,-1.9078,-1.9078,-1.9078,-1.9048,-1.8957,-1.8734,-1.8506,-1.8222,-1.8046,-1.7784,-1.7655,-1.7655,-1.7655,-1.7655,-1.7655,-1.7602,-1.7602,-1.7602,-1.7602,-1.7602,-1.7602,-1.7849,-1.796,-1.7661,-1.7901,-1.8018,-1.7941,-1.8577,-1.8926,-1.8926,-1.994,-2.108,-2.241,-2.3488,-2.4612,-2.5852,-2.579,-2.5754,-2.5754,-2.5701,-2.5604,-0.4603,-0.5003,-0.5445,-0.5717,-0.6365,-0.695,-0.7156,0.0,0.0,0.0,0.0,0.0,0.0,0.0,0.0,0.0,0.0,0.0,0.0,0.0,0.0,0.0,0.0,0.0,0.0,0.0,0.0,0.0,0.0,0.0,-1.9078,-1.9078,-1.9078,-1.9078,-1.9078,-1.9078,-1.9078,-1.9078,-1.9078,-1.9078,-1.9078,-1.9078,-1.9078,-1.9078,-1.9078,-1.9078,0.0,-1.9078,-1.9078,-1.9078,-1.9078,-1.9078,-1.9078,-1.9078,-1.9078,-1.9078,-1.9078,-1.9078,-1.9078,-1.9078,-1.9078,-1.9078,-1.9078,-1.9078,-1.9078,-1.9078,-1.9078,-1.9078,-1.9078,-1.9078,-1.9078,-1.9078,-1.9078,-1.9078,-1.9078,-1.9042,-1.8921,-1.8692,-1.8426,-1.8155,-1.7877,-1.7648,-1.7503,-1.7485,-1.7485,-1.7485,-1.7485,-1.7485,-1.7485,-1.7485,-1.7485,-1.7485,-1.7661,-1.7667,-1.7485,-1.7661,-1.7667,-1.7485,-1.7772,-1.7889,-1.7889,-1.8642,-1.9615,-2.0816,-2.1544,-2.25,-2.3679,-2.3679,-2.3679,-2.3679,-2.3679,-2.3764,-0.4444,-0.4772,-0.5213,-0.5754,0.0,-0.7098,-0.7523,0.0,0.0,0.0,0.0,0.0,0.0,0.0,0.0,0.0,0.0,0.0,0.0,0.0,0.0,0.0,0.0,0.0,0.0,0.0,0.0,0.0,0.0,0.0,-1.9078,-1.9078,-1.9078,-1.9078,-1.9078,-1.9078,-1.9078,-1.9078,-1.9078,-1.9078,-1.9078,-1.9078,-1.9078,-1.9078,-1.9078,-1.9078,-1.9078,-1.9078,-1.9078,-1.9078,-1.9078,-1.9078,-1.9078,-1.9078,-1.9078,-1.9078,-1.9078,-1.9078,-1.9078,-1.9078,-1.9078,-1.9078,-1.9078,-1.9078,-1.9078,-1.9078,-1.9078,-1.9078,-1.9078,-1.9078,-1.9078,-1.9078,-1.9078,-1.9078,-1.9078,-1.9078,-1.9078,-1.8873,-1.8607,-1.8348,-1.8064,-1.7787,-1.7527,-1.7485,-1.7485,-1.7485,-1.7485,-1.7485,-1.7485,-1.7485,-1.7485,-1.7485,-1.7485,-1.7485,-1.7485,-1.7485,-1.7509,-1.7569,-1.7515,-1.7509,-1.7569,-1.7762,-1.848,-1.9666,-1.989,-2.0565,-2.1798,-2.1798,-2.1798,-2.1798,-2.1798,-2.1975,-0.4871,-0.5143,-0.545,-0.5813,-0.607,0.0,-0.7577,-0.7567,0.0,0.0,0.0,0.0,0.0,0.0,0.0,0.0,0.0,0.0,0.0,0.0,0.0,0.0,0.0,0.0,0.0,0.0,0.0,0.0,0.0,0.0,-1.9078,-1.9078,-1.9078,-1.9078,-1.9078,-1.9078,-1.9078,-1.9078,-1.9078,-1.9078,-1.9078,-1.9078,-1.9078,-1.9078,-1.9078,-1.9078,-1.9078,-1.9078,-1.9078,-1.9078,-1.9078,-1.9078,-1.9078,-1.9078,-1.9078,-1.9078,-1.9078,-1.9078,-1.9078,-1.9078,-1.9078,-1.9078,-1.9078,-1.9078,-1.9078,-1.9078,-1.9078,-1.9078,-1.9078,-1.9078,-1.9078,-1.9078,-1.9078,-1.9078,-1.9078,-1.9078,-1.9078,-1.8873,-1.8607,-1.8348,-1.8064,-1.7787,-1.7527,-1.7485,-1.7485,-1.7485,-1.7485,-1.7485,-1.7485,-1.7485,-1.7485,-1.7485,-1.7485,-1.7485,-1.7485,-1.7485,-1.7587,-1.7829,-1.7618,-1.7587,-1.7835,-1.7671,-1.8117,-1.9319,-1.9325,-1.9947,-2.118,-2.118,-2.118,-2.118,-2.118,-2.1351,-0.464,-0.4916,-0.5277,-0.5737,0.0,0.0,0.0,0.0,0.0,0.0,0.0,0.0,0.0,0.0,0.0,0.0,0.0,0.0,0.0,0.0,0.0,0.0,0.0,0.0,0.0,0.0,0.0,0.0,0.0,0.0,-1.9078,-1.9078,-1.9078,-1.9078,-1.9078,-1.9078,-1.9078,-1.9078,-1.9078,-1.9078,-1.9078,-1.9078,-1.9078,-1.9078,-1.9078,-1.9078,-1.9078,-1.9078,-1.9078,-1.9078,-1.9078,-1.9078,-1.9078,-1.9078,-1.9078,-1.9078,-1.9078,-1.9078,-1.9078,-1.9078,-1.9078,-1.9078,-1.9078,-1.9078,-1.9078,-1.9078,-1.9078,-1.9078,-1.9078,-1.9078,-1.9078,-1.9078,-1.9078,-1.9078,-1.9078,-1.9078,-1.9078,-1.8873,-1.8607,-1.8348,-1.8064,-1.7787,-1.7527,-1.7485,-1.7485,-1.7485,-1.7485,-1.7485,-1.7485,-1.7485,-1.7485,-1.7485,-1.7485,-1.7485,-1.7485,-1.7485,-1.7593,-1.7859,-1.7781,-1.7768,-1.7871,-1.7781,-1.7885,-1.8175,-1.8175,-1.8402,-1.8848,-1.8848,-1.8848,-1.8848,-1.8848,-1.9029,-0.4597,-0.4822,-0.5158,0.0,0.0,0.0,0.0,0.0,0.0,0.0,0.0,0.0,0.0,0.0,0.0,0.0,0.0,0.0,0.0,0.0,0.0,0.0,0.0,0.0,0.0,0.0,0.0,0.0,0.0,0.0,0.0,-1.888,-1.9078,-1.9078,-1.9078,-1.9078,-1.9078,-1.9078,-1.9078,-1.9078,-1.9078,-1.9078,-1.9078,-1.9078,-1.9078,-1.9078,-1.9078,-1.9078,-1.9078,-1.9078,-1.9078,-1.9078,-1.9078,-1.9078,-1.9078,-1.9078,-1.9078,-1.9078,-1.9078,-1.9078,-1.9078,-1.9078,-1.9078,-1.9078,-1.9078,-1.9078,-1.9078,-1.9078,-1.9078,-1.9078,-1.9078,-1.9078,-1.9078,-1.9078,-1.9012,-1.8951,-1.8951,-1.8746,-1.8481,-1.8215,-1.8004,-1.7787,-1.7527,-1.7485,-1.7485,-1.7485,-1.7485,-1.7485,-1.7485,-1.7485,-1.7485,-1.7485,-1.7485,-1.7485,-1.7485,-1.7485,-1.7593,-1.7859,-1.7956,-1.7968,-1.7877,-1.7871,-1.775,-1.7491,-1.7485,-1.7485,-1.7485,-1.7485,-1.7485,-1.7485,-1.7485,-1.7608,-0.4828,-0.5007,0.0,0.0,0.0,0.0,0.0,0.0,0.0,0.0,0.0,0.0,0.0,0.0,0.0,0.0,0.0,0.0,0.0,0.0,0.0,0.0,0.0,0.0,0.0,0.0,0.0,0.0,0.0,0.0,0.0,-1.8285,-1.9072,-1.9066,-1.9066,-1.9066,-1.9066,-1.9066,-1.9066,-1.9066,-1.9066,-1.9072,-1.9078,-1.9078,-1.9078,-1.9078,-1.9078,-1.9078,-1.9078,-1.9078,-1.9078,-1.9078,-1.9078,-1.9078,-1.9078,-1.9078,-1.9078,-1.9078,-1.9078,-1.9078,-1.9078,-1.9078,-1.9078,-1.9078,-1.9078,-1.9078,-1.9078,-1.9078,-1.9078,-1.9078,-1.9078,-1.9078,-1.9078,-1.9078,-1.8879,-1.8686,-1.8686,-1.8475,-1.8209,-1.7925,-1.7871,-1.7787,-1.7527,-1.7485,-1.7485,-1.7485,-1.7485,-1.7485,-1.7485,-1.7485,-1.7485,-1.7485,-1.7485,-1.7485,-1.7485,-1.7485,-1.7593,-1.7853,-1.8137,-1.8167,-1.7889,-1.7877,-1.775,-1.7491,-1.7485,-1.7485,-1.7485,-1.7485,-1.7485,-1.7485,-1.7485,-1.7485,-0.4741,0.0,0.0,0.0,0.0,0.0,0.0,0.0,0.0,0.0,0.0,0.0,0.0,0.0,0.0,0.0,0.0,0.0,0.0,0.0,0.0,0.0,0.0,0.0,0.0,0.0,0.0,0.0,0.0,0.0,0.0,-1.6605,-1.7295,-1.7184,-1.8075,-1.8523,-1.8523,-1.8523,-1.8523,-1.8523,-1.8523,-1.8716,-1.9078,-1.9078,-1.9078,-1.9078,-1.9078,-1.9078,-1.9078,-1.9078,-1.9078,-1.9078,-1.9078,-1.9078,-1.9078,-1.9078,-1.9078,-1.9078,-1.9078,-1.9078,-1.9078,-1.9078,-1.9078,-1.9078,-1.9078,-1.9078,-1.9078,-1.9078,-1.9078,-1.9078,-1.9078,-1.9078,-1.9078,-1.9078,-1.8879,-1.8686,-1.8686,-1.8324,-1.7974,-1.7889,-1.7726,-1.7575,-1.7497,-1.7485,-1.7485,-1.7485,-1.7485,-1.7485,-1.7485,-1.7485,-1.7485,-1.7485,-1.7485,-1.7485,-1.7485,-1.7485,-1.7515,-1.7593,-1.8034,-1.8257,-1.8173,-1.8167,-1.804,-1.7762,-1.7575,-1.7485,-1.7485,-1.7485,-1.7485,-1.7485,-1.7485,-1.7485,-0.4991,0.0,0.0,0.0,0.0,0.0,0.0,0.0,0.0,0.0,0.0,0.0,0.0,0.0,0.0,0.0,0.0,0.0,0.0,0.0,0.0,0.0,0.0,0.0,0.0,0.0,0.0,0.0,0.0,0.0,-1.3775,-1.5032,-1.5726,-1.5649,-1.6904,-1.7532,-1.7532,-1.8042,-1.8294,-1.8294,-1.8294,-1.8463,-1.8764,-1.8764,-1.8764,-1.877,-1.8873,-1.8921,-1.8927,-1.9036,-1.9078,-1.9078,-1.9078,-1.9078,-1.9078,-1.9078,-1.9078,-1.9078,-1.9078,-1.9078,-1.9078,-1.9078,-1.9078,-1.9078,-1.9078,-1.9078,-1.9078,-1.9078,-1.9078,-1.9078,-1.9078,-1.9,-1.8921,-1.8921,-1.8722,-1.8499,-1.8384,-1.8022,-1.7714,-1.7714,-1.7587,-1.7485,-1.7485,-1.7485,-1.7485,-1.7485,-1.7485,-1.7485,-1.7485,-1.7485,-1.7485,-1.7485,-1.7485,-1.7485,-1.7485,-1.7485,-1.7485,-1.7485,-1.7889,-1.8179,-1.8294,-1.8294,-1.8161,-1.7883,-1.7618,-1.7485,-1.7485,-1.7485,-1.7485,-1.7485,-1.7485,-1.7424,0.0,0.0,0.0,0.0,0.0,0.0,0.0,0.0,0.0,0.0,0.0,0.0,0.0,0.0,0.0,0.0,0.0,0.0,0.0,0.0,0.0,0.0,0.0,0.0,0.0,0.0,0.0,0.0,0.0,-1.2205,-1.2184,-1.3497,-1.4237,-1.4222,-1.5458,-1.6204,-1.6328,-1.7462,-1.8093,-1.8221,-1.8221,-1.8221,-1.8221,-1.8269,-1.8294,-1.8306,-1.8547,-1.865,-1.8668,-1.8933,-1.9042,-1.9042,-1.9066,-1.9078,-1.9078,-1.9078,-1.9078,-1.9078,-1.9078,-1.9078,-1.9078,-1.9078,-1.9078,-1.9078,-1.9078,-1.9078,-1.9078,-1.9078,-1.9078,-1.9078,-1.9078,-1.8879,-1.868,-1.8656,-1.8444,-1.8185,-1.7925,-1.7666,-1.7485,-1.7485,-1.7485,-1.7485,-1.7485,-1.7485,-1.7485,-1.7485,-1.7485,-1.7485,-1.7485,-1.7485,-1.7485,-1.7485,-1.7485,-1.7485,-1.7485,-1.7485,-1.7485,-1.7485,-1.7732,-1.7992,-1.8245,-1.8257,-1.8149,-1.7913,-1.763,-1.7485,-1.7485,-1.7485,-1.7485,-1.7485,-1.7485,-1.7358,0.0,0.0,0.0,0.0,0.0,0.0,0.0,0.0,0.0,0.0,0.0,0.0,0.0,0.0,0.0,0.0,0.0,0.0,0.0,0.0,0.0,0.0,0.0,0.0,0.0,0.0,0.0,0.0,0.0,-1.0661,-1.0534,-1.1821,-1.2492,-1.2291,-1.3616,-1.4761,-1.578,-1.603,-1.6691,-1.766,-1.766,-1.766,-1.7672,-1.81,-1.8294,-1.83,-1.8354,-1.8378,-1.8396,-1.8662,-1.877,-1.8788,-1.8994,-1.9078,-1.9078,-1.9078,-1.9078,-1.9078,-1.9078,-1.9078,-1.9078,-1.9078,-1.9078,-1.9078,-1.9078,-1.9078,-1.9078,-1.9078,-1.9078,-1.9078,-1.9078,-1.8879,-1.8632,-1.8426,-1.8167,-1.795,-1.7883,-1.7666,-1.7485,-1.7485,-1.7485,-1.7485,-1.7485,-1.7485,-1.7485,-1.7485,-1.7485,-1.7485,-1.7485,-1.7485,-1.7485,-1.7485,-1.7485,-1.7485,-1.7485,-1.7485,-1.7485,-1.7485,-1.7732,-1.7961,-1.7962,-1.7962,-1.804,-1.8197,-1.7726,-1.7485,-1.7485,-1.7485,-1.7485,-1.7485,-1.7485,-1.7455,0.0,0.0,0.0,0.0,0.0,0.0,0.0,0.0,0.0,0.0,0.0,0.0,0.0,0.0,0.0,0.0,0.0,0.0,0.0,0.0,0.0,0.0,0.0,0.0,0.0,0.0,0.0,0.0,0.0,-1.0025,-0.9883,-1.0544,-1.0871,-1.0789,-1.2049,-1.3066,-1.372,-1.4976,-1.593,-1.6585,-1.7185,-1.7485,-1.7491,-1.7774,-1.7907,-1.7913,-1.804,-1.8094,-1.8112,-1.8384,-1.8499,-1.8511,-1.865,-1.8776,-1.8891,-1.8891,-1.8969,-1.9078,-1.9078,-1.9078,-1.9078,-1.9078,-1.9078,-1.9078,-1.9078,-1.9078,-1.9078,-1.9078,-1.9078,-1.9048,-1.8921,-1.8692,-1.8426,-1.8161,-1.798,-1.7835,-1.7714,-1.7581,-1.7485,-1.7485,-1.7485,-1.7485,-1.7485,-1.7485,-1.7485,-1.7485,-1.7485,-1.7485,-1.7485,-1.7485,-1.7485,-1.7485,-1.7485,-1.7485,-1.7485,-1.7485,-1.7485,-1.7485,-1.7612,-1.7805,-1.8064,-1.7823,-1.7817,-1.8088,-1.7817,-1.7605,-1.7485,-1.7485,-1.7485,-1.7485,-1.7485,-1.7412,0.0,0.0,0.0,0.0,0.0,0.0,0.0,0.0,0.0,0.0,0.0,0.0,0.0,0.0,0.0,0.0,0.0,0.0,0.0,0.0,0.0,0.0,0.0,0.0,0.0,0.0,0.0,0.0,0.0,-0.9822,-0.9822,-0.9822,-0.9822,-0.9822,-1.1027,-1.1692,-1.1692,-1.4078,-1.5273,-1.5273,-1.6349,-1.6826,-1.6826,-1.7062,-1.7303,-1.7497,-1.7708,-1.7805,-1.7829,-1.8106,-1.8221,-1.8227,-1.8275,-1.8426,-1.8613,-1.8613,-1.8752,-1.8939,-1.8939,-1.8939,-1.8939,-1.8939,-1.8939,-1.8939,-1.8939,-1.8969,-1.9,-1.8951,-1.8976,-1.8945,-1.8686,-1.842,-1.8161,-1.7925,-1.7835,-1.7744,-1.7527,-1.7485,-1.7485,-1.7485,-1.7485,-1.7485,-1.7485,-1.7485,-1.7485,-1.7485,-1.7485,-1.7485,-1.7485,-1.7485,-1.7485,-1.7485,-1.7485,-1.7485,-1.7485,-1.7485,-1.7485,-1.7485,-1.7485,-1.7684,-1.8137,-1.7762,-1.763,-1.7805,-1.7805,-1.7702,-1.7485,-1.7485,-1.7485,-1.7485,-1.7485,-1.7364,0.0,0.0,0.0,0.0,0.0,0.0,0.0,0.0,0.0,0.0,0.0,0.0,0.0,0.0,0.0,0.0,0.0,0.0,0.0,0.0,0.0,0.0,0.0,0.0,0.0,0.0,0.0,0.0,-0.9822,-0.9822,-0.9822,-0.9822,-0.9822,-0.9822,-1.1027,-1.1692,-1.1692,-1.3186,-1.3963,-1.3963,-1.4143,-1.4202,-1.4262,-1.5337,-1.6467,-1.7485,-1.7521,-1.7533,-1.7551,-1.7823,-1.7925,-1.7956,-1.8197,-1.8318,-1.8348,-1.8348,-1.8366,-1.8396,-1.8396,-1.8396,-1.8396,-1.8396,-1.8396,-1.8396,-1.8396,-1.8559,-1.8686,-1.8463,-1.8559,-1.8674,-1.8414,-1.8137,-1.7919,-1.7883,-1.7702,-1.7527,-1.7491,-1.7485,-1.7485,-1.7485,-1.7485,-1.7485,-1.7485,-1.7485,-1.7485,-1.7485,-1.7485,-1.7485,-1.7485,-1.7485,-1.7485,-1.7485,-1.7485,-1.7485,-1.7485,-1.7485,-1.7485,-1.7485,-1.7485,-1.7515,-1.7587,-1.7738,-1.7732,-1.7539,-1.7533,-1.7521,-1.7485,-1.7485,-1.7485,-1.7485,-1.7485,-1.7461,0.0,0.0,0.0,0.0,0.0,0.0,0.0,0.0,0.0,0.0,0.0,0.0,0.0,0.0,0.0,0.0,0.0,0.0,0.0,0.0,0.0,0.0,0.0,0.0,0.0,0.0,0.0,0.0,-0.9625,-0.9574,-0.9574,-0.9574,-0.9574,-0.9574,-1.0103,-1.0399,-1.0399,-1.1678,-1.2727,-1.3427,-1.3487,-1.3544,-1.3544,-1.4203,-1.5213,-1.6467,-1.7185,-1.7485,-1.7491,-1.7605,-1.7654,-1.7666,-1.7793,-1.7925,-1.8058,-1.8058,-1.8161,-1.8294,-1.8294,-1.8294,-1.8294,-1.8294,-1.8294,-1.8294,-1.8294,-1.8372,-1.8438,-1.8324,-1.8372,-1.8402,-1.8131,-1.7968,-1.7835,-1.769,-1.7569,-1.7485,-1.7485,-1.7485,-1.7485,-1.7485,-1.7485,-1.7485,-1.7485,-1.7485,-1.7485,-1.7485,-1.7485,-1.7485,-1.7485,-1.7485,-1.7485,-1.7485,-1.7485,-1.7485,-1.7485,-1.7485,-1.7485,-1.7485,-1.7618,-1.7774,-1.7931,-1.7895,-1.7895,-1.7937,-1.7781,-1.763,-1.7485,-1.7485,-1.7485,-1.7485,-1.7485,-1.7406,0.0,0.0,0.0,0.0,0.0,0.0,0.0,0.0,0.0,0.0,0.0,0.0,0.0,0.0,0.0,0.0,0.0,0.0,0.0,0.0,0.0,0.0,0.0,0.0,0.0,0.0,0.0,0.0,-0.9387,-0.9323,-0.9381,-0.9381,-0.9381,-0.9381,-0.9726,-0.9722,-0.9381,-1.0351,-1.1261,-1.2232,-1.2325,-1.2422,-1.2475,-1.2922,-1.3672,-1.4679,-1.5989,-1.6526,-1.6526,-1.6526,-1.6526,-1.6526,-1.6526,-1.6877,-1.735,-1.735,-1.7661,-1.8088,-1.8088,-1.8088,-1.8088,-1.8088,-1.8088,-1.8088,-1.8088,-1.8137,-1.8173,-1.8106,-1.8137,-1.8125,-1.7847,-1.7774,-1.7726,-1.7527,-1.7485,-1.7485,-1.7485,-1.7485,-1.7485,-1.7485,-1.7485,-1.7485,-1.7485,-1.7485,-1.7485,-1.7485,-1.7485,-1.7485,-1.7485,-1.7485,-1.7485,-1.7485,-1.7485,-1.7485,-1.7485,-1.7485,-1.7485,-1.7485,-1.7666,-1.7871,-1.8082,-1.795,-1.7943,-1.8088,-1.795,-1.7744,-1.7485,-1.7485,-1.7485,-1.7485,-1.7412,-1.728,0.0,0.0,0.0,0.0,0.0,0.0,0.0,0.0,0.0,0.0,0.0,0.0,0.0,0.0,0.0,0.0,0.0,0.0,0.0,0.0,0.0,0.0,0.0,0.0,0.0,0.0,0.0,0.0,-0.9097,-0.9094,-0.9381,-0.9381,-0.9381,-0.9381,-1.0582,-1.064,-0.9439,-0.9439,-0.9555,-0.961,-0.9617,-0.97,-0.9842,-1.1083,-1.1704,-1.1993,-1.3306,-1.3904,-1.3904,-1.3904,-1.3904,-1.3904,-1.3904,-1.4624,-1.5709,-1.5709,-1.6495,-1.7527,-1.7527,-1.7527,-1.7527,-1.7527,-1.7527,-1.7527,-1.7527,-1.7696,-1.7847,-1.7593,-1.7702,-1.7835,-1.7569,-1.7503,-1.7497,-1.7485,-1.7485,-1.7485,-1.7485,-1.7485,-1.7485,-1.7485,-1.7485,-1.7485,-1.7485,-1.7485,-1.7485,-1.7485,-1.7485,-1.7485,-1.7485,-1.7485,-1.7485,-1.7485,-1.7485,-1.7485,-1.7485,-1.7485,-1.7485,-1.7485,-1.7497,-1.7509,-1.7527,-1.775,-1.7762,-1.7527,-1.775,-1.7744,-1.7485,-1.7485,-1.7485,-1.7473,-1.7231,-1.7105,0.0,0.0,0.0,0.0,0.0,0.0,0.0,0.0,0.0,0.0,0.0,0.0,0.0,0.0,0.0,0.0,0.0,0.0,0.0,0.0,0.0,0.0,0.0,0.0,0.0,0.0,0.0,0.0,0.0,-0.8927,-0.9096,-0.91,-0.91,-0.91,-0.9539,-0.9539,-0.9096,-0.91,-0.91,-0.91,-0.9191,-0.932,-0.9378,-0.9877,-1.0244,-1.0401,-1.0871,-1.206,-1.3725,-1.3725,-1.3725,-1.3725,-1.3725,-1.45,-1.5575,-1.5575,-1.6408,-1.7485,-1.7485,-1.7485,-1.7485,-1.7485,-1.7485,-1.7485,-1.7485,-1.7545,-1.7605,-1.7509,-1.7551,-1.7599,-1.7503,-1.7485,-1.7485,-1.7485,-1.7485,-1.7485,-1.7485,-1.7485,-1.7485,-1.7485,-1.7485,-1.7485,-1.7485,-1.7485,-1.7485,-1.7485,-1.7485,-1.7485,-1.7485,-1.7485,-1.7485,-1.7485,-1.7485,-1.7485,-1.7485,-1.7485,-1.7485,-1.7485,-1.7642,-1.7732,-1.7732,-1.7998,-1.8016,-1.7738,-1.7823,-1.7744,-1.7485,-1.7485,-1.7485,-1.7473,-1.7213,-1.7002,0.0,0.0,0.0,0.0,0.0,0.0,0.0,0.0,0.0,0.0,0.0,0.0,0.0,0.0,0.0,0.0,0.0,0.0,0.0,0.0,0.0,0.0,0.0,0.0,0.0,0.0,0.0,0.0,0.0,0.0,-0.8881,-0.8885,-0.8885,-0.8885,-0.8885,-0.8885,-0.8885,-0.8885,-0.8885,-0.8885,-0.9035,-0.9163,-0.9214,-0.9316,-0.9388,-0.9537,-0.9588,-1.064,-1.2406,-1.2406,-1.2406,-1.2406,-1.2406,-1.3421,-1.4917,-1.4436,-1.5628,-1.7426,-1.7003,-1.712,-1.7485,-1.7485,-1.7485,-1.7485,-1.7485,-1.7485,-1.7485,-1.7485,-1.7485,-1.7485,-1.7485,-1.7485,-1.7485,-1.7485,-1.7485,-1.7485,-1.7485,-1.7485,-1.7485,-1.7485,-1.7485,-1.7485,-1.7485,-1.7485,-1.7485,-1.7485,-1.7485,-1.7485,-1.7485,-1.7485,-1.7485,-1.7485,-1.7485,-1.7485,-1.7485,-1.7485,-1.7485,-1.7485,-1.7648,-1.7744,-1.7744,-1.8004,-1.8022,-1.7744,-1.7829,-1.7744,-1.7485,-1.7485,-1.7485,-1.7473,-1.7123,-1.6767,0.0,0.0,0.0,0.0,0.0,0.0,0.0,0.0,0.0,0.0,0.0,0.0,0.0,0.0,0.0,0.0,0.0,0.0,0.0,0.0,0.0,0.0,0.0,0.0,0.0,0.0,0.0,0.0,-0.8208,-0.8269,-0.8881,-0.8881,-0.8881,-0.8881,-0.8881,-0.8881,-0.8881,-0.8881,-0.8881,-0.8885,-0.8885,-0.9011,-0.9204,-0.9204,-0.9286,-0.9384,-0.9534,-0.9676,-0.9808,-0.9819,-0.9822,-0.9822,-0.9822,-1.1386,-1.3485,-1.2169,-1.4138,-1.7185,-1.5989,-1.6349,-1.7361,-1.7361,-1.7361,-1.7361,-1.7361,-1.7361,-1.7426,-1.742,-1.742,-1.742,-1.7479,-1.7485,-1.7485,-1.7485,-1.7485,-1.7485,-1.7485,-1.7485,-1.7485,-1.7485,-1.7485,-1.7485,-1.7485,-1.7485,-1.7485,-1.7485,-1.7485,-1.7485,-1.7485,-1.7485,-1.7485,-1.7485,-1.7485,-1.7485,-1.7485,-1.7485,-1.7485,-1.7485,-1.7485,-1.7485,-1.7485,-1.7732,-1.775,-1.7491,-1.7738,-1.7744,-1.7485,-1.7485,-1.7485,-1.7473,-1.6948,-1.641,-0.2184,0.0,0.0,0.0,0.0,0.0,0.0,0.0,0.0,0.0,0.0,0.0,0.0,0.0,0.0,0.0,0.0,0.0,0.0,0.0,0.0,0.0,0.0,0.0,0.0,0.0,0.0,0.0,-0.8045,-0.8156,-0.8598,-0.8771,-0.8826,-0.8598,-0.8598,-0.8598,-0.8598,-0.8598,-0.8712,-0.8885,-0.8885,-0.8905,-0.8998,-0.8998,-0.9076,-0.9275,-0.9316,-0.9364,-0.952,-0.9734,-0.9822,-0.9822,-0.9822,-1.0785,-1.223,-1.1812,-1.3006,-1.4679,-1.4321,-1.4441,-1.4738,-1.4738,-1.4738,-1.4738,-1.4738,-1.4738,-1.4917,-1.5871,-1.6107,-1.6349,-1.7244,-1.7485,-1.7485,-1.7485,-1.7485,-1.7485,-1.7485,-1.7485,-1.7485,-1.7485,-1.7485,-1.7485,-1.7485,-1.7485,-1.7485,-1.7485,-1.7485,-1.7485,-1.7485,-1.7485,-1.7485,-1.7485,-1.7485,-1.7485,-1.7485,-1.7485,-1.7485,-1.7485,-1.7485,-1.7485,-1.7485,-1.7732,-1.775,-1.7491,-1.7738,-1.7744,-1.7485,-1.7485,-1.7485,-1.7473,-1.6948,-1.641,0.0,0.0,0.0,0.0,0.0,0.0,0.0,-0.4849,0.0,0.0,0.0,0.0,0.0,0.0,0.0,0.0,0.0,0.0,0.0,0.0,0.0,0.0,0.0,0.0,0.0,-0.7285,-0.7391,-0.766,-0.766,-0.7847,-0.823,-0.8401,-0.8481,-0.8484,-0.8484,-0.8543,-0.8654,-0.8543,-0.8598,-0.8712,-0.8602,-0.8546,-0.8546,-0.8546,-0.8647,-0.8894,-0.8957,-0.9091,-0.9361,-0.954,-0.9676,-0.9737,-0.9798,-1.0607,-1.1631,-1.1088,-1.2105,-1.3605,-1.3066,-1.3246,-1.3725,-1.3725,-1.3725,-1.3725,-1.3725,-1.3725,-1.3844,-1.4619,-1.4798,-1.4976,-1.5693,-1.593,-1.593,-1.593,-1.593,-1.6048,-1.6585,-1.629,-1.6225,-1.7303,-1.7485,-1.7485,-1.7485,-1.7485,-1.7485,-1.7485,-1.7485,-1.7485,-1.7485,-1.7485,-1.7485,-1.7485,-1.7485,-1.7485,-1.7485,-1.7485,-1.7485,-1.7485,-1.7485,-1.7485,-1.7485,-1.763,-1.7642,-1.7485,-1.763,-1.7636,-1.7485,-1.7485,-1.737,-1.7147,-1.6718,-1.6296,0.0,0.0,0.0,0.0,0.0,0.0,-0.384,-0.4351,0.0,0.0,0.0,0.0,0.0,0.0,0.0,0.0,0.0,0.0,0.0,0.0,0.0,0.0,0.0,0.0,-0.6801,-0.6801,-0.6907,-0.7115,-0.7165,-0.7372,-0.7813,-0.7876,-0.8036,-0.8323,-0.8381,-0.8504,-0.8803,-0.8575,-0.8527,-0.854,-0.8211,-0.8045,-0.8045,-0.7989,-0.8156,-0.8436,-0.8567,-0.8791,-0.9084,-0.9235,-0.9397,-0.9622,-0.9747,-1.0472,-1.1329,-1.0243,-1.1265,-1.3126,-1.1929,-1.229,-1.3246,-1.3246,-1.3246,-1.3246,-1.3246,-1.3246,-1.3306,-1.3426,-1.3605,-1.3725,-1.3725,-1.3725,-1.3725,-1.3725,-1.3725,-1.4023,-1.5154,-1.45,-1.4381,-1.6649,-1.7062,-1.7062,-1.7062,-1.7185,-1.7303,-1.7303,-1.742,-1.7485,-1.7485,-1.7485,-1.7485,-1.7485,-1.7485,-1.7485,-1.7485,-1.7485,-1.7485,-1.7485,-1.7485,-1.7485,-1.7485,-1.7485,-1.7485,-1.7485,-1.7485,-1.7485,-1.7485,-1.7485,-1.7213,-1.6694,-1.6447,-1.6169,0.0,0.0,0.0,0.0,0.0,0.0,-0.229,-0.2525,0.0,0.0,0.0,0.0,0.0,0.0,0.0,0.0,0.0,0.0,0.0,0.0,0.0,0.0,0.0,0.0,-0.6793,-0.6801,-0.6801,-0.6854,-0.7062,-0.7229,-0.7308,-0.7578,-0.7643,-0.7452,-0.7671,-0.7883,-0.81,-0.8266,-0.8491,-0.8826,-0.8543,-0.8374,-0.8374,-0.81,-0.8045,-0.81,-0.8128,-0.8196,-0.8261,-0.8461,-0.8958,-0.9612,-0.9639,-0.984,-1.0122,-0.9879,-1.0122,-1.0543,-1.0243,-1.0365,-1.0543,-1.0543,-1.0543,-1.0543,-1.0543,-1.0543,-1.0785,-1.1808,-1.2891,-1.3725,-1.3725,-1.3725,-1.3725,-1.3725,-1.3725,-1.3784,-1.4023,-1.3904,-1.3844,-1.4321,-1.4441,-1.4441,-1.4441,-1.5273,-1.5989,-1.5989,-1.6826,-1.7485,-1.7485,-1.7485,-1.7485,-1.7485,-1.7485,-1.7485,-1.7485,-1.7485,-1.7485,-1.7485,-1.7485,-1.7485,-1.7485,-1.7485,-1.7485,-1.7485,-1.7485,-1.7485,-1.7485,-1.7485,-1.7213,-1.67,-1.6646,-1.6356,0.0,0.0,0.0,-0.0358,0.0,0.0,0.0,0.0,0.0,0.0,0.0,0.0,0.0,0.0,0.0,0.0,0.0,0.0,0.0,0.0,0.0,0.0,0.0,0.0,-0.6613,-0.6619,-0.6619,-0.6619,-0.6719,-0.685,-0.6914,-0.7076,-0.7157,-0.7217,-0.7326,-0.7516,-0.7799,-0.7745,-0.7866,-0.8166,-0.7892,-0.7816,-0.782,-0.7654,-0.7657,-0.7826,-0.7826,-0.7881,-0.7995,-0.8121,-0.8442,-0.8994,-0.9074,-0.9171,-0.9299,-0.9492,-0.9457,-0.94,-0.97,-0.9579,-0.9396,-0.9518,-0.9457,-0.9339,-0.9339,-0.946,-0.97,-1.0304,-1.1084,-1.1744,-1.1744,-1.1744,-1.1744,-1.1744,-1.1744,-1.1924,-1.259,-1.2225,-1.1924,-1.259,-1.2165,-1.2165,-1.3485,-1.4202,-1.4679,-1.4679,-1.5213,-1.5575,-1.5575,-1.6166,-1.6526,-1.6526,-1.7126,-1.7485,-1.7485,-1.7485,-1.7485,-1.7485,-1.7485,-1.7485,-1.7485,-1.7485,-1.7485,-1.7485,-1.7485,-1.7485,-1.7485,-1.7485,-1.7213,-1.67,-1.6555,-1.6278,0.0,0.0,0.0,0.0,0.0,-0.09,0.0,0.0,0.0,0.0,0.0,0.0,0.0,0.0,0.0,0.0,0.0,0.0,0.0,0.0,0.0,0.0,0.0,0.0,-0.6401,-0.6311,-0.6311,-0.6381,-0.6325,-0.6357,-0.6575,-0.6584,-0.673,-0.7038,-0.7093,-0.7267,-0.7561,-0.7343,-0.7302,-0.743,-0.7189,-0.7141,-0.7232,-0.7199,-0.7324,-0.7549,-0.7549,-0.766,-0.7823,-0.7823,-0.7941,-0.8124,-0.8506,-0.8685,-0.8844,-0.9102,-0.9095,-0.9037,-0.9457,-0.9278,-0.8915,-0.9156,-0.9098,-0.8915,-0.8915,-0.9034,-0.9217,-0.9217,-0.9396,-0.964,-0.964,-0.964,-0.97,-0.97,-0.9761,-1.0061,-1.1088,-1.0547,-1.0122,-1.1148,-1.0486,-1.0482,-1.2586,-1.3126,-1.3306,-1.3306,-1.3545,-1.3725,-1.3725,-1.4619,-1.5213,-1.5213,-1.6166,-1.6767,-1.6767,-1.6767,-1.6885,-1.7126,-1.7126,-1.7244,-1.7479,-1.7485,-1.7485,-1.7485,-1.7485,-1.7485,-1.7485,-1.7485,-1.7213,-1.6694,-1.6471,-1.6193,0.0,0.0,0.0,0.0,-0.0046,0.0,0.0,0.0,0.0,0.0,0.0,0.0,0.0,0.0,0.0,0.0,0.0,0.0,0.0,0.0,0.0,0.0,0.0,0.0,0.0,-0.6092,-0.6094,-0.6363,-0.6143,-0.6108,-0.6389,-0.6408,-0.6464,-0.6478,-0.6732,-0.6943,-0.7164,-0.7367,-0.7538,-0.7675,-0.7469,-0.7365,-0.7382,-0.7274,-0.721,-0.7265,-0.7265,-0.7265,-0.7265,-0.7265,-0.7329,-0.7424,-0.8129,-0.8716,-0.9139,-0.8984,-0.9098,-0.9217,-0.9034,-0.8976,-0.8915,-0.8915,-0.8915,-0.8915,-0.8915,-0.8915,-0.8915,-0.8915,-0.8976,-0.8976,-0.8976,-0.9156,-0.9335,-0.9335,-0.9579,-0.9819,-1.0001,-0.9883,-0.9822,-1.0001,-0.9883,-0.9879,-1.0183,-1.1209,-1.1929,-1.1929,-1.2946,-1.3725,-1.3725,-1.3844,-1.3904,-1.3904,-1.4023,-1.4143,-1.4143,-1.4143,-1.4619,-1.5752,-1.5811,-1.6349,-1.742,-1.7485,-1.7485,-1.7485,-1.7485,-1.7485,-1.7485,-1.7485,-1.7213,-1.67,-1.667,-1.638,0.0,0.0,0.0,0.0,0.0,0.0,0.0,0.0,-0.0078,0.0,0.0,0.0,0.0,0.0,0.0,0.0,0.0,0.0,0.0,0.0,0.0,0.0,0.0,0.0,0.0,0.0,0.0,0.0,-0.6029,-0.6032,-0.6323,-0.6401,-0.6387,-0.6387,-0.6489,-0.6614,-0.6667,-0.6819,-0.6932,-0.7061,-0.7032,-0.7076,-0.7148,-0.7213,-0.721,-0.721,-0.721,-0.721,-0.721,-0.721,-0.721,-0.7226,-0.7627,-0.7901,-0.8148,-0.8417,-0.8437,-0.8446,-0.8766,-0.8796,-0.8613,-0.8613,-0.8613,-0.8552,-0.8363,-0.8427,-0.8613,-0.8613,-0.8854,-0.9156,-0.9156,-0.9335,-0.9579,-0.9579,-0.97,-0.9822,-0.9822,-0.9822,-0.9822,-0.9822,-0.9822,-0.9822,-0.9822,-1.0243,-1.0604,-1.0604,-1.1084,-1.1442,-1.1442,-1.2109,-1.253,-1.253,-1.3246,-1.3725,-1.3725,-1.3725,-1.3904,-1.4441,-1.5213,-1.6166,-1.742,-1.7485,-1.7485,-1.7485,-1.7485,-1.7485,-1.7485,-1.7485,-1.7213,-1.67,-1.67,-1.641,0.0,0.0,0.0,0.0,0.0,0.0,0.0,0.0,0.0,0.0,0.0,0.0,0.0,0.0,0.0,0.0,0.0,0.0,0.0,0.0,0.0,0.0,0.0,0.0,0.0,0.0,0.0,0.0,0.0,-0.5871,-0.6298,-0.6344,-0.6404,-0.6384,-0.6387,-0.6387,-0.6387,-0.6387,-0.643,-0.657,-0.6695,-0.6817,-0.694,-0.7111,-0.718,-0.721,-0.721,-0.721,-0.721,-0.721,-0.721,-0.7218,-0.7252,-0.7285,-0.732,-0.7892,-0.794,-0.7897,-0.8441,-0.8488,-0.8244,-0.8244,-0.8244,-0.8244,-0.7994,-0.8058,-0.8244,-0.8244,-0.8607,-0.8909,-0.8909,-0.9153,-0.9396,-0.9396,-0.9518,-0.964,-0.964,-0.9761,-0.9822,-0.9822,-0.9822,-0.9822,-0.9822,-0.9822,-0.9822,-0.9822,-0.9822,-0.9822,-0.9822,-1.0607,-1.1209,-1.1209,-1.2045,-1.2646,-1.2646,-1.2646,-1.2766,-1.3126,-1.4381,-1.5515,-1.6408,-1.6467,-1.6467,-1.6467,-1.6826,-1.7003,-1.7003,-1.7303,-1.7213,-1.67,-1.67,-1.641,0.0,0.0,0.0,0.0,0.0,0.0,0.0,0.0,0.0,0.0,0.0,0.0,0.0,0.0,0.0,0.0,0.0,0.0,0.0,0.0,0.0,0.0,0.0,0.0,0.0,0.0,0.0,0.0,-0.5412,-0.5521,-0.6279,-0.632,-0.6325,-0.6384,-0.6387,-0.6387,-0.6387,-0.6387,-0.6387,-0.6392,-0.6567,-0.669,-0.6812,-0.6934,-0.7051,-0.721,-0.721,-0.721,-0.721,-0.721,-0.721,-0.721,-0.7215,-0.7215,-0.7259,-0.7568,-0.794,-0.8133,-0.8013,-0.7933,-0.7933,-0.7933,-0.7933,-0.7933,-0.7933,-0.7933,-0.7933,-0.7933,-0.7933,-0.793,-0.793,-0.818,-0.843,-0.843,-0.8915,-0.9339,-0.9339,-0.9579,-0.9822,-0.9822,-0.9822,-0.9822,-0.9822,-0.9822,-0.9822,-0.9822,-0.9822,-0.9822,-0.9822,-0.9819,-0.9883,-0.9883,-0.9883,-0.994,-0.994,-0.994,-1.0425,-1.1692,-1.3006,-1.3784,-1.3844,-1.3844,-1.3844,-1.3844,-1.5035,-1.5628,-1.5628,-1.6885,-1.7213,-1.67,-1.67,-1.641,0.0,0.0,0.0,0.0,0.0,0.0,0.0,0.0,0.0,0.0,0.0,0.0,0.0,0.0,0.0,0.0,0.0,0.0,0.0,0.0,0.0,0.0,0.0,0.0,0.0,0.0,0.0,0.0,-0.505,0.0,-0.5996,-0.6181,-0.6333,-0.6325,-0.6396,-0.6387,-0.6387,-0.6387,-0.6387,-0.6387,-0.6559,-0.6684,-0.6806,-0.6929,-0.7048,-0.721,-0.721,-0.721,-0.721,-0.721,-0.721,-0.721,-0.721,-0.721,-0.7245,-0.7475,-0.764,-0.7785,-0.811,-0.8244,-0.8244,-0.8244,-0.8244,-0.8183,-0.7994,-0.7872,-0.7872,-0.7872,-0.8058,-0.8244,-0.8244,-0.8488,-0.8732,-0.8732,-0.8915,-0.9037,-0.9037,-0.9095,-0.9217,-0.9217,-0.9217,-0.9278,-0.9457,-0.9457,-0.9518,-0.9761,-0.9822,-0.9822,-0.9822,-0.9822,-0.9822,-0.9822,-0.9822,-0.9822,-0.9822,-0.9822,-1.0365,-1.1631,-1.2109,-1.2766,-1.3665,-1.3725,-1.3725,-1.3725,-1.4143,-1.4321,-1.4321,-1.4798,-1.4743,-1.4241,-1.4241,-1.4833,0.0,0.0,0.0,0.0,0.0,0.0,0.0,0.0,0.0,0.0,0.0,0.0,0.0,0.0,0.0,0.0,0.0,0.0,0.0,0.0,0.0,0.0,0.0,0.0,0.0,0.0,-0.3447,-0.4461,-0.4849,0.0,0.0,-0.6072,-0.6273,-0.6317,-0.6377,-0.6387,-0.6387,-0.6387,-0.6387,-0.6387,-0.6465,-0.6619,-0.6741,-0.6864,-0.6983,-0.7152,-0.7193,-0.721,-0.721,-0.721,-0.721,-0.721,-0.721,-0.721,-0.724,-0.7429,-0.7573,-0.7725,-0.8066,-0.8244,-0.8244,-0.8244,-0.8244,-0.8183,-0.7994,-0.7872,-0.7872,-0.7872,-0.8058,-0.8244,-0.8244,-0.8366,-0.8546,-0.8546,-0.861,-0.8735,-0.8735,-0.8793,-0.8915,-0.8915,-0.8915,-0.8976,-0.9156,-0.9156,-0.9275,-0.9761,-0.9822,-0.9822,-0.9822,-0.9822,-0.9822,-0.9822,-0.9822,-0.9822,-0.9822,-0.9822,-1.0122,-1.0967,-1.1027,-1.139,-1.2286,-1.2286,-1.2286,-1.2286,-1.2766,-1.3006,-1.3006,-1.3485,-1.349,-1.3092,-1.3017,-1.3643]}]]